<?xml version='1.0' encoding='UTF-8'?><gpx version="1.1" creator="JPX - https://github.com/jenetics/jpx" xmlns="http://www.topografix.com/GPX/1/1"><trk><trkseg><trkpt lat="44.091747072566385" lon="12.395204594370345"><ele>30.0</ele><time>2026-03-28T08:58:15.012Z</time></trkpt><trkpt lat="44.09171502473069" lon="12.395287383826213"><ele>30.0</ele><time>2026-03-28T08:58:43.997Z</time></trkpt><trkpt lat="44.09178119631311" lon="12.395353674518576"><ele>30.0</ele><time>2026-03-28T08:58:46.997Z</time></trkpt><trkpt lat="44.09184808257835" lon="12.395408919291025"><ele>30.0</ele><time>2026-03-28T08:58:49.998Z</time></trkpt><trkpt lat="44.09192323755296" lon="12.39537819190361"><ele>30.0</ele><time>2026-03-28T08:58:53.998Z</time></trkpt><trkpt lat="44.09206760071896" lon="12.395168112980743"><ele>30.0</ele><time>2026-03-28T08:59:06Z</time></trkpt><trkpt lat="44.092068040585055" lon="12.395061538389236"><ele>30.0</ele><time>2026-03-28T08:59:09Z</time></trkpt><trkpt lat="44.09206081716736" lon="12.39495198844667"><ele>30.0</ele><time>2026-03-28T08:59:12Z</time></trkpt><trkpt lat="44.09205883202839" lon="12.394833410363129"><ele>30.0</ele><time>2026-03-28T08:59:15Z</time></trkpt><trkpt lat="44.092057679719595" lon="12.394739268286832"><ele>30.0</ele><time>2026-03-28T08:59:17Z</time></trkpt><trkpt lat="44.09202488080858" lon="12.394624153087788"><ele>30.0</ele><time>2026-03-28T08:59:20Z</time></trkpt><trkpt lat="44.09195569705076" lon="12.394594062303222"><ele>30.333333333333332</ele><time>2026-03-28T08:59:22Z</time></trkpt><trkpt lat="44.091863994117865" lon="12.39458999470307"><ele>30.666666666666664</ele><time>2026-03-28T08:59:25Z</time></trkpt><trkpt lat="44.09178565377389" lon="12.394598956042543"><ele>31.0</ele><time>2026-03-28T08:59:27Z</time></trkpt><trkpt lat="44.09172457032396" lon="12.394561488107014"><ele>31.333333333333332</ele><time>2026-03-28T08:59:31Z</time></trkpt><trkpt lat="44.0917101048012" lon="12.39446023448461"><ele>31.666666666666664</ele><time>2026-03-28T08:59:34Z</time></trkpt><trkpt lat="44.09171799392033" lon="12.394364573346266"><ele>32.0</ele><time>2026-03-28T08:59:37.001Z</time></trkpt><trkpt lat="44.091712398377474" lon="12.394259585352835"><ele>32.0</ele><time>2026-03-28T08:59:40.001Z</time></trkpt><trkpt lat="44.091724836196" lon="12.394154033104494"><ele>31.999999999999996</ele><time>2026-03-28T08:59:44.001Z</time></trkpt><trkpt lat="44.09167691854125" lon="12.394094658505917"><ele>32.0</ele><time>2026-03-28T08:59:48.001Z</time></trkpt><trkpt lat="44.09161353740718" lon="12.394062343547134"><ele>32.0</ele><time>2026-03-28T08:59:51.001Z</time></trkpt><trkpt lat="44.09155024320183" lon="12.394051678995707"><ele>31.999999999999996</ele><time>2026-03-28T08:59:54.001Z</time></trkpt><trkpt lat="44.09147131275611" lon="12.394025774326675"><ele>32.0</ele><time>2026-03-28T08:59:57.001Z</time></trkpt><trkpt lat="44.0913870255456" lon="12.394007689196988"><ele>32.0</ele><time>2026-03-28T09:00:00.001Z</time></trkpt><trkpt lat="44.091325199171614" lon="12.393989635516675"><ele>31.999999999999996</ele><time>2026-03-28T09:00:02.001Z</time></trkpt><trkpt lat="44.09124514419209" lon="12.393959560836347"><ele>32.0</ele><time>2026-03-28T09:00:05.001Z</time></trkpt><trkpt lat="44.09117729196294" lon="12.393962921050658"><ele>32.0</ele><time>2026-03-28T09:00:09.001Z</time></trkpt><trkpt lat="44.091145006353464" lon="12.394052541987197"><ele>32.0</ele><time>2026-03-28T09:00:12.001Z</time></trkpt><trkpt lat="44.091125485819035" lon="12.394153803769472"><ele>31.999999999999996</ele><time>2026-03-28T09:00:15.001Z</time></trkpt><trkpt lat="44.09110957249261" lon="12.39426565061475"><ele>32.0</ele><time>2026-03-28T09:00:18.001Z</time></trkpt><trkpt lat="44.09110783592426" lon="12.394364996912323"><ele>31.999999999999996</ele><time>2026-03-28T09:00:21.001Z</time></trkpt><trkpt lat="44.09101639402218" lon="12.394367437994195"><ele>32.0</ele><time>2026-03-28T09:00:25.001Z</time></trkpt><trkpt lat="44.09096089381053" lon="12.394409527631213"><ele>32.0</ele><time>2026-03-28T09:00:27.001Z</time></trkpt><trkpt lat="44.0909474224889" lon="12.394531915728331"><ele>32.0</ele><time>2026-03-28T09:00:30.001Z</time></trkpt><trkpt lat="44.090939971069666" lon="12.394620564968212"><ele>31.999999999999996</ele><time>2026-03-28T09:00:33Z</time></trkpt><trkpt lat="44.09084921532901" lon="12.394619942537124"><ele>32.0</ele><time>2026-03-28T09:00:37Z</time></trkpt><trkpt lat="44.09075679820945" lon="12.394607088183378"><ele>32.14285714285714</ele><time>2026-03-28T09:00:40Z</time></trkpt><trkpt lat="44.09066884775973" lon="12.394580292362853"><ele>32.285714285714285</ele><time>2026-03-28T09:00:43Z</time></trkpt><trkpt lat="44.09060166187601" lon="12.394575795780614"><ele>32.42857142857143</ele><time>2026-03-28T09:00:45Z</time></trkpt><trkpt lat="44.09053172034091" lon="12.394565142116141"><ele>32.57142857142857</ele><time>2026-03-28T09:00:47Z</time></trkpt><trkpt lat="44.09045809512881" lon="12.394550878113275"><ele>32.714285714285715</ele><time>2026-03-28T09:00:49Z</time></trkpt><trkpt lat="44.09038685452642" lon="12.394537801990095"><ele>32.857142857142854</ele><time>2026-03-28T09:00:51Z</time></trkpt><trkpt lat="44.09031446078511" lon="12.394513928196574"><ele>33.0</ele><time>2026-03-28T09:00:53Z</time></trkpt><trkpt lat="44.09023598152546" lon="12.394471379561198"><ele>33.0</ele><time>2026-03-28T09:00:56Z</time></trkpt><trkpt lat="44.09017160665125" lon="12.394427182707378"><ele>33.0</ele><time>2026-03-28T09:01:00Z</time></trkpt><trkpt lat="44.090083924890365" lon="12.394369390271166"><ele>33.0</ele><time>2026-03-28T09:01:03Z</time></trkpt><trkpt lat="44.0900217695202" lon="12.394315649718425"><ele>33.0</ele><time>2026-03-28T09:01:05Z</time></trkpt><trkpt lat="44.089945648067186" lon="12.394248778430878"><ele>33.0</ele><time>2026-03-28T09:01:08Z</time></trkpt><trkpt lat="44.089886896174185" lon="12.394203108533695"><ele>33.0</ele><time>2026-03-28T09:01:10Z</time></trkpt><trkpt lat="44.089810998665655" lon="12.394126172217646"><ele>33.42857142857143</ele><time>2026-03-28T09:01:13Z</time></trkpt><trkpt lat="44.089757897524436" lon="12.394074560950854"><ele>33.85714285714286</ele><time>2026-03-28T09:01:15Z</time></trkpt><trkpt lat="44.089708306716815" lon="12.39402026414487"><ele>34.28571428571429</ele><time>2026-03-28T09:01:17Z</time></trkpt><trkpt lat="44.08965331358581" lon="12.393972673165575"><ele>34.714285714285715</ele><time>2026-03-28T09:01:19Z</time></trkpt><trkpt lat="44.08959780180358" lon="12.393927467198122"><ele>35.142857142857146</ele><time>2026-03-28T09:01:21Z</time></trkpt><trkpt lat="44.089512557194546" lon="12.393864543428094"><ele>35.57142857142858</ele><time>2026-03-28T09:01:24Z</time></trkpt><trkpt lat="44.08945432626422" lon="12.393828376319352"><ele>36.0</ele><time>2026-03-28T09:01:26Z</time></trkpt><trkpt lat="44.08939156837135" lon="12.39379909307686"><ele>35.28571428571429</ele><time>2026-03-28T09:01:28Z</time></trkpt><trkpt lat="44.08930455235039" lon="12.393746328527737"><ele>34.57142857142857</ele><time>2026-03-28T09:01:31Z</time></trkpt><trkpt lat="44.08924866190727" lon="12.393702025299165"><ele>33.85714285714286</ele><time>2026-03-28T09:01:33Z</time></trkpt><trkpt lat="44.08918610548947" lon="12.393669976866551"><ele>33.142857142857146</ele><time>2026-03-28T09:01:35Z</time></trkpt><trkpt lat="44.0891221646195" lon="12.393637054908123"><ele>32.42857142857143</ele><time>2026-03-28T09:01:37Z</time></trkpt><trkpt lat="44.08905803094167" lon="12.393599523530236"><ele>31.714285714285715</ele><time>2026-03-28T09:01:39Z</time></trkpt><trkpt lat="44.08899256082884" lon="12.393566887452433"><ele>31.0</ele><time>2026-03-28T09:01:41Z</time></trkpt><trkpt lat="44.088910711864635" lon="12.393499805962236"><ele>31.000000000000004</ele><time>2026-03-28T09:01:44Z</time></trkpt><trkpt lat="44.08886473564522" lon="12.393388908117169"><ele>31.0</ele><time>2026-03-28T09:01:47Z</time></trkpt><trkpt lat="44.088880449715504" lon="12.393303790526685"><ele>31.0</ele><time>2026-03-28T09:01:49Z</time></trkpt><trkpt lat="44.0889241709281" lon="12.393203516618003"><ele>31.0</ele><time>2026-03-28T09:01:52Z</time></trkpt><trkpt lat="44.088955668316814" lon="12.393114565367284"><ele>31.000000000000004</ele><time>2026-03-28T09:01:55Z</time></trkpt><trkpt lat="44.08899209570497" lon="12.393013802319448"><ele>31.0</ele><time>2026-03-28T09:01:58Z</time></trkpt><trkpt lat="44.08902144725119" lon="12.392914330069987"><ele>31.000000000000004</ele><time>2026-03-28T09:02:01Z</time></trkpt><trkpt lat="44.0890521000104" lon="12.392808964848141"><ele>31.0</ele><time>2026-03-28T09:02:04Z</time></trkpt><trkpt lat="44.08909295421729" lon="12.39270986241164"><ele>31.0</ele><time>2026-03-28T09:02:07Z</time></trkpt><trkpt lat="44.08912535887539" lon="12.392595978475578"><ele>31.0</ele><time>2026-03-28T09:02:10Z</time></trkpt><trkpt lat="44.089149964262226" lon="12.392514898301004"><ele>31.000000000000004</ele><time>2026-03-28T09:02:12Z</time></trkpt><trkpt lat="44.08918482153109" lon="12.39239964542942"><ele>31.0</ele><time>2026-03-28T09:02:15Z</time></trkpt><trkpt lat="44.08921151324905" lon="12.392290270928115"><ele>30.666666666666668</ele><time>2026-03-28T09:02:18Z</time></trkpt><trkpt lat="44.089246674196474" lon="12.392185375428488"><ele>30.333333333333336</ele><time>2026-03-28T09:02:21Z</time></trkpt><trkpt lat="44.08928518673832" lon="12.392072361651143"><ele>30.0</ele><time>2026-03-28T09:02:24Z</time></trkpt><trkpt lat="44.08932299157005" lon="12.39196153803046"><ele>29.666666666666664</ele><time>2026-03-28T09:02:27Z</time></trkpt><trkpt lat="44.08935874091168" lon="12.391855186258857"><ele>29.333333333333332</ele><time>2026-03-28T09:02:30Z</time></trkpt><trkpt lat="44.08939841940328" lon="12.391744525548678"><ele>29.0</ele><time>2026-03-28T09:02:33Z</time></trkpt><trkpt lat="44.08943434062017" lon="12.391621730016718"><ele>29.666666666666664</ele><time>2026-03-28T09:02:36Z</time></trkpt><trkpt lat="44.089464692047166" lon="12.391499579774605"><ele>30.333333333333332</ele><time>2026-03-28T09:02:39Z</time></trkpt><trkpt lat="44.08949862623901" lon="12.391378176837863"><ele>31.0</ele><time>2026-03-28T09:02:42Z</time></trkpt><trkpt lat="44.08952962278392" lon="12.391280382658646"><ele>31.666666666666664</ele><time>2026-03-28T09:02:45Z</time></trkpt><trkpt lat="44.089499784597706" lon="12.391177331312322"><ele>32.333333333333336</ele><time>2026-03-28T09:03:00Z</time></trkpt><trkpt lat="44.08944924358086" lon="12.391123974909565"><ele>33.0</ele><time>2026-03-28T09:03:02Z</time></trkpt><trkpt lat="44.0893888607125" lon="12.39109649295046"><ele>33.166666666666664</ele><time>2026-03-28T09:03:04Z</time></trkpt><trkpt lat="44.08931074511232" lon="12.391109568165753"><ele>33.333333333333336</ele><time>2026-03-28T09:03:06Z</time></trkpt><trkpt lat="44.089236562645794" lon="12.391116618516776"><ele>33.5</ele><time>2026-03-28T09:03:08Z</time></trkpt><trkpt lat="44.08915989374032" lon="12.391117821994554"><ele>33.66666666666667</ele><time>2026-03-28T09:03:10Z</time></trkpt><trkpt lat="44.089081747260984" lon="12.391117022753699"><ele>33.833333333333336</ele><time>2026-03-28T09:03:12Z</time></trkpt><trkpt lat="44.08900309839629" lon="12.391112602565512"><ele>34.0</ele><time>2026-03-28T09:03:14Z</time></trkpt><trkpt lat="44.08892213943825" lon="12.39110503304174"><ele>34.0</ele><time>2026-03-28T09:03:16Z</time></trkpt><trkpt lat="44.088842619189734" lon="12.391095948290063"><ele>34.0</ele><time>2026-03-28T09:03:18Z</time></trkpt><trkpt lat="44.088761974279166" lon="12.391075246455106"><ele>34.0</ele><time>2026-03-28T09:03:20Z</time></trkpt><trkpt lat="44.088682587588174" lon="12.391050387078037"><ele>34.0</ele><time>2026-03-28T09:03:22Z</time></trkpt><trkpt lat="44.08860365699649" lon="12.391025464400276"><ele>34.0</ele><time>2026-03-28T09:03:24Z</time></trkpt><trkpt lat="44.08852221953437" lon="12.391008579235775"><ele>34.0</ele><time>2026-03-28T09:03:26Z</time></trkpt><trkpt lat="44.08844207118087" lon="12.390985801166574"><ele>34.0</ele><time>2026-03-28T09:03:28Z</time></trkpt><trkpt lat="44.088356891788656" lon="12.390959580890849"><ele>34.0</ele><time>2026-03-28T09:03:30Z</time></trkpt><trkpt lat="44.08827450006326" lon="12.390928559233338"><ele>34.0</ele><time>2026-03-28T09:03:32Z</time></trkpt><trkpt lat="44.08819648007464" lon="12.390891859454433"><ele>34.0</ele><time>2026-03-28T09:03:34Z</time></trkpt><trkpt lat="44.08811969148006" lon="12.390846305235574"><ele>34.0</ele><time>2026-03-28T09:03:36Z</time></trkpt><trkpt lat="44.0880412508814" lon="12.390805619460084"><ele>34.0</ele><time>2026-03-28T09:03:38Z</time></trkpt><trkpt lat="44.08796173799321" lon="12.390766050831033"><ele>34.0</ele><time>2026-03-28T09:03:40Z</time></trkpt><trkpt lat="44.08788669343339" lon="12.390721505749996"><ele>34.0</ele><time>2026-03-28T09:03:42Z</time></trkpt><trkpt lat="44.087805326892976" lon="12.390681971014496"><ele>34.0</ele><time>2026-03-28T09:03:44Z</time></trkpt><trkpt lat="44.08772807183466" lon="12.390637132941096"><ele>34.0</ele><time>2026-03-28T09:03:46Z</time></trkpt><trkpt lat="44.08764758983222" lon="12.390598964256132"><ele>34.0</ele><time>2026-03-28T09:03:48Z</time></trkpt><trkpt lat="44.08756696273956" lon="12.390565509417485"><ele>34.0</ele><time>2026-03-28T09:03:50Z</time></trkpt><trkpt lat="44.08749160751858" lon="12.390525975280289"><ele>34.333333333333336</ele><time>2026-03-28T09:03:52Z</time></trkpt><trkpt lat="44.08741878240656" lon="12.390484542661676"><ele>34.66666666666667</ele><time>2026-03-28T09:03:54Z</time></trkpt><trkpt lat="44.08734398459534" lon="12.39044030367675"><ele>35.0</ele><time>2026-03-28T09:03:56Z</time></trkpt><trkpt lat="44.08727284410523" lon="12.390403666699058"><ele>35.333333333333336</ele><time>2026-03-28T09:03:58Z</time></trkpt><trkpt lat="44.0872002434751" lon="12.390366868929258"><ele>35.666666666666664</ele><time>2026-03-28T09:04:00Z</time></trkpt><trkpt lat="44.08713014385639" lon="12.390328788200913"><ele>36.0</ele><time>2026-03-28T09:04:02Z</time></trkpt><trkpt lat="44.08705799234922" lon="12.390295326804214"><ele>36.0</ele><time>2026-03-28T09:04:04Z</time></trkpt><trkpt lat="44.086987569354534" lon="12.390265886737426"><ele>36.0</ele><time>2026-03-28T09:04:06Z</time></trkpt><trkpt lat="44.086919644853495" lon="12.390222967705968"><ele>36.0</ele><time>2026-03-28T09:04:08Z</time></trkpt><trkpt lat="44.0868523988391" lon="12.390188104754298"><ele>36.0</ele><time>2026-03-28T09:04:10Z</time></trkpt><trkpt lat="44.08677932020831" lon="12.390154417975145"><ele>36.0</ele><time>2026-03-28T09:04:12Z</time></trkpt><trkpt lat="44.08670655316569" lon="12.390117529160921"><ele>36.0</ele><time>2026-03-28T09:04:14Z</time></trkpt><trkpt lat="44.086634985216634" lon="12.390078391701994"><ele>36.0</ele><time>2026-03-28T09:04:16Z</time></trkpt><trkpt lat="44.08656085459604" lon="12.39003544809073"><ele>36.0</ele><time>2026-03-28T09:04:18Z</time></trkpt><trkpt lat="44.08648483707509" lon="12.38999593912204"><ele>36.0</ele><time>2026-03-28T09:04:20Z</time></trkpt><trkpt lat="44.086407967993736" lon="12.389949442680422"><ele>36.0</ele><time>2026-03-28T09:04:22Z</time></trkpt><trkpt lat="44.08633307478679" lon="12.389912471280704"><ele>36.0</ele><time>2026-03-28T09:04:24Z</time></trkpt><trkpt lat="44.086257299356454" lon="12.389872663283953"><ele>36.0</ele><time>2026-03-28T09:04:26Z</time></trkpt><trkpt lat="44.08618427155985" lon="12.389828950829672"><ele>36.0</ele><time>2026-03-28T09:04:28Z</time></trkpt><trkpt lat="44.086108991141884" lon="12.389790765761019"><ele>36.0</ele><time>2026-03-28T09:04:30Z</time></trkpt><trkpt lat="44.08603507118408" lon="12.389750826904935"><ele>36.0</ele><time>2026-03-28T09:04:32Z</time></trkpt><trkpt lat="44.085969224211375" lon="12.389713248247382"><ele>36.0</ele><time>2026-03-28T09:04:34Z</time></trkpt><trkpt lat="44.08589549593322" lon="12.389676042449448"><ele>36.0</ele><time>2026-03-28T09:04:37Z</time></trkpt><trkpt lat="44.085817711593094" lon="12.389687178488256"><ele>36.0</ele><time>2026-03-28T09:05:53Z</time></trkpt><trkpt lat="44.08573940460012" lon="12.389720037315445"><ele>35.6</ele><time>2026-03-28T09:05:56Z</time></trkpt><trkpt lat="44.085667787306534" lon="12.38968184025015"><ele>35.2</ele><time>2026-03-28T09:05:59Z</time></trkpt><trkpt lat="44.085600222706255" lon="12.389669367037511"><ele>34.8</ele><time>2026-03-28T09:06:01Z</time></trkpt><trkpt lat="44.0855025089657" lon="12.389632362881018"><ele>34.4</ele><time>2026-03-28T09:06:03Z</time></trkpt><trkpt lat="44.08540352904518" lon="12.389595517433266"><ele>34.0</ele><time>2026-03-28T09:06:05Z</time></trkpt><trkpt lat="44.085297443947816" lon="12.389575845091871"><ele>34.0</ele><time>2026-03-28T09:06:07Z</time></trkpt><trkpt lat="44.085196006208996" lon="12.389556020425795"><ele>34.0</ele><time>2026-03-28T09:06:09Z</time></trkpt><trkpt lat="44.08509956129327" lon="12.389543406416914"><ele>34.0</ele><time>2026-03-28T09:06:11Z</time></trkpt><trkpt lat="44.08500820827438" lon="12.389533604135186"><ele>34.0</ele><time>2026-03-28T09:06:13Z</time></trkpt><trkpt lat="44.084919031649626" lon="12.389526875123428"><ele>34.0</ele><time>2026-03-28T09:06:15Z</time></trkpt><trkpt lat="44.08482984526904" lon="12.389520314844551"><ele>33.833333333333336</ele><time>2026-03-28T09:06:17Z</time></trkpt><trkpt lat="44.08474140047961" lon="12.389513489922516"><ele>33.66666666666667</ele><time>2026-03-28T09:06:19Z</time></trkpt><trkpt lat="44.08465307522276" lon="12.389506785541448"><ele>33.5</ele><time>2026-03-28T09:06:21Z</time></trkpt><trkpt lat="44.08456420047282" lon="12.38951049235875"><ele>33.333333333333336</ele><time>2026-03-28T09:06:23Z</time></trkpt><trkpt lat="44.08447502053632" lon="12.38952054476864"><ele>33.166666666666664</ele><time>2026-03-28T09:06:25Z</time></trkpt><trkpt lat="44.08438447602832" lon="12.389527293148939"><ele>33.0</ele><time>2026-03-28T09:06:27Z</time></trkpt><trkpt lat="44.08429059284499" lon="12.38953927787255"><ele>33.0</ele><time>2026-03-28T09:06:29Z</time></trkpt><trkpt lat="44.08419668893362" lon="12.389559617589248"><ele>33.0</ele><time>2026-03-28T09:06:31Z</time></trkpt><trkpt lat="44.08410193982036" lon="12.389578355263867"><ele>33.0</ele><time>2026-03-28T09:06:33Z</time></trkpt><trkpt lat="44.084008877925704" lon="12.389595060697225"><ele>33.0</ele><time>2026-03-28T09:06:35Z</time></trkpt><trkpt lat="44.08391968223292" lon="12.389612081350714"><ele>33.0</ele><time>2026-03-28T09:06:37Z</time></trkpt><trkpt lat="44.083830622349325" lon="12.38963062308446"><ele>33.0</ele><time>2026-03-28T09:06:39Z</time></trkpt><trkpt lat="44.0837451647008" lon="12.389649597301766"><ele>33.0</ele><time>2026-03-28T09:06:41Z</time></trkpt><trkpt lat="44.08365584632275" lon="12.389665382027097"><ele>33.0</ele><time>2026-03-28T09:06:43Z</time></trkpt><trkpt lat="44.083568535781986" lon="12.389680333244677"><ele>33.0</ele><time>2026-03-28T09:06:45Z</time></trkpt><trkpt lat="44.08348499826714" lon="12.389689136972201"><ele>33.0</ele><time>2026-03-28T09:06:47Z</time></trkpt><trkpt lat="44.083395887211864" lon="12.389709321816152"><ele>33.0</ele><time>2026-03-28T09:06:49Z</time></trkpt><trkpt lat="44.08330384330513" lon="12.389725059181954"><ele>33.4</ele><time>2026-03-28T09:06:51Z</time></trkpt><trkpt lat="44.08321544350956" lon="12.389742344760368"><ele>33.8</ele><time>2026-03-28T09:06:53Z</time></trkpt><trkpt lat="44.08312450078135" lon="12.389761600876119"><ele>34.2</ele><time>2026-03-28T09:06:55Z</time></trkpt><trkpt lat="44.08303036592906" lon="12.389780660855866"><ele>34.6</ele><time>2026-03-28T09:06:57Z</time></trkpt><trkpt lat="44.082937722352625" lon="12.389807830292467"><ele>35.0</ele><time>2026-03-28T09:06:59Z</time></trkpt><trkpt lat="44.08284524933183" lon="12.38982777353758"><ele>35.0</ele><time>2026-03-28T09:07:01Z</time></trkpt><trkpt lat="44.08275310818432" lon="12.389843811855245"><ele>35.0</ele><time>2026-03-28T09:07:03Z</time></trkpt><trkpt lat="44.0826672761456" lon="12.389864165083335"><ele>35.0</ele><time>2026-03-28T09:07:05Z</time></trkpt><trkpt lat="44.08258093478746" lon="12.389879071679083"><ele>35.0</ele><time>2026-03-28T09:07:07Z</time></trkpt><trkpt lat="44.082502629733305" lon="12.389899027413565"><ele>35.0</ele><time>2026-03-28T09:07:09Z</time></trkpt><trkpt lat="44.08242029087333" lon="12.38991646707844"><ele>35.0</ele><time>2026-03-28T09:07:11Z</time></trkpt><trkpt lat="44.08234387481945" lon="12.389932337600222"><ele>35.33333333333333</ele><time>2026-03-28T09:07:13Z</time></trkpt><trkpt lat="44.08226408240863" lon="12.389951601748482"><ele>35.666666666666664</ele><time>2026-03-28T09:07:15Z</time></trkpt><trkpt lat="44.08218336017875" lon="12.389965198852659"><ele>36.0</ele><time>2026-03-28T09:07:17Z</time></trkpt><trkpt lat="44.082106555222886" lon="12.389982129181607"><ele>36.333333333333336</ele><time>2026-03-28T09:07:19Z</time></trkpt><trkpt lat="44.082027924796414" lon="12.390001064958506"><ele>36.66666666666667</ele><time>2026-03-28T09:07:21Z</time></trkpt><trkpt lat="44.0819515187189" lon="12.390013970966304"><ele>37.0</ele><time>2026-03-28T09:07:23Z</time></trkpt><trkpt lat="44.08187771560112" lon="12.390029649626985"><ele>37.0</ele><time>2026-03-28T09:07:25Z</time></trkpt><trkpt lat="44.081804154495735" lon="12.390050146753916"><ele>37.0</ele><time>2026-03-28T09:07:27Z</time></trkpt><trkpt lat="44.08172346224762" lon="12.390059775918337"><ele>37.0</ele><time>2026-03-28T09:07:29Z</time></trkpt><trkpt lat="44.08164729406633" lon="12.39007726940086"><ele>37.0</ele><time>2026-03-28T09:07:31Z</time></trkpt><trkpt lat="44.081570627051555" lon="12.390088788803128"><ele>37.0</ele><time>2026-03-28T09:07:33Z</time></trkpt><trkpt lat="44.081496268988374" lon="12.390097725546918"><ele>37.0</ele><time>2026-03-28T09:07:35Z</time></trkpt><trkpt lat="44.081422999608584" lon="12.390114048136848"><ele>37.57142857142857</ele><time>2026-03-28T09:07:37Z</time></trkpt><trkpt lat="44.081352945575894" lon="12.39013019000951"><ele>38.14285714285714</ele><time>2026-03-28T09:07:39Z</time></trkpt><trkpt lat="44.0812838365238" lon="12.39014057676808"><ele>38.71428571428571</ele><time>2026-03-28T09:07:41Z</time></trkpt><trkpt lat="44.08121270451676" lon="12.39015065177946"><ele>39.285714285714285</ele><time>2026-03-28T09:07:43Z</time></trkpt><trkpt lat="44.08114570311702" lon="12.3901666093947"><ele>39.857142857142854</ele><time>2026-03-28T09:07:45Z</time></trkpt><trkpt lat="44.081077883851364" lon="12.39018016366303"><ele>40.42857142857142</ele><time>2026-03-28T09:07:47Z</time></trkpt><trkpt lat="44.081012176683465" lon="12.3901969628601"><ele>41.0</ele><time>2026-03-28T09:07:49Z</time></trkpt><trkpt lat="44.08091951900453" lon="12.390221212003667"><ele>41.0</ele><time>2026-03-28T09:07:52Z</time></trkpt><trkpt lat="44.08083174164972" lon="12.39024980508824"><ele>41.0</ele><time>2026-03-28T09:07:55Z</time></trkpt><trkpt lat="44.08076992171611" lon="12.390197057898213"><ele>41.0</ele><time>2026-03-28T09:08:02Z</time></trkpt><trkpt lat="44.08071225102547" lon="12.39013415094458"><ele>41.0</ele><time>2026-03-28T09:08:04Z</time></trkpt><trkpt lat="44.080613553554244" lon="12.390143243716762"><ele>41.0</ele><time>2026-03-28T09:08:06Z</time></trkpt><trkpt lat="44.080532929537966" lon="12.390151506544202"><ele>41.0</ele><time>2026-03-28T09:08:08Z</time></trkpt><trkpt lat="44.08045466781149" lon="12.390156295434794"><ele>41.666666666666664</ele><time>2026-03-28T09:08:10Z</time></trkpt><trkpt lat="44.080379423841734" lon="12.39015118169279"><ele>42.33333333333333</ele><time>2026-03-28T09:08:12Z</time></trkpt><trkpt lat="44.08030173208889" lon="12.39015257870697"><ele>43.0</ele><time>2026-03-28T09:08:14Z</time></trkpt><trkpt lat="44.08022112946331" lon="12.390145057549422"><ele>43.666666666666664</ele><time>2026-03-28T09:08:16Z</time></trkpt><trkpt lat="44.080141284768914" lon="12.390137127214977"><ele>44.333333333333336</ele><time>2026-03-28T09:08:18Z</time></trkpt><trkpt lat="44.0800623132461" lon="12.390119843279232"><ele>45.0</ele><time>2026-03-28T09:08:20Z</time></trkpt><trkpt lat="44.079982625439584" lon="12.390092803104185"><ele>45.166666666666664</ele><time>2026-03-28T09:08:22Z</time></trkpt><trkpt lat="44.07989671352579" lon="12.390070906575888"><ele>45.333333333333336</ele><time>2026-03-28T09:08:24Z</time></trkpt><trkpt lat="44.07981474715764" lon="12.390042087051587"><ele>45.5</ele><time>2026-03-28T09:08:26Z</time></trkpt><trkpt lat="44.07972867992067" lon="12.390010694749039"><ele>45.66666666666667</ele><time>2026-03-28T09:08:28Z</time></trkpt><trkpt lat="44.07964111875201" lon="12.389975326008637"><ele>45.833333333333336</ele><time>2026-03-28T09:08:30Z</time></trkpt><trkpt lat="44.07955600537512" lon="12.389929974897926"><ele>46.0</ele><time>2026-03-28T09:08:32Z</time></trkpt><trkpt lat="44.07947073089997" lon="12.389882674745985"><ele>46.0</ele><time>2026-03-28T09:08:34Z</time></trkpt><trkpt lat="44.07938740118579" lon="12.389830053530371"><ele>46.0</ele><time>2026-03-28T09:08:36Z</time></trkpt><trkpt lat="44.07930698476762" lon="12.389774887894767"><ele>46.0</ele><time>2026-03-28T09:08:38Z</time></trkpt><trkpt lat="44.0792266953309" lon="12.389714298013077"><ele>46.0</ele><time>2026-03-28T09:08:40Z</time></trkpt><trkpt lat="44.07914788686107" lon="12.38963478954722"><ele>46.0</ele><time>2026-03-28T09:08:42Z</time></trkpt><trkpt lat="44.07907857152277" lon="12.389529618886241"><ele>46.0</ele><time>2026-03-28T09:08:44Z</time></trkpt><trkpt lat="44.07903464055185" lon="12.389400167100709"><ele>46.0</ele><time>2026-03-28T09:08:46Z</time></trkpt><trkpt lat="44.07899599711987" lon="12.389249477654927"><ele>46.0</ele><time>2026-03-28T09:08:48Z</time></trkpt><trkpt lat="44.078968580313045" lon="12.389089148496584"><ele>46.0</ele><time>2026-03-28T09:08:50Z</time></trkpt><trkpt lat="44.0789444853824" lon="12.388926116499855"><ele>46.0</ele><time>2026-03-28T09:08:52Z</time></trkpt><trkpt lat="44.078916130054616" lon="12.388758482416966"><ele>46.0</ele><time>2026-03-28T09:08:54Z</time></trkpt><trkpt lat="44.0788938863709" lon="12.388587802377966"><ele>46.0</ele><time>2026-03-28T09:08:56Z</time></trkpt><trkpt lat="44.0788721956661" lon="12.3884213327587"><ele>46.0</ele><time>2026-03-28T09:08:58Z</time></trkpt><trkpt lat="44.078847244262825" lon="12.388255032364105"><ele>46.0</ele><time>2026-03-28T09:09:00Z</time></trkpt><trkpt lat="44.078818143037516" lon="12.38809533565714"><ele>46.0</ele><time>2026-03-28T09:09:02Z</time></trkpt><trkpt lat="44.0787857103809" lon="12.387941558692297"><ele>46.0</ele><time>2026-03-28T09:09:04Z</time></trkpt><trkpt lat="44.07875533702606" lon="12.38778459812266"><ele>46.0</ele><time>2026-03-28T09:09:06Z</time></trkpt><trkpt lat="44.078713335289244" lon="12.3876318850246"><ele>45.199999999999996</ele><time>2026-03-28T09:09:08Z</time></trkpt><trkpt lat="44.07866610559775" lon="12.38747938682682"><ele>44.4</ele><time>2026-03-28T09:09:10Z</time></trkpt><trkpt lat="44.07860506561976" lon="12.387337015332113"><ele>43.6</ele><time>2026-03-28T09:09:12Z</time></trkpt><trkpt lat="44.07856668176153" lon="12.3872669041031"><ele>42.8</ele><time>2026-03-28T09:09:13Z</time></trkpt><trkpt lat="44.0784877411164" lon="12.387132094071537"><ele>42.0</ele><time>2026-03-28T09:09:15Z</time></trkpt><trkpt lat="44.07840225789807" lon="12.387011882477044"><ele>42.25</ele><time>2026-03-28T09:09:17Z</time></trkpt><trkpt lat="44.07831827016613" lon="12.386890949314633"><ele>42.5</ele><time>2026-03-28T09:09:19Z</time></trkpt><trkpt lat="44.07823693001018" lon="12.386769547763334"><ele>42.75</ele><time>2026-03-28T09:09:21Z</time></trkpt><trkpt lat="44.07815981229662" lon="12.386652367720588"><ele>43.0</ele><time>2026-03-28T09:09:23Z</time></trkpt><trkpt lat="44.07808042602803" lon="12.386533384934012"><ele>43.0</ele><time>2026-03-28T09:09:25Z</time></trkpt><trkpt lat="44.07800276429302" lon="12.386422586009793"><ele>43.0</ele><time>2026-03-28T09:09:27Z</time></trkpt><trkpt lat="44.077925272045626" lon="12.386315416044466"><ele>43.0</ele><time>2026-03-28T09:09:29Z</time></trkpt><trkpt lat="44.07784509657277" lon="12.386210337164755"><ele>43.0</ele><time>2026-03-28T09:09:31Z</time></trkpt><trkpt lat="44.07776123564506" lon="12.386118955787847"><ele>43.0</ele><time>2026-03-28T09:09:33Z</time></trkpt><trkpt lat="44.07768004150848" lon="12.386030200582859"><ele>43.2</ele><time>2026-03-28T09:09:35Z</time></trkpt><trkpt lat="44.0775946596889" lon="12.385956403366603"><ele>43.4</ele><time>2026-03-28T09:09:37Z</time></trkpt><trkpt lat="44.07750741521231" lon="12.385888110020693"><ele>43.6</ele><time>2026-03-28T09:09:39Z</time></trkpt><trkpt lat="44.07741787538776" lon="12.385820129418125"><ele>43.800000000000004</ele><time>2026-03-28T09:09:41Z</time></trkpt><trkpt lat="44.07732639671314" lon="12.385752745149208"><ele>44.0</ele><time>2026-03-28T09:09:43Z</time></trkpt><trkpt lat="44.077231889335565" lon="12.385676578123935"><ele>44.0</ele><time>2026-03-28T09:09:45Z</time></trkpt><trkpt lat="44.07713836815483" lon="12.38560450716537"><ele>44.0</ele><time>2026-03-28T09:09:47Z</time></trkpt><trkpt lat="44.077046089879595" lon="12.385529989477092"><ele>44.0</ele><time>2026-03-28T09:09:49Z</time></trkpt><trkpt lat="44.07695261672365" lon="12.38545972108504"><ele>44.0</ele><time>2026-03-28T09:09:51Z</time></trkpt><trkpt lat="44.076859404938915" lon="12.385390051851301"><ele>44.0</ele><time>2026-03-28T09:09:53Z</time></trkpt><trkpt lat="44.076767019002666" lon="12.385322870661641"><ele>43.400000000000006</ele><time>2026-03-28T09:09:55Z</time></trkpt><trkpt lat="44.07667691431362" lon="12.385246705503615"><ele>42.8</ele><time>2026-03-28T09:09:57Z</time></trkpt><trkpt lat="44.07658630206736" lon="12.385177257193392"><ele>42.2</ele><time>2026-03-28T09:09:59Z</time></trkpt><trkpt lat="44.07649660366328" lon="12.385109003803885"><ele>41.599999999999994</ele><time>2026-03-28T09:10:01Z</time></trkpt><trkpt lat="44.0764081544317" lon="12.385041051813916"><ele>41.0</ele><time>2026-03-28T09:10:03Z</time></trkpt><trkpt lat="44.07632090500494" lon="12.384972738390024"><ele>41.0</ele><time>2026-03-28T09:10:05Z</time></trkpt><trkpt lat="44.076232066751096" lon="12.384907536066594"><ele>41.0</ele><time>2026-03-28T09:10:07Z</time></trkpt><trkpt lat="44.07614535984659" lon="12.384844275359708"><ele>41.0</ele><time>2026-03-28T09:10:09Z</time></trkpt><trkpt lat="44.07605704230439" lon="12.38479476909527"><ele>41.0</ele><time>2026-03-28T09:10:11Z</time></trkpt><trkpt lat="44.07596745142821" lon="12.384746972572428"><ele>41.0</ele><time>2026-03-28T09:10:13Z</time></trkpt><trkpt lat="44.07587639082057" lon="12.384702475625225"><ele>41.199999999999996</ele><time>2026-03-28T09:10:15Z</time></trkpt><trkpt lat="44.07578267946188" lon="12.384660101881845"><ele>41.4</ele><time>2026-03-28T09:10:17Z</time></trkpt><trkpt lat="44.075688027820284" lon="12.384619587273814"><ele>41.6</ele><time>2026-03-28T09:10:19Z</time></trkpt><trkpt lat="44.07559633904048" lon="12.3845714573735"><ele>41.8</ele><time>2026-03-28T09:10:21Z</time></trkpt><trkpt lat="44.075505569266035" lon="12.384521902855852"><ele>42.0</ele><time>2026-03-28T09:10:23Z</time></trkpt><trkpt lat="44.075414157581704" lon="12.384474016689262"><ele>42.0</ele><time>2026-03-28T09:10:25Z</time></trkpt><trkpt lat="44.07532944671545" lon="12.38441853847692"><ele>42.0</ele><time>2026-03-28T09:10:27Z</time></trkpt><trkpt lat="44.075249932889506" lon="12.38434371256018"><ele>42.0</ele><time>2026-03-28T09:10:29Z</time></trkpt><trkpt lat="44.0751800602213" lon="12.384247090416087"><ele>42.0</ele><time>2026-03-28T09:10:31Z</time></trkpt><trkpt lat="44.075129924679274" lon="12.384130960438881"><ele>42.0</ele><time>2026-03-28T09:10:33Z</time></trkpt><trkpt lat="44.075096881705406" lon="12.384010112909028"><ele>42.0</ele><time>2026-03-28T09:10:35Z</time></trkpt><trkpt lat="44.07508134836076" lon="12.383886133333785"><ele>42.0</ele><time>2026-03-28T09:10:37Z</time></trkpt><trkpt lat="44.07507026004811" lon="12.383759672015355"><ele>42.0</ele><time>2026-03-28T09:10:39Z</time></trkpt><trkpt lat="44.075064629164224" lon="12.383630047197396"><ele>42.0</ele><time>2026-03-28T09:10:41Z</time></trkpt><trkpt lat="44.07505797189604" lon="12.383495061456829"><ele>42.0</ele><time>2026-03-28T09:10:43Z</time></trkpt><trkpt lat="44.07505202556466" lon="12.383360700566776"><ele>42.0</ele><time>2026-03-28T09:10:45Z</time></trkpt><trkpt lat="44.0750471594673" lon="12.38323085074821"><ele>42.0</ele><time>2026-03-28T09:10:47Z</time></trkpt><trkpt lat="44.0750406547005" lon="12.38310389891979"><ele>42.0</ele><time>2026-03-28T09:10:49Z</time></trkpt><trkpt lat="44.07503675801843" lon="12.382977830038172"><ele>42.0</ele><time>2026-03-28T09:10:51Z</time></trkpt><trkpt lat="44.075033588588035" lon="12.382847878124538"><ele>42.0</ele><time>2026-03-28T09:10:53Z</time></trkpt><trkpt lat="44.075027313894644" lon="12.382716539690648"><ele>42.0</ele><time>2026-03-28T09:10:55Z</time></trkpt><trkpt lat="44.07502290656101" lon="12.38258169441259"><ele>42.0</ele><time>2026-03-28T09:10:57Z</time></trkpt><trkpt lat="44.07501831406938" lon="12.382447068384614"><ele>42.0</ele><time>2026-03-28T09:10:59Z</time></trkpt><trkpt lat="44.07501270244687" lon="12.382308778988783"><ele>42.0</ele><time>2026-03-28T09:11:01Z</time></trkpt><trkpt lat="44.07500440847538" lon="12.382165784820689"><ele>42.0</ele><time>2026-03-28T09:11:03Z</time></trkpt><trkpt lat="44.075000840357745" lon="12.382021671799242"><ele>42.0</ele><time>2026-03-28T09:11:05Z</time></trkpt><trkpt lat="44.07499082039741" lon="12.381879382977292"><ele>42.0</ele><time>2026-03-28T09:11:07Z</time></trkpt><trkpt lat="44.07497730940072" lon="12.381734442654649"><ele>42.0</ele><time>2026-03-28T09:11:09Z</time></trkpt><trkpt lat="44.074965867244146" lon="12.381587996143788"><ele>42.0</ele><time>2026-03-28T09:11:11Z</time></trkpt><trkpt lat="44.07494538869851" lon="12.381441582191293"><ele>42.0</ele><time>2026-03-28T09:11:13Z</time></trkpt><trkpt lat="44.07492710455145" lon="12.381293801288418"><ele>42.0</ele><time>2026-03-28T09:11:15Z</time></trkpt><trkpt lat="44.0749053956843" lon="12.381148825528864"><ele>42.0</ele><time>2026-03-28T09:11:17Z</time></trkpt><trkpt lat="44.07488275799741" lon="12.381009037806821"><ele>42.0</ele><time>2026-03-28T09:11:19Z</time></trkpt><trkpt lat="44.07485848239694" lon="12.380874102585727"><ele>42.0</ele><time>2026-03-28T09:11:21Z</time></trkpt><trkpt lat="44.07483504417337" lon="12.380736939860128"><ele>42.0</ele><time>2026-03-28T09:11:23Z</time></trkpt><trkpt lat="44.07481449799053" lon="12.380604114254949"><ele>42.2</ele><time>2026-03-28T09:11:25Z</time></trkpt><trkpt lat="44.07479212019049" lon="12.380475123467136"><ele>42.400000000000006</ele><time>2026-03-28T09:11:27Z</time></trkpt><trkpt lat="44.07476846961217" lon="12.380344715416616"><ele>42.599999999999994</ele><time>2026-03-28T09:11:29Z</time></trkpt><trkpt lat="44.07474611082306" lon="12.380216838636596"><ele>42.8</ele><time>2026-03-28T09:11:31Z</time></trkpt><trkpt lat="44.07472270833476" lon="12.380081968783294"><ele>43.0</ele><time>2026-03-28T09:11:33Z</time></trkpt><trkpt lat="44.07469051304113" lon="12.379950022152602"><ele>43.0</ele><time>2026-03-28T09:11:35Z</time></trkpt><trkpt lat="44.07466201695946" lon="12.37981946084815"><ele>43.0</ele><time>2026-03-28T09:11:37Z</time></trkpt><trkpt lat="44.0746356464323" lon="12.379690558056181"><ele>43.0</ele><time>2026-03-28T09:11:39Z</time></trkpt><trkpt lat="44.07460069741862" lon="12.37956652083047"><ele>43.0</ele><time>2026-03-28T09:11:41Z</time></trkpt><trkpt lat="44.074571906439445" lon="12.37943690951264"><ele>43.0</ele><time>2026-03-28T09:11:43Z</time></trkpt><trkpt lat="44.074533664001024" lon="12.379306369366653"><ele>42.8</ele><time>2026-03-28T09:11:45Z</time></trkpt><trkpt lat="44.074496749594346" lon="12.379172614286288"><ele>42.599999999999994</ele><time>2026-03-28T09:11:47Z</time></trkpt><trkpt lat="44.07445711893786" lon="12.37903974946575"><ele>42.400000000000006</ele><time>2026-03-28T09:11:49Z</time></trkpt><trkpt lat="44.074410561387225" lon="12.378910757454133"><ele>42.2</ele><time>2026-03-28T09:11:51Z</time></trkpt><trkpt lat="44.07436199395055" lon="12.378781190781678"><ele>42.0</ele><time>2026-03-28T09:11:53Z</time></trkpt><trkpt lat="44.074310839266644" lon="12.37865879067248"><ele>41.8</ele><time>2026-03-28T09:11:55Z</time></trkpt><trkpt lat="44.07424933640409" lon="12.37853914496945"><ele>41.6</ele><time>2026-03-28T09:11:57Z</time></trkpt><trkpt lat="44.074180510600414" lon="12.378422273539506"><ele>41.4</ele><time>2026-03-28T09:11:59Z</time></trkpt><trkpt lat="44.07411709678995" lon="12.378298605264051"><ele>41.199999999999996</ele><time>2026-03-28T09:12:01Z</time></trkpt><trkpt lat="44.074048042584835" lon="12.3781757215268"><ele>41.0</ele><time>2026-03-28T09:12:03Z</time></trkpt><trkpt lat="44.073982818627165" lon="12.378054397947801"><ele>41.4</ele><time>2026-03-28T09:12:05Z</time></trkpt><trkpt lat="44.0739149876167" lon="12.377939063653583"><ele>41.8</ele><time>2026-03-28T09:12:07Z</time></trkpt><trkpt lat="44.07385430157822" lon="12.377823626273043"><ele>42.199999999999996</ele><time>2026-03-28T09:12:09Z</time></trkpt><trkpt lat="44.07379045269872" lon="12.377720881401373"><ele>42.599999999999994</ele><time>2026-03-28T09:12:11Z</time></trkpt><trkpt lat="44.073734230986396" lon="12.377621311013721"><ele>43.0</ele><time>2026-03-28T09:12:13Z</time></trkpt><trkpt lat="44.07367610819996" lon="12.377525301849433"><ele>43.0</ele><time>2026-03-28T09:12:15Z</time></trkpt><trkpt lat="44.073614778931095" lon="12.37742799815198"><ele>43.0</ele><time>2026-03-28T09:12:17Z</time></trkpt><trkpt lat="44.07354350724362" lon="12.377329786124397"><ele>43.0</ele><time>2026-03-28T09:12:19Z</time></trkpt><trkpt lat="44.07346734235619" lon="12.377231564616784"><ele>43.0</ele><time>2026-03-28T09:12:21Z</time></trkpt><trkpt lat="44.073384828693605" lon="12.377140478721426"><ele>43.0</ele><time>2026-03-28T09:12:23Z</time></trkpt><trkpt lat="44.07330471159197" lon="12.377050345489739"><ele>43.2</ele><time>2026-03-28T09:12:25Z</time></trkpt><trkpt lat="44.073227430354514" lon="12.376963423172665"><ele>43.4</ele><time>2026-03-28T09:12:27Z</time></trkpt><trkpt lat="44.073148318699914" lon="12.376881519929539"><ele>43.6</ele><time>2026-03-28T09:12:29Z</time></trkpt><trkpt lat="44.073068361579246" lon="12.376808081540538"><ele>43.800000000000004</ele><time>2026-03-28T09:12:31Z</time></trkpt><trkpt lat="44.07299125493" lon="12.376732160226824"><ele>44.0</ele><time>2026-03-28T09:12:33Z</time></trkpt><trkpt lat="44.072913130994166" lon="12.376659459501242"><ele>44.0</ele><time>2026-03-28T09:12:35Z</time></trkpt><trkpt lat="44.072840094442455" lon="12.376580959030205"><ele>44.0</ele><time>2026-03-28T09:12:37Z</time></trkpt><trkpt lat="44.07277112862318" lon="12.37649132326285"><ele>44.0</ele><time>2026-03-28T09:12:39Z</time></trkpt><trkpt lat="44.07269836970334" lon="12.376407416431462"><ele>44.0</ele><time>2026-03-28T09:12:41Z</time></trkpt><trkpt lat="44.07262090255689" lon="12.376328112085357"><ele>44.0</ele><time>2026-03-28T09:12:43Z</time></trkpt><trkpt lat="44.07254701877346" lon="12.376245259563841"><ele>44.2</ele><time>2026-03-28T09:12:45Z</time></trkpt><trkpt lat="44.07246987410887" lon="12.376167122246308"><ele>44.400000000000006</ele><time>2026-03-28T09:12:47Z</time></trkpt><trkpt lat="44.072392655265695" lon="12.376087737643706"><ele>44.6</ele><time>2026-03-28T09:12:49Z</time></trkpt><trkpt lat="44.072318228319425" lon="12.376007249182893"><ele>44.8</ele><time>2026-03-28T09:12:51Z</time></trkpt><trkpt lat="44.072241583937654" lon="12.375931021538747"><ele>45.0</ele><time>2026-03-28T09:12:53Z</time></trkpt><trkpt lat="44.07216838838719" lon="12.375856336941657"><ele>45.0</ele><time>2026-03-28T09:12:55Z</time></trkpt><trkpt lat="44.07209575176058" lon="12.375775886423039"><ele>45.0</ele><time>2026-03-28T09:12:57Z</time></trkpt><trkpt lat="44.07202231764667" lon="12.375700513150546"><ele>45.0</ele><time>2026-03-28T09:12:59Z</time></trkpt><trkpt lat="44.071950773899694" lon="12.375617607640342"><ele>45.0</ele><time>2026-03-28T09:13:01Z</time></trkpt><trkpt lat="44.0718767876982" lon="12.375543071128684"><ele>45.0</ele><time>2026-03-28T09:13:03Z</time></trkpt><trkpt lat="44.071801051493885" lon="12.375467122601957"><ele>45.2</ele><time>2026-03-28T09:13:05Z</time></trkpt><trkpt lat="44.07172367494608" lon="12.375391281720159"><ele>45.4</ele><time>2026-03-28T09:13:07Z</time></trkpt><trkpt lat="44.07164457846871" lon="12.375314495988205"><ele>45.599999999999994</ele><time>2026-03-28T09:13:09Z</time></trkpt><trkpt lat="44.07156665924185" lon="12.375235060948121"><ele>45.8</ele><time>2026-03-28T09:13:11Z</time></trkpt><trkpt lat="44.07148947914473" lon="12.37515412027254"><ele>46.0</ele><time>2026-03-28T09:13:13Z</time></trkpt><trkpt lat="44.071414823636246" lon="12.375067921449816"><ele>46.199999999999996</ele><time>2026-03-28T09:13:15Z</time></trkpt><trkpt lat="44.071337403545094" lon="12.374989436781997"><ele>46.4</ele><time>2026-03-28T09:13:17Z</time></trkpt><trkpt lat="44.071263856847494" lon="12.374907441687062"><ele>46.6</ele><time>2026-03-28T09:13:19Z</time></trkpt><trkpt lat="44.0711835277196" lon="12.374820011023191"><ele>46.8</ele><time>2026-03-28T09:13:21Z</time></trkpt><trkpt lat="44.0711029581533" lon="12.374744094805788"><ele>47.0</ele><time>2026-03-28T09:13:23Z</time></trkpt><trkpt lat="44.07103054771921" lon="12.374665747128624"><ele>47.2</ele><time>2026-03-28T09:13:25Z</time></trkpt><trkpt lat="44.07095975364446" lon="12.374592087885182"><ele>47.400000000000006</ele><time>2026-03-28T09:13:27Z</time></trkpt><trkpt lat="44.07088356076673" lon="12.374512842392512"><ele>47.599999999999994</ele><time>2026-03-28T09:13:29Z</time></trkpt><trkpt lat="44.07080594970226" lon="12.374429151547732"><ele>47.8</ele><time>2026-03-28T09:13:31Z</time></trkpt><trkpt lat="44.070732723847335" lon="12.374356281093116"><ele>48.0</ele><time>2026-03-28T09:13:33Z</time></trkpt><trkpt lat="44.070657185196886" lon="12.374277495560529"><ele>48.0</ele><time>2026-03-28T09:13:35Z</time></trkpt><trkpt lat="44.07059064419732" lon="12.37419601488364"><ele>48.0</ele><time>2026-03-28T09:13:37Z</time></trkpt><trkpt lat="44.07052190570571" lon="12.37412707602299"><ele>48.0</ele><time>2026-03-28T09:13:39Z</time></trkpt><trkpt lat="44.07045353915844" lon="12.374055304101773"><ele>48.0</ele><time>2026-03-28T09:13:41Z</time></trkpt><trkpt lat="44.07038689063823" lon="12.373979833038836"><ele>48.0</ele><time>2026-03-28T09:13:43Z</time></trkpt><trkpt lat="44.07031978223666" lon="12.37390947074055"><ele>48.0</ele><time>2026-03-28T09:13:45Z</time></trkpt><trkpt lat="44.0702531150421" lon="12.37383636128255"><ele>48.0</ele><time>2026-03-28T09:13:47Z</time></trkpt><trkpt lat="44.07018304562525" lon="12.373767216043403"><ele>48.0</ele><time>2026-03-28T09:13:49Z</time></trkpt><trkpt lat="44.07011414692236" lon="12.373693467803603"><ele>48.0</ele><time>2026-03-28T09:13:51Z</time></trkpt><trkpt lat="44.07004311537295" lon="12.373621997186866"><ele>48.0</ele><time>2026-03-28T09:13:53Z</time></trkpt><trkpt lat="44.0699719498616" lon="12.37354611649699"><ele>48.0</ele><time>2026-03-28T09:13:55Z</time></trkpt><trkpt lat="44.069897284710336" lon="12.373470945353867"><ele>48.0</ele><time>2026-03-28T09:13:57Z</time></trkpt><trkpt lat="44.06982834854927" lon="12.37338800478548"><ele>48.2</ele><time>2026-03-28T09:13:59Z</time></trkpt><trkpt lat="44.06975382230457" lon="12.373317102552845"><ele>48.4</ele><time>2026-03-28T09:14:01Z</time></trkpt><trkpt lat="44.06967973621783" lon="12.373243531230633"><ele>48.6</ele><time>2026-03-28T09:14:03Z</time></trkpt><trkpt lat="44.069607688668036" lon="12.373169499619443"><ele>48.800000000000004</ele><time>2026-03-28T09:14:05Z</time></trkpt><trkpt lat="44.069528342745556" lon="12.373103441930006"><ele>49.0</ele><time>2026-03-28T09:14:07Z</time></trkpt><trkpt lat="44.069458183147745" lon="12.373023018014711"><ele>48.99999999999999</ele><time>2026-03-28T09:14:09Z</time></trkpt><trkpt lat="44.06938563669793" lon="12.372950716222121"><ele>49.0</ele><time>2026-03-28T09:14:11Z</time></trkpt><trkpt lat="44.069315105802154" lon="12.372881103895821"><ele>49.0</ele><time>2026-03-28T09:14:13Z</time></trkpt><trkpt lat="44.06924710342854" lon="12.37281108606345"><ele>49.0</ele><time>2026-03-28T09:14:15Z</time></trkpt><trkpt lat="44.06918244927098" lon="12.372740322950614"><ele>48.99999999999999</ele><time>2026-03-28T09:14:17Z</time></trkpt><trkpt lat="44.06911325932952" lon="12.372668642708966"><ele>49.0</ele><time>2026-03-28T09:14:19Z</time></trkpt><trkpt lat="44.06904044624057" lon="12.372600534922315"><ele>49.166666666666664</ele><time>2026-03-28T09:14:21Z</time></trkpt><trkpt lat="44.06897480582763" lon="12.372529482473862"><ele>49.33333333333333</ele><time>2026-03-28T09:14:23Z</time></trkpt><trkpt lat="44.068908099239955" lon="12.372456811788501"><ele>49.5</ele><time>2026-03-28T09:14:25Z</time></trkpt><trkpt lat="44.0688382061434" lon="12.372387968499643"><ele>49.66666666666667</ele><time>2026-03-28T09:14:27Z</time></trkpt><trkpt lat="44.06877313345372" lon="12.372317338259254"><ele>49.833333333333336</ele><time>2026-03-28T09:14:29Z</time></trkpt><trkpt lat="44.0687047759132" lon="12.372251848820929"><ele>50.0</ele><time>2026-03-28T09:14:31Z</time></trkpt><trkpt lat="44.068639930115594" lon="12.372183157124429"><ele>50.00000000000001</ele><time>2026-03-28T09:14:33Z</time></trkpt><trkpt lat="44.0685757496463" lon="12.372116369976023"><ele>50.0</ele><time>2026-03-28T09:14:35Z</time></trkpt><trkpt lat="44.068509202726695" lon="12.372048982772666"><ele>50.0</ele><time>2026-03-28T09:14:37Z</time></trkpt><trkpt lat="44.06844291987722" lon="12.371979755478105"><ele>50.0</ele><time>2026-03-28T09:14:39Z</time></trkpt><trkpt lat="44.06837856042387" lon="12.371908903068707"><ele>50.00000000000001</ele><time>2026-03-28T09:14:41Z</time></trkpt><trkpt lat="44.06831233191854" lon="12.371842012274323"><ele>50.0</ele><time>2026-03-28T09:14:43Z</time></trkpt><trkpt lat="44.06825033893875" lon="12.371773246034307"><ele>50.4</ele><time>2026-03-28T09:14:45Z</time></trkpt><trkpt lat="44.06818034550985" lon="12.371708332919425"><ele>50.8</ele><time>2026-03-28T09:14:47Z</time></trkpt><trkpt lat="44.06811477934277" lon="12.371633596705115"><ele>51.2</ele><time>2026-03-28T09:14:49Z</time></trkpt><trkpt lat="44.068032225557715" lon="12.371577101301368"><ele>51.6</ele><time>2026-03-28T09:14:51Z</time></trkpt><trkpt lat="44.067953698901036" lon="12.371501259956172"><ele>52.0</ele><time>2026-03-28T09:14:53Z</time></trkpt><trkpt lat="44.06787213774562" lon="12.37142056190264"><ele>52.2</ele><time>2026-03-28T09:14:55Z</time></trkpt><trkpt lat="44.06779289028826" lon="12.371341477648821"><ele>52.400000000000006</ele><time>2026-03-28T09:14:57Z</time></trkpt><trkpt lat="44.06770448460349" lon="12.371264787032688"><ele>52.599999999999994</ele><time>2026-03-28T09:14:59Z</time></trkpt><trkpt lat="44.06761978429296" lon="12.371190510061453"><ele>52.8</ele><time>2026-03-28T09:15:01Z</time></trkpt><trkpt lat="44.06753066961902" lon="12.371115517003213"><ele>53.0</ele><time>2026-03-28T09:15:03Z</time></trkpt><trkpt lat="44.06744417114844" lon="12.371035279190027"><ele>53.599999999999994</ele><time>2026-03-28T09:15:05Z</time></trkpt><trkpt lat="44.067361587197276" lon="12.370952718471386"><ele>54.199999999999996</ele><time>2026-03-28T09:15:07Z</time></trkpt><trkpt lat="44.06726971687946" lon="12.370879933100113"><ele>54.8</ele><time>2026-03-28T09:15:09Z</time></trkpt><trkpt lat="44.06718131704935" lon="12.370808800647279"><ele>55.4</ele><time>2026-03-28T09:15:11Z</time></trkpt><trkpt lat="44.06709319457622" lon="12.370735865843548"><ele>56.0</ele><time>2026-03-28T09:15:13Z</time></trkpt><trkpt lat="44.067002304069874" lon="12.370675267851063"><ele>56.0</ele><time>2026-03-28T09:15:15Z</time></trkpt><trkpt lat="44.066907789481355" lon="12.370624450287792"><ele>55.99999999999999</ele><time>2026-03-28T09:15:17Z</time></trkpt><trkpt lat="44.06681660384176" lon="12.370582557737817"><ele>55.99999999999999</ele><time>2026-03-28T09:15:19Z</time></trkpt><trkpt lat="44.066723477646406" lon="12.370543769836273"><ele>56.0</ele><time>2026-03-28T09:15:21Z</time></trkpt><trkpt lat="44.06662747077735" lon="12.370514461129007"><ele>56.0</ele><time>2026-03-28T09:15:23Z</time></trkpt><trkpt lat="44.06652978338935" lon="12.370495489469686"><ele>56.4</ele><time>2026-03-28T09:15:25Z</time></trkpt><trkpt lat="44.066435029287796" lon="12.370480347656905"><ele>56.8</ele><time>2026-03-28T09:15:27Z</time></trkpt><trkpt lat="44.06634005250653" lon="12.370446284576616"><ele>57.199999999999996</ele><time>2026-03-28T09:15:29Z</time></trkpt><trkpt lat="44.066243364291374" lon="12.370410950018039"><ele>57.599999999999994</ele><time>2026-03-28T09:15:31Z</time></trkpt><trkpt lat="44.066151869397046" lon="12.370356071770209"><ele>58.0</ele><time>2026-03-28T09:15:33Z</time></trkpt><trkpt lat="44.066057302752995" lon="12.370294397242388"><ele>58.0</ele><time>2026-03-28T09:15:35Z</time></trkpt><trkpt lat="44.06596628864102" lon="12.370232856093143"><ele>58.0</ele><time>2026-03-28T09:15:37Z</time></trkpt><trkpt lat="44.06588039274351" lon="12.370164004180454"><ele>58.0</ele><time>2026-03-28T09:15:39Z</time></trkpt><trkpt lat="44.06579214644333" lon="12.370087228878079"><ele>58.0</ele><time>2026-03-28T09:15:41Z</time></trkpt><trkpt lat="44.06570573415001" lon="12.370015219368275"><ele>58.0</ele><time>2026-03-28T09:15:43Z</time></trkpt><trkpt lat="44.06561531668191" lon="12.369951195626623"><ele>57.599999999999994</ele><time>2026-03-28T09:15:45Z</time></trkpt><trkpt lat="44.06553096752845" lon="12.36988410118258"><ele>57.199999999999996</ele><time>2026-03-28T09:15:47Z</time></trkpt><trkpt lat="44.06543798133615" lon="12.369823683086825"><ele>56.8</ele><time>2026-03-28T09:15:49Z</time></trkpt><trkpt lat="44.06534423210187" lon="12.369770381659894"><ele>56.4</ele><time>2026-03-28T09:15:51Z</time></trkpt><trkpt lat="44.0652522953779" lon="12.369711287719285"><ele>56.0</ele><time>2026-03-28T09:15:53Z</time></trkpt><trkpt lat="44.06515275767422" lon="12.369657615690548"><ele>56.0</ele><time>2026-03-28T09:15:55Z</time></trkpt><trkpt lat="44.06505547921013" lon="12.369601391604359"><ele>55.99999999999999</ele><time>2026-03-28T09:15:57Z</time></trkpt><trkpt lat="44.06495696301149" lon="12.369542872131943"><ele>55.99999999999999</ele><time>2026-03-28T09:15:59Z</time></trkpt><trkpt lat="44.06485639754289" lon="12.369487075077505"><ele>56.0</ele><time>2026-03-28T09:16:01Z</time></trkpt><trkpt lat="44.06475694264586" lon="12.369432304270363"><ele>56.0</ele><time>2026-03-28T09:16:03Z</time></trkpt><trkpt lat="44.06466083486246" lon="12.369374893508793"><ele>56.8</ele><time>2026-03-28T09:16:05Z</time></trkpt><trkpt lat="44.064567236768816" lon="12.369320066550086"><ele>57.599999999999994</ele><time>2026-03-28T09:16:07Z</time></trkpt><trkpt lat="44.06447574200947" lon="12.369265931810508"><ele>58.4</ele><time>2026-03-28T09:16:09Z</time></trkpt><trkpt lat="44.064383451633965" lon="12.369207888785969"><ele>59.2</ele><time>2026-03-28T09:16:11Z</time></trkpt><trkpt lat="44.06429533476542" lon="12.369150083897214"><ele>60.0</ele><time>2026-03-28T09:16:13Z</time></trkpt><trkpt lat="44.064210927845906" lon="12.369082491004628"><ele>60.0</ele><time>2026-03-28T09:16:15Z</time></trkpt><trkpt lat="44.06412242411948" lon="12.369013137453832"><ele>60.0</ele><time>2026-03-28T09:16:17Z</time></trkpt><trkpt lat="44.06403942433205" lon="12.36894207435638"><ele>60.0</ele><time>2026-03-28T09:16:19Z</time></trkpt><trkpt lat="44.0639572743685" lon="12.36887116563663"><ele>60.0</ele><time>2026-03-28T09:16:21Z</time></trkpt><trkpt lat="44.06387571726114" lon="12.368800805302367"><ele>60.0</ele><time>2026-03-28T09:16:23Z</time></trkpt><trkpt lat="44.063794425365266" lon="12.368738472557336"><ele>59.8</ele><time>2026-03-28T09:16:25Z</time></trkpt><trkpt lat="44.063715997070474" lon="12.368674258707335"><ele>59.6</ele><time>2026-03-28T09:16:27Z</time></trkpt><trkpt lat="44.063632639367114" lon="12.368618875509227"><ele>59.400000000000006</ele><time>2026-03-28T09:16:29Z</time></trkpt><trkpt lat="44.063547879429656" lon="12.368568069518693"><ele>59.2</ele><time>2026-03-28T09:16:31Z</time></trkpt><trkpt lat="44.06346324865892" lon="12.368530927655323"><ele>59.0</ele><time>2026-03-28T09:16:33Z</time></trkpt><trkpt lat="44.06337445102887" lon="12.368494431208266"><ele>59.0</ele><time>2026-03-28T09:16:35Z</time></trkpt><trkpt lat="44.06328395929525" lon="12.368463751061329"><ele>59.00000000000001</ele><time>2026-03-28T09:16:37Z</time></trkpt><trkpt lat="44.063192283654836" lon="12.36843167511947"><ele>59.00000000000001</ele><time>2026-03-28T09:16:39Z</time></trkpt><trkpt lat="44.0631017605529" lon="12.36839972406959"><ele>59.0</ele><time>2026-03-28T09:16:41Z</time></trkpt><trkpt lat="44.06301483479727" lon="12.36836682680944"><ele>59.0</ele><time>2026-03-28T09:16:43Z</time></trkpt><trkpt lat="44.06292454629533" lon="12.368331043874077"><ele>59.333333333333336</ele><time>2026-03-28T09:16:45Z</time></trkpt><trkpt lat="44.06283517879853" lon="12.368308003234635"><ele>59.66666666666667</ele><time>2026-03-28T09:16:47Z</time></trkpt><trkpt lat="44.06274493545042" lon="12.368289223635983"><ele>60.0</ele><time>2026-03-28T09:16:49Z</time></trkpt><trkpt lat="44.06265897064219" lon="12.368258903445714"><ele>60.33333333333333</ele><time>2026-03-28T09:16:51Z</time></trkpt><trkpt lat="44.06257740376654" lon="12.36822547348505"><ele>60.666666666666664</ele><time>2026-03-28T09:16:53Z</time></trkpt><trkpt lat="44.062500329365896" lon="12.368248683574846"><ele>61.0</ele><time>2026-03-28T09:16:55Z</time></trkpt><trkpt lat="44.06247865894082" lon="12.368359509186915"><ele>60.99999999999999</ele><time>2026-03-28T09:16:57Z</time></trkpt><trkpt lat="44.062470107149394" lon="12.368460954638891"><ele>61.0</ele><time>2026-03-28T09:16:59Z</time></trkpt><trkpt lat="44.06245199205546" lon="12.368565815868454"><ele>60.99999999999999</ele><time>2026-03-28T09:17:01Z</time></trkpt><trkpt lat="44.062439147715345" lon="12.368671861869704"><ele>60.99999999999999</ele><time>2026-03-28T09:17:03Z</time></trkpt><trkpt lat="44.062427890091534" lon="12.368773534204273"><ele>61.0</ele><time>2026-03-28T09:17:05Z</time></trkpt><trkpt lat="44.062416408741164" lon="12.36887030641835"><ele>60.99999999999999</ele><time>2026-03-28T09:17:07Z</time></trkpt><trkpt lat="44.062402280191456" lon="12.368965015349485"><ele>60.99999999999999</ele><time>2026-03-28T09:17:09Z</time></trkpt><trkpt lat="44.06239515311975" lon="12.369059181960425"><ele>62.666666666666664</ele><time>2026-03-28T09:17:11Z</time></trkpt><trkpt lat="44.06238875171029" lon="12.369149705154706"><ele>64.33333333333333</ele><time>2026-03-28T09:17:13Z</time></trkpt><trkpt lat="44.062371224924036" lon="12.36927604734809"><ele>66.0</ele><time>2026-03-28T09:17:16Z</time></trkpt><trkpt lat="44.06235117036498" lon="12.3693997584049"><ele>67.66666666666667</ele><time>2026-03-28T09:17:19Z</time></trkpt><trkpt lat="44.06233523446894" lon="12.369517455274918"><ele>69.33333333333334</ele><time>2026-03-28T09:17:22Z</time></trkpt><trkpt lat="44.062321795729396" lon="12.369632262648834"><ele>71.0</ele><time>2026-03-28T09:17:25Z</time></trkpt><trkpt lat="44.06231256967992" lon="12.369746269807585"><ele>72.83333333333334</ele><time>2026-03-28T09:17:28Z</time></trkpt><trkpt lat="44.062298417324456" lon="12.369855614781928"><ele>74.66666666666667</ele><time>2026-03-28T09:17:31Z</time></trkpt><trkpt lat="44.06228954548478" lon="12.36995816008218"><ele>76.5</ele><time>2026-03-28T09:17:34Z</time></trkpt><trkpt lat="44.062282518855575" lon="12.370062567149684"><ele>78.33333333333333</ele><time>2026-03-28T09:17:37Z</time></trkpt><trkpt lat="44.06229622181359" lon="12.370172215799661"><ele>80.16666666666666</ele><time>2026-03-28T09:17:40Z</time></trkpt><trkpt lat="44.062315302204176" lon="12.370291064769836"><ele>82.0</ele><time>2026-03-28T09:17:43Z</time></trkpt><trkpt lat="44.06232979741141" lon="12.370405757642597"><ele>82.0</ele><time>2026-03-28T09:17:46Z</time></trkpt><trkpt lat="44.06234472040843" lon="12.37051671543921"><ele>82.0</ele><time>2026-03-28T09:17:49Z</time></trkpt><trkpt lat="44.06236153026792" lon="12.370625255369305"><ele>82.0</ele><time>2026-03-28T09:17:52Z</time></trkpt><trkpt lat="44.06237736899887" lon="12.370728020620437"><ele>82.0</ele><time>2026-03-28T09:17:55Z</time></trkpt><trkpt lat="44.06239497189442" lon="12.37083447691198"><ele>82.0</ele><time>2026-03-28T09:17:58Z</time></trkpt><trkpt lat="44.06241705033896" lon="12.370939815761007"><ele>82.0</ele><time>2026-03-28T09:18:01Z</time></trkpt><trkpt lat="44.062432952834726" lon="12.371037871471625"><ele>81.57142857142857</ele><time>2026-03-28T09:18:04Z</time></trkpt><trkpt lat="44.06244491937888" lon="12.371137259282257"><ele>81.14285714285714</ele><time>2026-03-28T09:18:07Z</time></trkpt><trkpt lat="44.06246007845554" lon="12.37123960156523"><ele>80.71428571428572</ele><time>2026-03-28T09:18:10Z</time></trkpt><trkpt lat="44.06248108635092" lon="12.371332851878247"><ele>80.28571428571428</ele><time>2026-03-28T09:18:13Z</time></trkpt><trkpt lat="44.0625022508829" lon="12.371444226572752"><ele>79.85714285714286</ele><time>2026-03-28T09:18:17Z</time></trkpt><trkpt lat="44.06252281957301" lon="12.37152939647205"><ele>79.42857142857143</ele><time>2026-03-28T09:18:20Z</time></trkpt><trkpt lat="44.06253282424948" lon="12.37164196847616"><ele>79.0</ele><time>2026-03-28T09:18:24Z</time></trkpt><trkpt lat="44.06255367434543" lon="12.37174567786992"><ele>80.14285714285715</ele><time>2026-03-28T09:18:28Z</time></trkpt><trkpt lat="44.06256524589668" lon="12.371845785805958"><ele>81.28571428571429</ele><time>2026-03-28T09:18:32Z</time></trkpt><trkpt lat="44.0625865756649" lon="12.371940904012606"><ele>82.42857142857143</ele><time>2026-03-28T09:18:37Z</time></trkpt><trkpt lat="44.06260790215493" lon="12.372042714006223"><ele>83.57142857142858</ele><time>2026-03-28T09:18:42Z</time></trkpt><trkpt lat="44.062620714763646" lon="12.372130991577691"><ele>84.71428571428572</ele><time>2026-03-28T09:18:46Z</time></trkpt><trkpt lat="44.06264027414529" lon="12.372233709040994"><ele>85.85714285714286</ele><time>2026-03-28T09:18:51Z</time></trkpt><trkpt lat="44.06265048239321" lon="12.372326112391548"><ele>87.0</ele><time>2026-03-28T09:18:55Z</time></trkpt><trkpt lat="44.06267481898057" lon="12.372430301429182"><ele>89.14285714285714</ele><time>2026-03-28T09:19:00Z</time></trkpt><trkpt lat="44.06269083258774" lon="12.372533535282301"><ele>91.28571428571429</ele><time>2026-03-28T09:19:05Z</time></trkpt><trkpt lat="44.062703298163996" lon="12.372620181100523"><ele>93.42857142857143</ele><time>2026-03-28T09:19:10Z</time></trkpt><trkpt lat="44.062700060277734" lon="12.37271344761476"><ele>95.57142857142857</ele><time>2026-03-28T09:19:15Z</time></trkpt><trkpt lat="44.06263563064354" lon="12.372777322939033"><ele>97.71428571428572</ele><time>2026-03-28T09:19:20Z</time></trkpt><trkpt lat="44.06258099632854" lon="12.37282283908719"><ele>99.85714285714286</ele><time>2026-03-28T09:19:23Z</time></trkpt><trkpt lat="44.06251555760994" lon="12.372876854227986"><ele>102.0</ele><time>2026-03-28T09:19:28Z</time></trkpt><trkpt lat="44.06245986282682" lon="12.37293062957761"><ele>103.57142857142857</ele><time>2026-03-28T09:19:31Z</time></trkpt><trkpt lat="44.06239440309803" lon="12.372976590055002"><ele>105.14285714285714</ele><time>2026-03-28T09:19:35Z</time></trkpt><trkpt lat="44.06232741964031" lon="12.373023517256412"><ele>106.71428571428572</ele><time>2026-03-28T09:19:39Z</time></trkpt><trkpt lat="44.06226228631881" lon="12.37307600199198"><ele>108.28571428571428</ele><time>2026-03-28T09:19:43Z</time></trkpt><trkpt lat="44.062190604803476" lon="12.373138017727983"><ele>109.85714285714285</ele><time>2026-03-28T09:19:47Z</time></trkpt><trkpt lat="44.062129985728056" lon="12.373182831364046"><ele>111.42857142857143</ele><time>2026-03-28T09:19:51Z</time></trkpt><trkpt lat="44.062065557789474" lon="12.37320763701023"><ele>113.0</ele><time>2026-03-28T09:19:54Z</time></trkpt><trkpt lat="44.06198141023104" lon="12.373196629144022"><ele>113.0</ele><time>2026-03-28T09:19:58Z</time></trkpt><trkpt lat="44.06191512631856" lon="12.37314644615413"><ele>113.0</ele><time>2026-03-28T09:20:02Z</time></trkpt><trkpt lat="44.061867251062175" lon="12.373074091036802"><ele>113.0</ele><time>2026-03-28T09:20:06Z</time></trkpt><trkpt lat="44.06180939330252" lon="12.373009806815906"><ele>113.0</ele><time>2026-03-28T09:20:10Z</time></trkpt><trkpt lat="44.06176383591046" lon="12.372945171645757"><ele>113.0</ele><time>2026-03-28T09:20:14Z</time></trkpt><trkpt lat="44.06171630366066" lon="12.37286409754865"><ele>113.0</ele><time>2026-03-28T09:20:18Z</time></trkpt><trkpt lat="44.06166345525757" lon="12.372797679412251"><ele>113.0</ele><time>2026-03-28T09:20:22Z</time></trkpt><trkpt lat="44.06161507492416" lon="12.372730941943042"><ele>115.71428571428572</ele><time>2026-03-28T09:20:25Z</time></trkpt><trkpt lat="44.06156490916717" lon="12.372666400224555"><ele>118.42857142857142</ele><time>2026-03-28T09:20:29Z</time></trkpt><trkpt lat="44.061498760481314" lon="12.37258558151766"><ele>121.14285714285714</ele><time>2026-03-28T09:20:34Z</time></trkpt><trkpt lat="44.0614500456661" lon="12.372528873035064"><ele>123.85714285714286</ele><time>2026-03-28T09:20:38Z</time></trkpt><trkpt lat="44.06140135930265" lon="12.372467879405528"><ele>126.57142857142858</ele><time>2026-03-28T09:20:42Z</time></trkpt><trkpt lat="44.06134055789563" lon="12.372400043793531"><ele>129.28571428571428</ele><time>2026-03-28T09:20:47Z</time></trkpt><trkpt lat="44.06128608906356" lon="12.37235486033245"><ele>132.0</ele><time>2026-03-28T09:20:51Z</time></trkpt><trkpt lat="44.061224386972526" lon="12.37230572142412"><ele>132.0</ele><time>2026-03-28T09:20:56Z</time></trkpt><trkpt lat="44.06116465789242" lon="12.372249435866928"><ele>132.0</ele><time>2026-03-28T09:21:02Z</time></trkpt><trkpt lat="44.0611127341189" lon="12.372162604014784"><ele>132.0</ele><time>2026-03-28T09:21:06Z</time></trkpt><trkpt lat="44.06107637110364" lon="12.372089084934123"><ele>132.0</ele><time>2026-03-28T09:21:10Z</time></trkpt><trkpt lat="44.061032645277905" lon="12.372017746437296"><ele>132.0</ele><time>2026-03-28T09:22:12Z</time></trkpt><trkpt lat="44.0609916610969" lon="12.371940709624393"><ele>132.0</ele><time>2026-03-28T09:22:18Z</time></trkpt><trkpt lat="44.060947488634646" lon="12.371869454936956"><ele>132.0</ele><time>2026-03-28T09:22:23Z</time></trkpt><trkpt lat="44.06089995221611" lon="12.37180855634042"><ele>132.42857142857142</ele><time>2026-03-28T09:22:27Z</time></trkpt><trkpt lat="44.06085206121702" lon="12.371731258885294"><ele>132.85714285714286</ele><time>2026-03-28T09:22:32Z</time></trkpt><trkpt lat="44.06080562785107" lon="12.37166048886646"><ele>133.28571428571428</ele><time>2026-03-28T09:22:37Z</time></trkpt><trkpt lat="44.060755374571684" lon="12.371594735011266"><ele>133.71428571428572</ele><time>2026-03-28T09:22:42Z</time></trkpt><trkpt lat="44.06070172738955" lon="12.371529271617613"><ele>134.14285714285714</ele><time>2026-03-28T09:22:47Z</time></trkpt><trkpt lat="44.06065769011601" lon="12.371465748135144"><ele>134.57142857142856</ele><time>2026-03-28T09:22:51Z</time></trkpt><trkpt lat="44.06060613775488" lon="12.371410111294514"><ele>135.0</ele><time>2026-03-28T09:22:55Z</time></trkpt><trkpt lat="44.06054753560966" lon="12.371340058777017"><ele>135.16666666666666</ele><time>2026-03-28T09:22:59Z</time></trkpt><trkpt lat="44.06048709180493" lon="12.371256201463218"><ele>135.33333333333334</ele><time>2026-03-28T09:23:03Z</time></trkpt><trkpt lat="44.06043844362371" lon="12.371185121127823"><ele>135.5</ele><time>2026-03-28T09:23:06Z</time></trkpt><trkpt lat="44.06037915393751" lon="12.371104102873835"><ele>135.66666666666669</ele><time>2026-03-28T09:23:09Z</time></trkpt><trkpt lat="44.06030968674646" lon="12.371031700792425"><ele>135.83333333333334</ele><time>2026-03-28T09:23:12Z</time></trkpt><trkpt lat="44.06023009349949" lon="12.370970943974237"><ele>136.0</ele><time>2026-03-28T09:23:15Z</time></trkpt><trkpt lat="44.06015827364679" lon="12.370935065615582"><ele>136.0</ele><time>2026-03-28T09:23:18Z</time></trkpt><trkpt lat="44.06009625869437" lon="12.37090756657346"><ele>136.0</ele><time>2026-03-28T09:23:21Z</time></trkpt><trkpt lat="44.06001349373697" lon="12.370895273984214"><ele>136.0</ele><time>2026-03-28T09:23:25Z</time></trkpt><trkpt lat="44.059943322992545" lon="12.370886165232353"><ele>136.0</ele><time>2026-03-28T09:23:28Z</time></trkpt><trkpt lat="44.05986147944087" lon="12.370866336177407"><ele>136.0</ele><time>2026-03-28T09:23:31Z</time></trkpt><trkpt lat="44.05977589193028" lon="12.370848744277172"><ele>136.0</ele><time>2026-03-28T09:23:34Z</time></trkpt><trkpt lat="44.0597039533436" lon="12.37080781931443"><ele>134.6</ele><time>2026-03-28T09:23:36Z</time></trkpt><trkpt lat="44.05963382220173" lon="12.370750206134593"><ele>133.2</ele><time>2026-03-28T09:23:38Z</time></trkpt><trkpt lat="44.05956737854985" lon="12.370687157735118"><ele>131.8</ele><time>2026-03-28T09:23:40Z</time></trkpt><trkpt lat="44.0594786725993" lon="12.370600947582837"><ele>130.4</ele><time>2026-03-28T09:23:42Z</time></trkpt><trkpt lat="44.05938673512418" lon="12.370512892097148"><ele>129.0</ele><time>2026-03-28T09:23:44Z</time></trkpt><trkpt lat="44.05928152206425" lon="12.370444015996746"><ele>127.66666666666667</ele><time>2026-03-28T09:23:46Z</time></trkpt><trkpt lat="44.05920706855664" lon="12.37042270708874"><ele>126.33333333333334</ele><time>2026-03-28T09:23:47Z</time></trkpt><trkpt lat="44.059144796848614" lon="12.370405310012535"><ele>125.0</ele><time>2026-03-28T09:23:48Z</time></trkpt><trkpt lat="44.059041167418215" lon="12.370411097409612"><ele>123.66666666666667</ele><time>2026-03-28T09:23:50Z</time></trkpt><trkpt lat="44.05895327271752" lon="12.37042322665471"><ele>122.33333333333334</ele><time>2026-03-28T09:23:52Z</time></trkpt><trkpt lat="44.0588758272535" lon="12.370418132927574"><ele>121.0</ele><time>2026-03-28T09:23:54Z</time></trkpt><trkpt lat="44.05880833112595" lon="12.370380675013088"><ele>118.83333333333334</ele><time>2026-03-28T09:23:56Z</time></trkpt><trkpt lat="44.058770944529556" lon="12.370273099593179"><ele>116.66666666666667</ele><time>2026-03-28T09:23:58Z</time></trkpt><trkpt lat="44.058728458240296" lon="12.37014718374879"><ele>114.5</ele><time>2026-03-28T09:24:00Z</time></trkpt><trkpt lat="44.0586895288902" lon="12.37002188138325"><ele>112.33333333333334</ele><time>2026-03-28T09:24:02Z</time></trkpt><trkpt lat="44.05867322909627" lon="12.369933655320262"><ele>110.16666666666667</ele><time>2026-03-28T09:24:03Z</time></trkpt><trkpt lat="44.0586507168392" lon="12.369801974348622"><ele>108.0</ele><time>2026-03-28T09:24:05Z</time></trkpt><trkpt lat="44.05862200125987" lon="12.36967814954716"><ele>107.66666666666667</ele><time>2026-03-28T09:24:07Z</time></trkpt><trkpt lat="44.05859327112809" lon="12.369593020388185"><ele>107.33333333333334</ele><time>2026-03-28T09:24:09Z</time></trkpt><trkpt lat="44.058554507180936" lon="12.369470506684015"><ele>107.0</ele><time>2026-03-28T09:24:12Z</time></trkpt><trkpt lat="44.058515477995954" lon="12.36940025323819"><ele>106.66666666666667</ele><time>2026-03-28T09:24:14Z</time></trkpt><trkpt lat="44.05844073977512" lon="12.369307582290082"><ele>106.33333333333334</ele><time>2026-03-28T09:24:17Z</time></trkpt><trkpt lat="44.05839951352616" lon="12.369230686879174"><ele>106.0</ele><time>2026-03-28T09:24:19Z</time></trkpt><trkpt lat="44.05834159664227" lon="12.369131290951856"><ele>106.00000000000001</ele><time>2026-03-28T09:24:22Z</time></trkpt><trkpt lat="44.05828599209929" lon="12.369028195354598"><ele>106.0</ele><time>2026-03-28T09:24:25Z</time></trkpt><trkpt lat="44.0582361210048" lon="12.368936821863871"><ele>106.0</ele><time>2026-03-28T09:24:28Z</time></trkpt><trkpt lat="44.05818971812991" lon="12.368838552729397"><ele>106.0</ele><time>2026-03-28T09:24:31Z</time></trkpt><trkpt lat="44.058149982057344" lon="12.368762127892674"><ele>106.00000000000001</ele><time>2026-03-28T09:24:33Z</time></trkpt><trkpt lat="44.0581075315727" lon="12.368671803621542"><ele>106.0</ele><time>2026-03-28T09:24:36Z</time></trkpt><trkpt lat="44.05806807697421" lon="12.368571665268984"><ele>102.85714285714286</ele><time>2026-03-28T09:24:40Z</time></trkpt><trkpt lat="44.05802553255915" lon="12.368481040227886"><ele>99.71428571428571</ele><time>2026-03-28T09:24:45Z</time></trkpt><trkpt lat="44.05798062494408" lon="12.368384568405943"><ele>96.57142857142857</ele><time>2026-03-28T09:24:52Z</time></trkpt><trkpt lat="44.057970804350035" lon="12.36828267532266"><ele>93.42857142857143</ele><time>2026-03-28T09:26:18Z</time></trkpt><trkpt lat="44.05794939140759" lon="12.368197000667859"><ele>90.28571428571428</ele><time>2026-03-28T09:26:28Z</time></trkpt><trkpt lat="44.05792134423895" lon="12.368112877309692"><ele>87.14285714285714</ele><time>2026-03-28T09:26:41Z</time></trkpt><trkpt lat="44.05788669648227" lon="12.368038394391148"><ele>84.0</ele><time>2026-03-28T09:26:54Z</time></trkpt><trkpt lat="44.05784035099972" lon="12.367974609594656"><ele>82.85714285714286</ele><time>2026-03-28T09:27:03Z</time></trkpt><trkpt lat="44.0577907704057" lon="12.367915066604132"><ele>81.71428571428572</ele><time>2026-03-28T09:27:24Z</time></trkpt><trkpt lat="44.057744204760745" lon="12.367824919330186"><ele>80.57142857142857</ele><time>2026-03-28T09:27:48Z</time></trkpt><trkpt lat="44.05769486486897" lon="12.367769759363322"><ele>79.42857142857143</ele><time>2026-03-28T09:29:17Z</time></trkpt><trkpt lat="44.057650056118824" lon="12.367703022595322"><ele>78.28571428571429</ele><time>2026-03-28T09:30:39Z</time></trkpt><trkpt lat="44.057597909764894" lon="12.367613370407202"><ele>77.14285714285714</ele><time>2026-03-28T09:30:53Z</time></trkpt><trkpt lat="44.057549754308" lon="12.367550192069467"><ele>76.0</ele><time>2026-03-28T09:30:57Z</time></trkpt><trkpt lat="44.05748260273668" lon="12.367504212870434"><ele>75.28571428571428</ele><time>2026-03-28T09:31:02Z</time></trkpt><trkpt lat="44.05741100366595" lon="12.3674802835647"><ele>74.57142857142858</ele><time>2026-03-28T09:31:06Z</time></trkpt><trkpt lat="44.05734513211586" lon="12.36745773999669"><ele>73.85714285714286</ele><time>2026-03-28T09:31:12Z</time></trkpt><trkpt lat="44.05727631908396" lon="12.367444987287259"><ele>73.14285714285714</ele><time>2026-03-28T09:31:16Z</time></trkpt><trkpt lat="44.057204986065884" lon="12.367434470265415"><ele>72.42857142857142</ele><time>2026-03-28T09:31:20Z</time></trkpt><trkpt lat="44.05713538682733" lon="12.36742642810378"><ele>71.71428571428571</ele><time>2026-03-28T09:31:24Z</time></trkpt><trkpt lat="44.05706922393956" lon="12.367407621054523"><ele>71.0</ele><time>2026-03-28T09:31:28Z</time></trkpt><trkpt lat="44.05700540389562" lon="12.367374577438543"><ele>71.0</ele><time>2026-03-28T09:31:32Z</time></trkpt><trkpt lat="44.05694549046993" lon="12.367414519024075"><ele>71.0</ele><time>2026-03-28T09:31:50Z</time></trkpt><trkpt lat="44.05688174936398" lon="12.36740979446528"><ele>71.0</ele><time>2026-03-28T09:31:54Z</time></trkpt><trkpt lat="44.056770502443605" lon="12.367410255367707"><ele>71.0</ele><time>2026-03-28T09:32:26Z</time></trkpt><trkpt lat="44.05666999144055" lon="12.367424203196565"><ele>71.0</ele><time>2026-03-28T09:32:28Z</time></trkpt><trkpt lat="44.05656481736738" lon="12.367439199988882"><ele>71.0</ele><time>2026-03-28T09:32:30Z</time></trkpt><trkpt lat="44.05646383359584" lon="12.367466552144574"><ele>71.5</ele><time>2026-03-28T09:32:32Z</time></trkpt><trkpt lat="44.05636191036323" lon="12.3675007138652"><ele>72.0</ele><time>2026-03-28T09:32:34Z</time></trkpt><trkpt lat="44.05626291230416" lon="12.36752813431294"><ele>72.5</ele><time>2026-03-28T09:32:36Z</time></trkpt><trkpt lat="44.05617760775674" lon="12.367552162906232"><ele>73.0</ele><time>2026-03-28T09:32:38Z</time></trkpt><trkpt lat="44.056098304982875" lon="12.367578243393384"><ele>73.5</ele><time>2026-03-28T09:32:40Z</time></trkpt><trkpt lat="44.056028567846255" lon="12.367612669164439"><ele>74.0</ele><time>2026-03-28T09:32:42Z</time></trkpt><trkpt lat="44.05595388733758" lon="12.367652999563383"><ele>74.0</ele><time>2026-03-28T09:32:44Z</time></trkpt><trkpt lat="44.05589212262941" lon="12.367709771621742"><ele>74.0</ele><time>2026-03-28T09:32:46Z</time></trkpt><trkpt lat="44.055832582352956" lon="12.367771259782225"><ele>74.0</ele><time>2026-03-28T09:32:48Z</time></trkpt><trkpt lat="44.055781103606286" lon="12.36783558153593"><ele>74.0</ele><time>2026-03-28T09:32:50Z</time></trkpt><trkpt lat="44.05572536739918" lon="12.367898052660044"><ele>74.0</ele><time>2026-03-28T09:32:52Z</time></trkpt><trkpt lat="44.05567310924955" lon="12.367963989862023"><ele>74.0</ele><time>2026-03-28T09:32:54Z</time></trkpt><trkpt lat="44.05559939825442" lon="12.368045270359197"><ele>75.57142857142857</ele><time>2026-03-28T09:32:57Z</time></trkpt><trkpt lat="44.05554959300954" lon="12.368101118442622"><ele>77.14285714285714</ele><time>2026-03-28T09:32:59Z</time></trkpt><trkpt lat="44.055483649552336" lon="12.368167618326046"><ele>78.71428571428572</ele><time>2026-03-28T09:33:02Z</time></trkpt><trkpt lat="44.055419033840174" lon="12.368234885795378"><ele>80.28571428571428</ele><time>2026-03-28T09:33:05Z</time></trkpt><trkpt lat="44.0553558687955" lon="12.36830337651068"><ele>81.85714285714285</ele><time>2026-03-28T09:33:08Z</time></trkpt><trkpt lat="44.05529826355272" lon="12.368363965311055"><ele>83.42857142857143</ele><time>2026-03-28T09:33:11Z</time></trkpt><trkpt lat="44.05523480446034" lon="12.368401565170691"><ele>85.0</ele><time>2026-03-28T09:33:14Z</time></trkpt><trkpt lat="44.05518066444398" lon="12.368450431438704"><ele>85.0</ele><time>2026-03-28T09:33:17Z</time></trkpt><trkpt lat="44.055128595903895" lon="12.368523707879232"><ele>85.0</ele><time>2026-03-28T09:33:20Z</time></trkpt><trkpt lat="44.05508819452112" lon="12.36859279407823"><ele>85.0</ele><time>2026-03-28T09:33:23Z</time></trkpt><trkpt lat="44.05505895268895" lon="12.368693262827017"><ele>85.0</ele><time>2026-03-28T09:33:26Z</time></trkpt><trkpt lat="44.0550257528338" lon="12.368770524791206"><ele>85.0</ele><time>2026-03-28T09:33:29Z</time></trkpt><trkpt lat="44.054990302012776" lon="12.368863077840052"><ele>85.0</ele><time>2026-03-28T09:33:33Z</time></trkpt><trkpt lat="44.054972327123615" lon="12.368952740509409"><ele>85.0</ele><time>2026-03-28T09:33:37Z</time></trkpt><trkpt lat="44.054998842145906" lon="12.369034986156384"><ele>85.42857142857143</ele><time>2026-03-28T09:33:41Z</time></trkpt><trkpt lat="44.0550553094259" lon="12.369091609517975"><ele>85.85714285714285</ele><time>2026-03-28T09:33:46Z</time></trkpt><trkpt lat="44.055102509461086" lon="12.36915332635164"><ele>86.28571428571428</ele><time>2026-03-28T09:33:51Z</time></trkpt><trkpt lat="44.0551384674525" lon="12.36923230098188"><ele>86.71428571428572</ele><time>2026-03-28T09:33:57Z</time></trkpt><trkpt lat="44.055166974404315" lon="12.369322292710132"><ele>87.14285714285714</ele><time>2026-03-28T09:34:03Z</time></trkpt><trkpt lat="44.055197230458084" lon="12.369409642725168"><ele>87.57142857142857</ele><time>2026-03-28T09:34:09Z</time></trkpt><trkpt lat="44.0552029491409" lon="12.369505302809351"><ele>88.0</ele><time>2026-03-28T09:34:14Z</time></trkpt><trkpt lat="44.0551933473159" lon="12.369600328222639"><ele>88.0</ele><time>2026-03-28T09:34:19Z</time></trkpt><trkpt lat="44.05516977495866" lon="12.36969139837275"><ele>88.0</ele><time>2026-03-28T09:34:24Z</time></trkpt><trkpt lat="44.05511464116989" lon="12.369759888810803"><ele>88.0</ele><time>2026-03-28T09:34:29Z</time></trkpt><trkpt lat="44.05506127740716" lon="12.369830566837845"><ele>88.0</ele><time>2026-03-28T09:34:34Z</time></trkpt><trkpt lat="44.0550133677594" lon="12.369900360440782"><ele>88.0</ele><time>2026-03-28T09:34:39Z</time></trkpt><trkpt lat="44.05496339727124" lon="12.369976742897402"><ele>88.0</ele><time>2026-03-28T09:34:45Z</time></trkpt><trkpt lat="44.05490983095902" lon="12.370051653405842"><ele>88.0</ele><time>2026-03-28T09:34:51Z</time></trkpt><trkpt lat="44.05486143958947" lon="12.370124559994856"><ele>91.14285714285714</ele><time>2026-03-28T09:34:57Z</time></trkpt><trkpt lat="44.05482280193235" lon="12.370210160640111"><ele>94.28571428571428</ele><time>2026-03-28T09:35:03Z</time></trkpt><trkpt lat="44.05478344473325" lon="12.37028975127972"><ele>97.42857142857142</ele><time>2026-03-28T09:35:09Z</time></trkpt><trkpt lat="44.054758539033514" lon="12.370372355758581"><ele>100.57142857142857</ele><time>2026-03-28T09:35:14Z</time></trkpt><trkpt lat="44.054729254350256" lon="12.370456554495377"><ele>103.71428571428571</ele><time>2026-03-28T09:35:19Z</time></trkpt><trkpt lat="44.05470565979896" lon="12.37053811225241"><ele>106.85714285714285</ele><time>2026-03-28T09:35:24Z</time></trkpt><trkpt lat="44.0546782017603" lon="12.370630480603602"><ele>110.0</ele><time>2026-03-28T09:35:29Z</time></trkpt><trkpt lat="44.05464176504954" lon="12.370714929232017"><ele>110.85714285714285</ele><time>2026-03-28T09:35:33Z</time></trkpt><trkpt lat="44.05460317472921" lon="12.370810239507025"><ele>111.71428571428572</ele><time>2026-03-28T09:35:38Z</time></trkpt><trkpt lat="44.05457262830886" lon="12.37089791909366"><ele>112.57142857142858</ele><time>2026-03-28T09:35:42Z</time></trkpt><trkpt lat="44.05453846876319" lon="12.37098175740878"><ele>113.42857142857143</ele><time>2026-03-28T09:35:46Z</time></trkpt><trkpt lat="44.054514390825254" lon="12.371064768766388"><ele>114.28571428571429</ele><time>2026-03-28T09:35:49Z</time></trkpt><trkpt lat="44.0545151235144" lon="12.371175121171634"><ele>115.14285714285715</ele><time>2026-03-28T09:35:53Z</time></trkpt><trkpt lat="44.05451956669343" lon="12.371278319735946"><ele>116.00000000000001</ele><time>2026-03-28T09:35:56Z</time></trkpt><trkpt lat="44.054520970800006" lon="12.371383868937025"><ele>116.57142857142858</ele><time>2026-03-28T09:35:59Z</time></trkpt><trkpt lat="44.05453012832676" lon="12.371484642081622"><ele>117.14285714285714</ele><time>2026-03-28T09:36:02Z</time></trkpt><trkpt lat="44.05452904237545" lon="12.371582834426254"><ele>117.71428571428572</ele><time>2026-03-28T09:36:05Z</time></trkpt><trkpt lat="44.05454161115966" lon="12.371677554444082"><ele>118.28571428571429</ele><time>2026-03-28T09:36:08Z</time></trkpt><trkpt lat="44.05454688509414" lon="12.3717773777449"><ele>118.85714285714286</ele><time>2026-03-28T09:36:11Z</time></trkpt><trkpt lat="44.05456488266294" lon="12.371877821413735"><ele>119.42857142857143</ele><time>2026-03-28T09:36:14Z</time></trkpt><trkpt lat="44.05457204869895" lon="12.371997970783182"><ele>120.0</ele><time>2026-03-28T09:36:17Z</time></trkpt><trkpt lat="44.05457300244103" lon="12.372089753104834"><ele>121.16666666666667</ele><time>2026-03-28T09:36:19Z</time></trkpt><trkpt lat="44.054570612068886" lon="12.372220614033694"><ele>122.33333333333334</ele><time>2026-03-28T09:36:22Z</time></trkpt><trkpt lat="44.05456146567033" lon="12.372344130814746"><ele>123.5</ele><time>2026-03-28T09:36:25Z</time></trkpt><trkpt lat="44.0545600127503" lon="12.372452349685572"><ele>124.66666666666667</ele><time>2026-03-28T09:36:28Z</time></trkpt><trkpt lat="44.05455307729504" lon="12.372560253994656"><ele>125.83333333333334</ele><time>2026-03-28T09:36:31Z</time></trkpt><trkpt lat="44.05455298749435" lon="12.372688733345186"><ele>127.0</ele><time>2026-03-28T09:36:34Z</time></trkpt><trkpt lat="44.05454556712515" lon="12.372776525616553"><ele>127.0</ele><time>2026-03-28T09:36:36Z</time></trkpt><trkpt lat="44.05454225437725" lon="12.372896475777456"><ele>127.0</ele><time>2026-03-28T09:36:39Z</time></trkpt><trkpt lat="44.0545399500633" lon="12.372996437497399"><ele>127.0</ele><time>2026-03-28T09:36:43Z</time></trkpt><trkpt lat="44.05453849216135" lon="12.373092586771296"><ele>127.0</ele><time>2026-03-28T09:36:47Z</time></trkpt><trkpt lat="44.05454527781416" lon="12.373193930070288"><ele>127.0</ele><time>2026-03-28T09:36:51Z</time></trkpt><trkpt lat="44.05456264044489" lon="12.373286189931282"><ele>127.0</ele><time>2026-03-28T09:36:55Z</time></trkpt><trkpt lat="44.054568937548126" lon="12.373379244126335"><ele>127.0</ele><time>2026-03-28T09:36:59Z</time></trkpt><trkpt lat="44.054592314936286" lon="12.373470986810068"><ele>129.0</ele><time>2026-03-28T09:37:03Z</time></trkpt><trkpt lat="44.054603949247884" lon="12.373567067893662"><ele>131.0</ele><time>2026-03-28T09:37:07Z</time></trkpt><trkpt lat="44.05462084097618" lon="12.373663674458038"><ele>133.0</ele><time>2026-03-28T09:37:11Z</time></trkpt><trkpt lat="44.0546404890826" lon="12.373770102170596"><ele>135.0</ele><time>2026-03-28T09:37:15Z</time></trkpt><trkpt lat="44.05466084986354" lon="12.373881961984019"><ele>137.0</ele><time>2026-03-28T09:37:19Z</time></trkpt><trkpt lat="44.05468687983244" lon="12.373976857919752"><ele>139.0</ele><time>2026-03-28T09:37:22Z</time></trkpt><trkpt lat="44.054708558178405" lon="12.37407883638105"><ele>138.28571428571428</ele><time>2026-03-28T09:37:26Z</time></trkpt><trkpt lat="44.05472524438739" lon="12.374164505416044"><ele>137.57142857142858</ele><time>2026-03-28T09:37:29Z</time></trkpt><trkpt lat="44.05474110725681" lon="12.374266539145355"><ele>136.85714285714286</ele><time>2026-03-28T09:37:33Z</time></trkpt><trkpt lat="44.05476352448626" lon="12.374349344074307"><ele>136.14285714285714</ele><time>2026-03-28T09:37:37Z</time></trkpt><trkpt lat="44.054799563185966" lon="12.374426379608648"><ele>135.42857142857142</ele><time>2026-03-28T09:37:41Z</time></trkpt><trkpt lat="44.05484547290873" lon="12.374493956289216"><ele>134.71428571428572</ele><time>2026-03-28T09:37:45Z</time></trkpt><trkpt lat="44.05490528308292" lon="12.374557616079526"><ele>134.0</ele><time>2026-03-28T09:37:49Z</time></trkpt><trkpt lat="44.05496050745918" lon="12.374601082901124"><ele>134.0</ele><time>2026-03-28T09:37:52Z</time></trkpt><trkpt lat="44.05502450648974" lon="12.374667447430069"><ele>134.0</ele><time>2026-03-28T09:37:56Z</time></trkpt><trkpt lat="44.05508593169903" lon="12.374735955513103"><ele>134.0</ele><time>2026-03-28T09:38:00Z</time></trkpt><trkpt lat="44.05515092330282" lon="12.37480119710622"><ele>134.0</ele><time>2026-03-28T09:38:05Z</time></trkpt><trkpt lat="44.055201218123315" lon="12.374878771409596"><ele>134.0</ele><time>2026-03-28T09:38:09Z</time></trkpt><trkpt lat="44.05524479117869" lon="12.374967488569437"><ele>134.0</ele><time>2026-03-28T09:38:14Z</time></trkpt><trkpt lat="44.055267213683734" lon="12.375072780414243"><ele>135.85714285714286</ele><time>2026-03-28T09:38:19Z</time></trkpt><trkpt lat="44.055250869696664" lon="12.375167069846654"><ele>137.71428571428572</ele><time>2026-03-28T09:38:24Z</time></trkpt><trkpt lat="44.05521987434613" lon="12.375259610492225"><ele>139.57142857142856</ele><time>2026-03-28T09:38:30Z</time></trkpt><trkpt lat="44.055198140853406" lon="12.37534282589172"><ele>141.42857142857144</ele><time>2026-03-28T09:38:35Z</time></trkpt><trkpt lat="44.055170127600725" lon="12.375444003254053"><ele>143.28571428571428</ele><time>2026-03-28T09:38:41Z</time></trkpt><trkpt lat="44.05514613948831" lon="12.375526753204205"><ele>145.14285714285714</ele><time>2026-03-28T09:38:45Z</time></trkpt><trkpt lat="44.055122453340275" lon="12.375650511446162"><ele>147.0</ele><time>2026-03-28T09:38:49Z</time></trkpt><trkpt lat="44.055105767145946" lon="12.375747439111011"><ele>147.66666666666666</ele><time>2026-03-28T09:38:54Z</time></trkpt><trkpt lat="44.05508623650098" lon="12.375856770325726"><ele>148.33333333333334</ele><time>2026-03-28T09:38:58Z</time></trkpt><trkpt lat="44.05501469854265" lon="12.375912279133912"><ele>149.0</ele><time>2026-03-28T09:40:16Z</time></trkpt><trkpt lat="44.05494923426845" lon="12.375887905031496"><ele>149.66666666666669</ele><time>2026-03-28T09:40:18.999Z</time></trkpt><trkpt lat="44.05487919562957" lon="12.375847604304946"><ele>150.33333333333334</ele><time>2026-03-28T09:40:22.999Z</time></trkpt><trkpt lat="44.0548159270614" lon="12.375791011808406"><ele>151.0</ele><time>2026-03-28T09:40:26.999Z</time></trkpt><trkpt lat="44.05474706239891" lon="12.375737799840465"><ele>151.00000000000003</ele><time>2026-03-28T09:40:30.999Z</time></trkpt><trkpt lat="44.05467896011615" lon="12.37567999791307"><ele>151.0</ele><time>2026-03-28T09:40:34.999Z</time></trkpt><trkpt lat="44.05460204909867" lon="12.375627537779657"><ele>151.0</ele><time>2026-03-28T09:40:39Z</time></trkpt><trkpt lat="44.05454342841977" lon="12.375586186944757"><ele>151.0</ele><time>2026-03-28T09:40:42Z</time></trkpt><trkpt lat="44.05448654955779" lon="12.375538330516603"><ele>151.0</ele><time>2026-03-28T09:40:45Z</time></trkpt><trkpt lat="44.0544370557718" lon="12.375475232769205"><ele>151.00000000000003</ele><time>2026-03-28T09:40:48Z</time></trkpt><trkpt lat="44.054369828781795" lon="12.375413846534334"><ele>151.0</ele><time>2026-03-28T09:40:52Z</time></trkpt><trkpt lat="44.054314910244436" lon="12.375366721690078"><ele>151.33333333333334</ele><time>2026-03-28T09:40:55Z</time></trkpt><trkpt lat="44.05426041230293" lon="12.375320674873176"><ele>151.66666666666669</ele><time>2026-03-28T09:40:58Z</time></trkpt><trkpt lat="44.05419956860343" lon="12.375266786937557"><ele>152.0</ele><time>2026-03-28T09:41:01Z</time></trkpt><trkpt lat="44.05413427452383" lon="12.375205924544806"><ele>152.33333333333334</ele><time>2026-03-28T09:41:04Z</time></trkpt><trkpt lat="44.05406762287949" lon="12.375143561426604"><ele>152.66666666666666</ele><time>2026-03-28T09:41:07Z</time></trkpt><trkpt lat="44.05400087439879" lon="12.375094167105956"><ele>153.0</ele><time>2026-03-28T09:41:10Z</time></trkpt><trkpt lat="44.05392641603175" lon="12.375044450510178"><ele>153.0</ele><time>2026-03-28T09:41:13Z</time></trkpt><trkpt lat="44.05384616114676" lon="12.374982446891394"><ele>153.0</ele><time>2026-03-28T09:41:16Z</time></trkpt><trkpt lat="44.05378588367012" lon="12.37492262824945"><ele>153.0</ele><time>2026-03-28T09:41:19Z</time></trkpt><trkpt lat="44.05372225248253" lon="12.37486957782433"><ele>153.0</ele><time>2026-03-28T09:41:22Z</time></trkpt><trkpt lat="44.05365938964861" lon="12.374810148424029"><ele>153.0</ele><time>2026-03-28T09:41:25Z</time></trkpt><trkpt lat="44.05359829166521" lon="12.374756484397318"><ele>153.0</ele><time>2026-03-28T09:41:28Z</time></trkpt><trkpt lat="44.053535031044284" lon="12.374699509688147"><ele>152.5</ele><time>2026-03-28T09:41:31Z</time></trkpt><trkpt lat="44.053471025567944" lon="12.37463242664134"><ele>152.0</ele><time>2026-03-28T09:41:34Z</time></trkpt><trkpt lat="44.053402509548434" lon="12.37456879204407"><ele>151.5</ele><time>2026-03-28T09:41:37Z</time></trkpt><trkpt lat="44.053334069662384" lon="12.374499911751506"><ele>151.0</ele><time>2026-03-28T09:41:40Z</time></trkpt><trkpt lat="44.0532628954368" lon="12.374436076264116"><ele>150.5</ele><time>2026-03-28T09:41:43Z</time></trkpt><trkpt lat="44.05319175756226" lon="12.374369914810964"><ele>150.0</ele><time>2026-03-28T09:41:46Z</time></trkpt><trkpt lat="44.053117973443996" lon="12.374305558941218"><ele>150.0</ele><time>2026-03-28T09:41:49Z</time></trkpt><trkpt lat="44.05304951609839" lon="12.374236562490044"><ele>150.0</ele><time>2026-03-28T09:41:52Z</time></trkpt><trkpt lat="44.05297735951094" lon="12.374158654361986"><ele>150.0</ele><time>2026-03-28T09:41:55Z</time></trkpt><trkpt lat="44.0529022412654" lon="12.374083740155998"><ele>150.0</ele><time>2026-03-28T09:41:58Z</time></trkpt><trkpt lat="44.05285080142147" lon="12.3740326588254"><ele>150.0</ele><time>2026-03-28T09:42:00Z</time></trkpt><trkpt lat="44.05279861572977" lon="12.373980157704208"><ele>150.0</ele><time>2026-03-28T09:42:02Z</time></trkpt><trkpt lat="44.05274516726111" lon="12.373921829862757"><ele>150.0</ele><time>2026-03-28T09:42:04Z</time></trkpt><trkpt lat="44.05268704378079" lon="12.373864590728749"><ele>150.0</ele><time>2026-03-28T09:42:06Z</time></trkpt><trkpt lat="44.05263923952751" lon="12.373797725910695"><ele>150.0</ele><time>2026-03-28T09:42:08Z</time></trkpt><trkpt lat="44.052572709302744" lon="12.37373919711887"><ele>150.0</ele><time>2026-03-28T09:42:10Z</time></trkpt><trkpt lat="44.05250858914852" lon="12.373670815894936"><ele>150.0</ele><time>2026-03-28T09:42:12Z</time></trkpt><trkpt lat="44.052444487690586" lon="12.37360340386769"><ele>150.0</ele><time>2026-03-28T09:42:14Z</time></trkpt><trkpt lat="44.05237008923114" lon="12.373550000450283"><ele>150.5</ele><time>2026-03-28T09:42:16Z</time></trkpt><trkpt lat="44.052299570789174" lon="12.373476889302653"><ele>151.0</ele><time>2026-03-28T09:42:18Z</time></trkpt><trkpt lat="44.0522365763683" lon="12.373390904103392"><ele>151.5</ele><time>2026-03-28T09:42:20Z</time></trkpt><trkpt lat="44.05216413465009" lon="12.373330065664769"><ele>152.0</ele><time>2026-03-28T09:42:22Z</time></trkpt><trkpt lat="44.05209261955239" lon="12.373273089907434"><ele>152.5</ele><time>2026-03-28T09:42:24Z</time></trkpt><trkpt lat="44.05204002755642" lon="12.373193407255576"><ele>153.0</ele><time>2026-03-28T09:42:25.999Z</time></trkpt><trkpt lat="44.05196686664991" lon="12.373125571028377"><ele>153.0</ele><time>2026-03-28T09:42:27.999Z</time></trkpt><trkpt lat="44.05190020251738" lon="12.373070361504581"><ele>153.0</ele><time>2026-03-28T09:42:29.999Z</time></trkpt><trkpt lat="44.05184579804094" lon="12.373008559904196"><ele>153.0</ele><time>2026-03-28T09:42:31.999Z</time></trkpt><trkpt lat="44.051786902624514" lon="12.37294705215498"><ele>153.0</ele><time>2026-03-28T09:42:33.999Z</time></trkpt><trkpt lat="44.05173358054621" lon="12.372880456471952"><ele>153.0</ele><time>2026-03-28T09:42:35.999Z</time></trkpt><trkpt lat="44.05168426247126" lon="12.372815190955356"><ele>153.0</ele><time>2026-03-28T09:42:37.999Z</time></trkpt><trkpt lat="44.051624911857324" lon="12.372765092949027"><ele>153.0</ele><time>2026-03-28T09:42:39.999Z</time></trkpt><trkpt lat="44.05157718471717" lon="12.372702366177489"><ele>153.5</ele><time>2026-03-28T09:42:41.999Z</time></trkpt><trkpt lat="44.05151394204083" lon="12.372612659935994"><ele>154.0</ele><time>2026-03-28T09:42:44.999Z</time></trkpt><trkpt lat="44.05144331508994" lon="12.372535814988945"><ele>154.5</ele><time>2026-03-28T09:42:47.999Z</time></trkpt><trkpt lat="44.05139736309708" lon="12.372474642426283"><ele>155.0</ele><time>2026-03-28T09:42:49.999Z</time></trkpt><trkpt lat="44.05135343586061" lon="12.372403617886333"><ele>155.5</ele><time>2026-03-28T09:42:51.999Z</time></trkpt><trkpt lat="44.05130118827882" lon="12.372312649970437"><ele>156.0</ele><time>2026-03-28T09:42:55Z</time></trkpt><trkpt lat="44.05124385761383" lon="12.37223516488266"><ele>157.66666666666666</ele><time>2026-03-28T09:42:58Z</time></trkpt><trkpt lat="44.051182082977704" lon="12.372169678553552"><ele>159.33333333333334</ele><time>2026-03-28T09:43:01Z</time></trkpt><trkpt lat="44.051110883228375" lon="12.372126528989437"><ele>161.0</ele><time>2026-03-28T09:43:04Z</time></trkpt><trkpt lat="44.051031024509506" lon="12.372097595513868"><ele>162.66666666666669</ele><time>2026-03-28T09:43:07Z</time></trkpt><trkpt lat="44.05093774043609" lon="12.372081797416872"><ele>164.33333333333334</ele><time>2026-03-28T09:43:10Z</time></trkpt><trkpt lat="44.05084361955364" lon="12.372073978052763"><ele>166.0</ele><time>2026-03-28T09:43:13Z</time></trkpt><trkpt lat="44.05077843553992" lon="12.372059223640244"><ele>166.0</ele><time>2026-03-28T09:43:15Z</time></trkpt><trkpt lat="44.05068472229115" lon="12.372043917439752"><ele>166.0</ele><time>2026-03-28T09:43:18Z</time></trkpt><trkpt lat="44.050622334980645" lon="12.372014840017615"><ele>166.0</ele><time>2026-03-28T09:43:20Z</time></trkpt><trkpt lat="44.05056000928066" lon="12.371980274316691"><ele>166.0</ele><time>2026-03-28T09:43:22Z</time></trkpt><trkpt lat="44.05048120197599" lon="12.371909188046635"><ele>166.0</ele><time>2026-03-28T09:43:25Z</time></trkpt><trkpt lat="44.05041113011746" lon="12.371831610102195"><ele>166.0</ele><time>2026-03-28T09:43:28Z</time></trkpt><trkpt lat="44.050350286434835" lon="12.371753088910712"><ele>166.0</ele><time>2026-03-28T09:43:31Z</time></trkpt><trkpt lat="44.05027412143309" lon="12.37169475660992"><ele>166.0</ele><time>2026-03-28T09:43:34Z</time></trkpt><trkpt lat="44.05020331922483" lon="12.371643324547426"><ele>166.0</ele><time>2026-03-28T09:43:37Z</time></trkpt><trkpt lat="44.05012529129632" lon="12.371609608399488"><ele>166.0</ele><time>2026-03-28T09:43:40Z</time></trkpt><trkpt lat="44.0500405576132" lon="12.371587783938779"><ele>166.0</ele><time>2026-03-28T09:43:43Z</time></trkpt><trkpt lat="44.04995022109937" lon="12.371574794364724"><ele>166.0</ele><time>2026-03-28T09:43:46Z</time></trkpt><trkpt lat="44.04986841963287" lon="12.371549331896572"><ele>166.0</ele><time>2026-03-28T09:43:49Z</time></trkpt><trkpt lat="44.049784733624506" lon="12.371517694551972"><ele>166.0</ele><time>2026-03-28T09:43:52Z</time></trkpt><trkpt lat="44.04969096777932" lon="12.371494458145692"><ele>166.0</ele><time>2026-03-28T09:43:55Z</time></trkpt><trkpt lat="44.04963074972643" lon="12.371465184746855"><ele>166.0</ele><time>2026-03-28T09:43:57Z</time></trkpt><trkpt lat="44.04956863452269" lon="12.371441436757408"><ele>166.0</ele><time>2026-03-28T09:43:59Z</time></trkpt><trkpt lat="44.04948446875846" lon="12.371412607268255"><ele>166.0</ele><time>2026-03-28T09:44:02Z</time></trkpt><trkpt lat="44.049407383768795" lon="12.371354682074042"><ele>165.85714285714286</ele><time>2026-03-28T09:44:05Z</time></trkpt><trkpt lat="44.04933422739631" lon="12.371295299543789"><ele>165.71428571428572</ele><time>2026-03-28T09:44:08Z</time></trkpt><trkpt lat="44.04932758414767" lon="12.371204345967481"><ele>165.57142857142858</ele><time>2026-03-28T09:44:10Z</time></trkpt><trkpt lat="44.04934692216936" lon="12.37111391368578"><ele>165.42857142857144</ele><time>2026-03-28T09:44:13Z</time></trkpt><trkpt lat="44.04934914476158" lon="12.371025599259593"><ele>165.28571428571428</ele><time>2026-03-28T09:44:15Z</time></trkpt><trkpt lat="44.049346533049835" lon="12.370923817561419"><ele>165.14285714285717</ele><time>2026-03-28T09:44:17Z</time></trkpt><trkpt lat="44.049352692087986" lon="12.37080893993187"><ele>165.0</ele><time>2026-03-28T09:44:19Z</time></trkpt><trkpt lat="44.04935493527082" lon="12.370666266932753"><ele>165.0</ele><time>2026-03-28T09:44:21Z</time></trkpt><trkpt lat="44.0493559996009" lon="12.370575619899261"><ele>165.0</ele><time>2026-03-28T09:44:22Z</time></trkpt><trkpt lat="44.0493607389817" lon="12.370483355503628"><ele>165.0</ele><time>2026-03-28T09:44:23Z</time></trkpt><trkpt lat="44.049363717125765" lon="12.37038401142332"><ele>165.0</ele><time>2026-03-28T09:44:24Z</time></trkpt><trkpt lat="44.04936279242973" lon="12.370282384368391"><ele>165.0</ele><time>2026-03-28T09:44:25Z</time></trkpt><trkpt lat="44.04936967381104" lon="12.37012092716007"><ele>165.0</ele><time>2026-03-28T09:44:27Z</time></trkpt><trkpt lat="44.049377380479655" lon="12.369954755517426"><ele>163.83333333333334</ele><time>2026-03-28T09:44:29Z</time></trkpt><trkpt lat="44.04938208207515" lon="12.369799244018177"><ele>162.66666666666666</ele><time>2026-03-28T09:44:31Z</time></trkpt><trkpt lat="44.04938583433753" lon="12.369677235599118"><ele>161.5</ele><time>2026-03-28T09:44:33Z</time></trkpt><trkpt lat="44.04939198219356" lon="12.369573632322812"><ele>160.33333333333331</ele><time>2026-03-28T09:44:35Z</time></trkpt><trkpt lat="44.049398998460525" lon="12.369471007508078"><ele>159.16666666666666</ele><time>2026-03-28T09:44:37Z</time></trkpt><trkpt lat="44.04940585628008" lon="12.369373265451339"><ele>158.0</ele><time>2026-03-28T09:44:39Z</time></trkpt><trkpt lat="44.049415396513595" lon="12.369279250567688"><ele>156.66666666666666</ele><time>2026-03-28T09:44:41Z</time></trkpt><trkpt lat="44.049426174597585" lon="12.369126260568441"><ele>155.33333333333331</ele><time>2026-03-28T09:44:43Z</time></trkpt><trkpt lat="44.04942288409427" lon="12.369021864252947"><ele>154.0</ele><time>2026-03-28T09:44:45Z</time></trkpt><trkpt lat="44.04942994975425" lon="12.368927371510836"><ele>152.66666666666666</ele><time>2026-03-28T09:44:47Z</time></trkpt><trkpt lat="44.04944762080146" lon="12.368811004394013"><ele>151.33333333333334</ele><time>2026-03-28T09:44:49Z</time></trkpt><trkpt lat="44.04946995635029" lon="12.368709975292738"><ele>150.0</ele><time>2026-03-28T09:44:51Z</time></trkpt><trkpt lat="44.04948865869854" lon="12.368624919992453"><ele>148.83333333333334</ele><time>2026-03-28T09:44:53Z</time></trkpt><trkpt lat="44.04951115240669" lon="12.368529901714048"><ele>147.66666666666666</ele><time>2026-03-28T09:44:56Z</time></trkpt><trkpt lat="44.04951737939119" lon="12.368413345018737"><ele>146.5</ele><time>2026-03-28T09:45:00Z</time></trkpt><trkpt lat="44.049463699020144" lon="12.368309871100216"><ele>145.33333333333331</ele><time>2026-03-28T09:45:03Z</time></trkpt><trkpt lat="44.0493801542442" lon="12.368226608477146"><ele>144.16666666666666</ele><time>2026-03-28T09:45:05Z</time></trkpt><trkpt lat="44.049309691541126" lon="12.368159787569393"><ele>143.0</ele><time>2026-03-28T09:45:07Z</time></trkpt><trkpt lat="44.04924650339383" lon="12.36811504659761"><ele>143.0</ele><time>2026-03-28T09:45:11Z</time></trkpt><trkpt lat="44.04918131712543" lon="12.368050416251917"><ele>143.0</ele><time>2026-03-28T09:45:14Z</time></trkpt><trkpt lat="44.049124565285126" lon="12.367992219327391"><ele>143.0</ele><time>2026-03-28T09:45:17Z</time></trkpt><trkpt lat="44.04907045909378" lon="12.367940183189672"><ele>143.0</ele><time>2026-03-28T09:45:19Z</time></trkpt><trkpt lat="44.04899113945871" lon="12.367861282279133"><ele>143.0</ele><time>2026-03-28T09:45:21Z</time></trkpt><trkpt lat="44.0489037458593" lon="12.367767238613999"><ele>143.0</ele><time>2026-03-28T09:45:23Z</time></trkpt><trkpt lat="44.04881687045469" lon="12.367677567003476"><ele>140.8</ele><time>2026-03-28T09:45:25Z</time></trkpt><trkpt lat="44.048739720894424" lon="12.367561916996097"><ele>138.60000000000002</ele><time>2026-03-28T09:45:27Z</time></trkpt><trkpt lat="44.04868359436945" lon="12.367438991216842"><ele>136.39999999999998</ele><time>2026-03-28T09:45:29Z</time></trkpt><trkpt lat="44.0486809447782" lon="12.367309403998108"><ele>134.2</ele><time>2026-03-28T09:45:31Z</time></trkpt><trkpt lat="44.04871200435909" lon="12.367221614229532"><ele>132.0</ele><time>2026-03-28T09:45:33Z</time></trkpt><trkpt lat="44.048763501607844" lon="12.367138008625826"><ele>132.0</ele><time>2026-03-28T09:45:36Z</time></trkpt><trkpt lat="44.04882448794272" lon="12.367065303150415"><ele>132.0</ele><time>2026-03-28T09:45:39Z</time></trkpt><trkpt lat="44.04888203054302" lon="12.366974484991273"><ele>132.0</ele><time>2026-03-28T09:45:42Z</time></trkpt><trkpt lat="44.048920796315464" lon="12.366900011044484"><ele>132.0</ele><time>2026-03-28T09:45:44Z</time></trkpt><trkpt lat="44.04895559780099" lon="12.366820964285509"><ele>132.0</ele><time>2026-03-28T09:45:46Z</time></trkpt><trkpt lat="44.048987997245746" lon="12.366714987457996"><ele>132.0</ele><time>2026-03-28T09:45:49Z</time></trkpt><trkpt lat="44.04898862757205" lon="12.366622860568004"><ele>132.0</ele><time>2026-03-28T09:45:51Z</time></trkpt><trkpt lat="44.048964339470935" lon="12.366539493643044"><ele>132.0</ele><time>2026-03-28T09:45:53Z</time></trkpt><trkpt lat="44.04892381157655" lon="12.366443050245438"><ele>132.0</ele><time>2026-03-28T09:45:55Z</time></trkpt><trkpt lat="44.04887564078677" lon="12.366343269392047"><ele>132.0</ele><time>2026-03-28T09:45:57Z</time></trkpt><trkpt lat="44.04883111443145" lon="12.366222990265976"><ele>132.0</ele><time>2026-03-28T09:45:59Z</time></trkpt><trkpt lat="44.04876763516375" lon="12.36612129896962"><ele>132.0</ele><time>2026-03-28T09:46:01Z</time></trkpt><trkpt lat="44.04872349003903" lon="12.366027065272934"><ele>132.0</ele><time>2026-03-28T09:46:03Z</time></trkpt><trkpt lat="44.04867123362694" lon="12.365920692616763"><ele>130.66666666666666</ele><time>2026-03-28T09:46:05Z</time></trkpt><trkpt lat="44.048627455936376" lon="12.365856949017456"><ele>129.33333333333334</ele><time>2026-03-28T09:46:06Z</time></trkpt><trkpt lat="44.04861312251254" lon="12.365767963920838"><ele>128.0</ele><time>2026-03-28T09:46:08.001Z</time></trkpt><trkpt lat="44.04858793340442" lon="12.365686848053972"><ele>126.66666666666667</ele><time>2026-03-28T09:46:10.001Z</time></trkpt><trkpt lat="44.04853385937372" lon="12.365558304027129"><ele>125.33333333333334</ele><time>2026-03-28T09:46:13.001Z</time></trkpt><trkpt lat="44.048491598254536" lon="12.36546372961293"><ele>124.0</ele><time>2026-03-28T09:46:15.001Z</time></trkpt><trkpt lat="44.0484510714336" lon="12.365384176833372"><ele>122.42857142857143</ele><time>2026-03-28T09:46:17.001Z</time></trkpt><trkpt lat="44.04840535723271" lon="12.365321962752816"><ele>120.85714285714286</ele><time>2026-03-28T09:46:19.001Z</time></trkpt><trkpt lat="44.0483343146326" lon="12.36529742095558"><ele>119.28571428571429</ele><time>2026-03-28T09:46:23.001Z</time></trkpt><trkpt lat="44.048283323845986" lon="12.365354703240689"><ele>117.71428571428572</ele><time>2026-03-28T09:46:58Z</time></trkpt><trkpt lat="44.048231464081226" lon="12.365415014492005"><ele>116.14285714285714</ele><time>2026-03-28T09:47:37Z</time></trkpt><trkpt lat="44.04818508660713" lon="12.365497551060491"><ele>114.57142857142858</ele><time>2026-03-28T09:47:43Z</time></trkpt><trkpt lat="44.04813579037617" lon="12.365566858995509"><ele>113.0</ele><time>2026-03-28T09:47:47Z</time></trkpt><trkpt lat="44.04806724646753" lon="12.365600920126044"><ele>109.85714285714286</ele><time>2026-03-28T09:48:10.001Z</time></trkpt><trkpt lat="44.04806642719926" lon="12.365501725346558"><ele>106.71428571428571</ele><time>2026-03-28T09:48:15.001Z</time></trkpt><trkpt lat="44.04807781202412" lon="12.365414531893622"><ele>103.57142857142857</ele><time>2026-03-28T09:48:19.001Z</time></trkpt><trkpt lat="44.04810653711437" lon="12.365331883414827"><ele>100.42857142857143</ele><time>2026-03-28T09:48:24.001Z</time></trkpt><trkpt lat="44.04814401293611" lon="12.36524411371461"><ele>97.28571428571428</ele><time>2026-03-28T09:48:29.001Z</time></trkpt><trkpt lat="44.048180367714934" lon="12.36517061133499"><ele>94.14285714285714</ele><time>2026-03-28T09:48:33.001Z</time></trkpt><trkpt lat="44.04820944759717" lon="12.365089834575452"><ele>91.0</ele><time>2026-03-28T09:48:37.001Z</time></trkpt><trkpt lat="44.048253762187855" lon="12.365006259592953"><ele>91.0</ele><time>2026-03-28T09:48:42.001Z</time></trkpt><trkpt lat="44.04829088838772" lon="12.364919655069219"><ele>91.0</ele><time>2026-03-28T09:48:47.001Z</time></trkpt><trkpt lat="44.048337335542996" lon="12.3648366016645"><ele>91.0</ele><time>2026-03-28T09:48:50Z</time></trkpt><trkpt lat="44.048386199838184" lon="12.364772278991227"><ele>91.0</ele><time>2026-03-28T09:48:53Z</time></trkpt><trkpt lat="44.048430291076066" lon="12.3647000209005"><ele>91.0</ele><time>2026-03-28T09:48:56Z</time></trkpt><trkpt lat="44.048468832647515" lon="12.364627575679783"><ele>91.0</ele><time>2026-03-28T09:48:59Z</time></trkpt><trkpt lat="44.048517452961455" lon="12.364547177131696"><ele>91.0</ele><time>2026-03-28T09:49:03Z</time></trkpt><trkpt lat="44.048572265753464" lon="12.364482235976"><ele>91.71428571428571</ele><time>2026-03-28T09:49:16Z</time></trkpt><trkpt lat="44.04863728652564" lon="12.364439944123427"><ele>92.42857142857143</ele><time>2026-03-28T09:49:21Z</time></trkpt><trkpt lat="44.0485717462784" lon="12.364464014897194"><ele>93.14285714285714</ele><time>2026-03-28T09:49:41Z</time></trkpt><trkpt lat="44.04850197065066" lon="12.364511898369951"><ele>93.85714285714286</ele><time>2026-03-28T09:49:46Z</time></trkpt><trkpt lat="44.04845526045058" lon="12.364607074692772"><ele>94.57142857142857</ele><time>2026-03-28T09:49:51Z</time></trkpt><trkpt lat="44.04841722264181" lon="12.364689816537465"><ele>95.28571428571428</ele><time>2026-03-28T09:49:55Z</time></trkpt><trkpt lat="44.0483662427155" lon="12.364761431356486"><ele>96.0</ele><time>2026-03-28T09:50:01Z</time></trkpt><trkpt lat="44.04832252508357" lon="12.364829042314776"><ele>95.28571428571428</ele><time>2026-03-28T09:50:05Z</time></trkpt><trkpt lat="44.04828530208843" lon="12.364924978597477"><ele>94.57142857142857</ele><time>2026-03-28T09:50:09.001Z</time></trkpt><trkpt lat="44.04824498979571" lon="12.36500891974062"><ele>93.85714285714286</ele><time>2026-03-28T09:50:13.001Z</time></trkpt><trkpt lat="44.04821987001713" lon="12.365090687639166"><ele>93.14285714285714</ele><time>2026-03-28T09:50:17.001Z</time></trkpt><trkpt lat="44.04818066654455" lon="12.365159575115594"><ele>92.42857142857143</ele><time>2026-03-28T09:50:20.001Z</time></trkpt><trkpt lat="44.04814428185017" lon="12.365253783865022"><ele>91.71428571428571</ele><time>2026-03-28T09:50:24.001Z</time></trkpt><trkpt lat="44.04810104800887" lon="12.36534795922192"><ele>91.0</ele><time>2026-03-28T09:50:28.001Z</time></trkpt><trkpt lat="44.04807365207909" lon="12.365428512532382"><ele>91.0</ele><time>2026-03-28T09:50:32.001Z</time></trkpt><trkpt lat="44.04806430860068" lon="12.365519709569432"><ele>91.0</ele><time>2026-03-28T09:50:36.001Z</time></trkpt><trkpt lat="44.048067743100816" lon="12.36561387623313"><ele>91.0</ele><time>2026-03-28T09:50:43.001Z</time></trkpt><trkpt lat="44.04813041962626" lon="12.365579473710127"><ele>91.0</ele><time>2026-03-28T09:51:03Z</time></trkpt><trkpt lat="44.04818530950844" lon="12.365509601390679"><ele>91.0</ele><time>2026-03-28T09:51:08Z</time></trkpt><trkpt lat="44.048227610500646" lon="12.365423565445727"><ele>91.0</ele><time>2026-03-28T09:51:13Z</time></trkpt><trkpt lat="44.04828958868723" lon="12.365368793433465"><ele>91.0</ele><time>2026-03-28T09:51:19Z</time></trkpt><trkpt lat="44.04835225029306" lon="12.365337782129956"><ele>94.14285714285714</ele><time>2026-03-28T09:51:24Z</time></trkpt><trkpt lat="44.04842875539822" lon="12.365349945311433"><ele>97.28571428571428</ele><time>2026-03-28T09:51:29Z</time></trkpt><trkpt lat="44.04848424170438" lon="12.36539478112612"><ele>100.42857142857143</ele><time>2026-03-28T09:51:33Z</time></trkpt><trkpt lat="44.04852482683484" lon="12.365481951491498"><ele>103.57142857142857</ele><time>2026-03-28T09:51:37Z</time></trkpt><trkpt lat="44.048550649486245" lon="12.365587713978837"><ele>106.71428571428571</ele><time>2026-03-28T09:51:41Z</time></trkpt><trkpt lat="44.04858907025887" lon="12.365677393044425"><ele>109.85714285714286</ele><time>2026-03-28T09:51:45Z</time></trkpt><trkpt lat="44.048627115732735" lon="12.365769272280312"><ele>113.0</ele><time>2026-03-28T09:51:50Z</time></trkpt><trkpt lat="44.04866077447315" lon="12.365855992854645"><ele>114.57142857142858</ele><time>2026-03-28T09:51:55Z</time></trkpt><trkpt lat="44.04869713852378" lon="12.365942583008174"><ele>116.14285714285714</ele><time>2026-03-28T09:52:00Z</time></trkpt><trkpt lat="44.0487318216239" lon="12.366030562004624"><ele>117.71428571428572</ele><time>2026-03-28T09:52:05Z</time></trkpt><trkpt lat="44.04876587567606" lon="12.366118383577817"><ele>119.28571428571429</ele><time>2026-03-28T09:52:10Z</time></trkpt><trkpt lat="44.04881226181847" lon="12.366200306409295"><ele>120.85714285714286</ele><time>2026-03-28T09:52:15Z</time></trkpt><trkpt lat="44.0488514595129" lon="12.366277175222711"><ele>122.42857142857143</ele><time>2026-03-28T09:52:20Z</time></trkpt><trkpt lat="44.04888255516447" lon="12.366361462290914"><ele>124.0</ele><time>2026-03-28T09:52:25Z</time></trkpt><trkpt lat="44.04893427092637" lon="12.366427956924207"><ele>125.14285714285715</ele><time>2026-03-28T09:52:30Z</time></trkpt><trkpt lat="44.048962167675754" lon="12.366515160216192"><ele>126.2857142857143</ele><time>2026-03-28T09:52:35Z</time></trkpt><trkpt lat="44.04897720676543" lon="12.366604968732574"><ele>127.42857142857143</ele><time>2026-03-28T09:52:40.001Z</time></trkpt><trkpt lat="44.04899630698022" lon="12.36669437263158"><ele>128.57142857142858</ele><time>2026-03-28T09:52:45.001Z</time></trkpt><trkpt lat="44.04898399978647" lon="12.366789268474419"><ele>129.71428571428572</ele><time>2026-03-28T09:52:49.001Z</time></trkpt><trkpt lat="44.04895502520373" lon="12.366871559069756"><ele>130.85714285714286</ele><time>2026-03-28T09:52:53.001Z</time></trkpt><trkpt lat="44.04891645687817" lon="12.366953438062094"><ele>132.0</ele><time>2026-03-28T09:52:57Z</time></trkpt><trkpt lat="44.0488638946287" lon="12.367014532610934"><ele>132.0</ele><time>2026-03-28T09:53:01Z</time></trkpt><trkpt lat="44.048796484362256" lon="12.367081188884192"><ele>132.0</ele><time>2026-03-28T09:53:05Z</time></trkpt><trkpt lat="44.04875176851433" lon="12.36717531762201"><ele>132.0</ele><time>2026-03-28T09:53:08Z</time></trkpt><trkpt lat="44.048713393484086" lon="12.367271642795362"><ele>132.0</ele><time>2026-03-28T09:53:11Z</time></trkpt><trkpt lat="44.04870454075082" lon="12.367383001269005"><ele>132.0</ele><time>2026-03-28T09:53:14Z</time></trkpt><trkpt lat="44.04871961382667" lon="12.36747107891468"><ele>132.0</ele><time>2026-03-28T09:53:17Z</time></trkpt><trkpt lat="44.04875350903111" lon="12.367567270196846"><ele>131.66666666666666</ele><time>2026-03-28T09:53:21Z</time></trkpt><trkpt lat="44.04880317680048" lon="12.367651088357121"><ele>131.33333333333334</ele><time>2026-03-28T09:53:25Z</time></trkpt><trkpt lat="44.04885658999572" lon="12.36772416772933"><ele>131.0</ele><time>2026-03-28T09:53:29Z</time></trkpt><trkpt lat="44.048925798617496" lon="12.367773183528124"><ele>130.66666666666669</ele><time>2026-03-28T09:53:33Z</time></trkpt><trkpt lat="44.04898937078975" lon="12.367827357072091"><ele>130.33333333333334</ele><time>2026-03-28T09:53:37Z</time></trkpt><trkpt lat="44.04904256011119" lon="12.367891860666463"><ele>130.0</ele><time>2026-03-28T09:53:41Z</time></trkpt><trkpt lat="44.04909848378347" lon="12.367959279954688"><ele>130.71428571428572</ele><time>2026-03-28T09:53:46Z</time></trkpt><trkpt lat="44.04915437174857" lon="12.36801915331662"><ele>131.42857142857144</ele><time>2026-03-28T09:53:51Z</time></trkpt><trkpt lat="44.049209210119564" lon="12.36806843366712"><ele>132.14285714285714</ele><time>2026-03-28T09:53:56Z</time></trkpt><trkpt lat="44.04926908853636" lon="12.368123560508497"><ele>132.85714285714286</ele><time>2026-03-28T09:54:01Z</time></trkpt><trkpt lat="44.04932101314885" lon="12.368173547861398"><ele>133.57142857142856</ele><time>2026-03-28T09:54:05Z</time></trkpt><trkpt lat="44.04937350566198" lon="12.368226343142364"><ele>134.28571428571428</ele><time>2026-03-28T09:54:10Z</time></trkpt><trkpt lat="44.04942944233098" lon="12.36828359087368"><ele>135.0</ele><time>2026-03-28T09:54:15Z</time></trkpt><trkpt lat="44.04947365826298" lon="12.36836204428174"><ele>136.14285714285714</ele><time>2026-03-28T09:54:21Z</time></trkpt><trkpt lat="44.04950872303262" lon="12.368460260944193"><ele>137.28571428571428</ele><time>2026-03-28T09:54:27Z</time></trkpt><trkpt lat="44.04950863775166" lon="12.368547957051577"><ele>138.42857142857142</ele><time>2026-03-28T09:54:32Z</time></trkpt><trkpt lat="44.04948787562542" lon="12.36864000616486"><ele>139.57142857142856</ele><time>2026-03-28T09:54:38Z</time></trkpt><trkpt lat="44.049468325700985" lon="12.368723687590215"><ele>140.71428571428572</ele><time>2026-03-28T09:54:43Z</time></trkpt><trkpt lat="44.049444990192725" lon="12.368806873889556"><ele>141.85714285714283</ele><time>2026-03-28T09:54:48Z</time></trkpt><trkpt lat="44.0494098142899" lon="12.36889688428961"><ele>143.0</ele><time>2026-03-28T09:54:54Z</time></trkpt><trkpt lat="44.04940230015988" lon="12.368984549674561"><ele>143.99999999999997</ele><time>2026-03-28T09:54:59Z</time></trkpt><trkpt lat="44.04940365278695" lon="12.369079974270266"><ele>145.0</ele><time>2026-03-28T09:55:04Z</time></trkpt><trkpt lat="44.04939664159353" lon="12.36917988189864"><ele>146.0</ele><time>2026-03-28T09:55:09Z</time></trkpt><trkpt lat="44.0494027144187" lon="12.36929081140224"><ele>147.0</ele><time>2026-03-28T09:55:15Z</time></trkpt><trkpt lat="44.04939917250913" lon="12.369378388497191"><ele>148.0</ele><time>2026-03-28T09:55:20Z</time></trkpt><trkpt lat="44.049391601265874" lon="12.369476164539506"><ele>148.99999999999997</ele><time>2026-03-28T09:55:25Z</time></trkpt><trkpt lat="44.049387430830244" lon="12.369567595393715"><ele>150.0</ele><time>2026-03-28T09:55:29Z</time></trkpt><trkpt lat="44.04938233492075" lon="12.369673260052735"><ele>151.33333333333334</ele><time>2026-03-28T09:55:35Z</time></trkpt><trkpt lat="44.049377677443665" lon="12.369764526741287"><ele>152.66666666666666</ele><time>2026-03-28T09:55:38Z</time></trkpt><trkpt lat="44.04937606914284" lon="12.369859786360315"><ele>154.0</ele><time>2026-03-28T09:55:41Z</time></trkpt><trkpt lat="44.04937513393951" lon="12.36996609535792"><ele>155.33333333333331</ele><time>2026-03-28T09:55:44Z</time></trkpt><trkpt lat="44.0493729801338" lon="12.370082935580054"><ele>156.66666666666666</ele><time>2026-03-28T09:55:47Z</time></trkpt><trkpt lat="44.04936997632897" lon="12.370207679647"><ele>158.0</ele><time>2026-03-28T09:55:50Z</time></trkpt><trkpt lat="44.049364681857334" lon="12.370329617275942"><ele>158.0</ele><time>2026-03-28T09:55:53Z</time></trkpt><trkpt lat="44.04936495913793" lon="12.370443488330187"><ele>158.0</ele><time>2026-03-28T09:55:56Z</time></trkpt><trkpt lat="44.04936397591469" lon="12.3705480587606"><ele>158.0</ele><time>2026-03-28T09:55:59Z</time></trkpt><trkpt lat="44.04935593938065" lon="12.370649119959248"><ele>158.0</ele><time>2026-03-28T09:56:02Z</time></trkpt><trkpt lat="44.04935447905577" lon="12.370748699349924"><ele>158.0</ele><time>2026-03-28T09:56:05Z</time></trkpt><trkpt lat="44.04935306690536" lon="12.370845318371478"><ele>158.0</ele><time>2026-03-28T09:56:08Z</time></trkpt><trkpt lat="44.0493514087585" lon="12.37096045944204"><ele>159.00000000000003</ele><time>2026-03-28T09:56:12Z</time></trkpt><trkpt lat="44.0493538675514" lon="12.37105010276229"><ele>160.0</ele><time>2026-03-28T09:56:15Z</time></trkpt><trkpt lat="44.04935884115944" lon="12.371147245952741"><ele>161.0</ele><time>2026-03-28T09:56:18Z</time></trkpt><trkpt lat="44.04934934979504" lon="12.371240982719575"><ele>162.0</ele><time>2026-03-28T09:56:22Z</time></trkpt><trkpt lat="44.04929213406045" lon="12.371278817993165"><ele>163.0</ele><time>2026-03-28T09:56:26Z</time></trkpt><trkpt lat="44.0492273168552" lon="12.371225369397102"><ele>164.00000000000003</ele><time>2026-03-28T09:56:28Z</time></trkpt><trkpt lat="44.04915641997759" lon="12.371201988824104"><ele>165.0</ele><time>2026-03-28T09:56:30Z</time></trkpt><trkpt lat="44.04908798267304" lon="12.371178997972093"><ele>165.5</ele><time>2026-03-28T09:56:32Z</time></trkpt><trkpt lat="44.049012826396556" lon="12.371159614491399"><ele>166.0</ele><time>2026-03-28T09:56:34Z</time></trkpt><trkpt lat="44.0489300055892" lon="12.371148559230631"><ele>166.5</ele><time>2026-03-28T09:56:36Z</time></trkpt><trkpt lat="44.04884952023118" lon="12.371139364148538"><ele>167.0</ele><time>2026-03-28T09:56:38Z</time></trkpt><trkpt lat="44.048759461107885" lon="12.371128060619448"><ele>167.5</ele><time>2026-03-28T09:56:40Z</time></trkpt><trkpt lat="44.04866215309676" lon="12.371114758825051"><ele>168.0</ele><time>2026-03-28T09:56:42Z</time></trkpt><trkpt lat="44.048580092194584" lon="12.37110762878607"><ele>168.0</ele><time>2026-03-28T09:56:44Z</time></trkpt><trkpt lat="44.048500499221184" lon="12.371098250811816"><ele>168.0</ele><time>2026-03-28T09:56:46Z</time></trkpt><trkpt lat="44.048424986771884" lon="12.371095342627111"><ele>168.0</ele><time>2026-03-28T09:56:48Z</time></trkpt><trkpt lat="44.04836130259733" lon="12.371090515439995"><ele>168.0</ele><time>2026-03-28T09:56:50Z</time></trkpt><trkpt lat="44.04829780216972" lon="12.371085377536556"><ele>168.0</ele><time>2026-03-28T09:56:52Z</time></trkpt><trkpt lat="44.048204749647674" lon="12.371085184242913"><ele>168.0</ele><time>2026-03-28T09:56:55Z</time></trkpt><trkpt lat="44.04811027684446" lon="12.371085980799284"><ele>168.28571428571428</ele><time>2026-03-28T09:56:58Z</time></trkpt><trkpt lat="44.04804552118902" lon="12.371083045000333"><ele>168.57142857142856</ele><time>2026-03-28T09:57:00Z</time></trkpt><trkpt lat="44.04797765785604" lon="12.371076306538292"><ele>168.85714285714286</ele><time>2026-03-28T09:57:02Z</time></trkpt><trkpt lat="44.04790919911349" lon="12.371082233933846"><ele>169.14285714285714</ele><time>2026-03-28T09:57:04Z</time></trkpt><trkpt lat="44.04783891727789" lon="12.371081120081136"><ele>169.42857142857142</ele><time>2026-03-28T09:57:06Z</time></trkpt><trkpt lat="44.04776848159596" lon="12.371054591710996"><ele>169.71428571428572</ele><time>2026-03-28T09:57:08Z</time></trkpt><trkpt lat="44.047697536347236" lon="12.371058075398876"><ele>170.0</ele><time>2026-03-28T09:57:10Z</time></trkpt><trkpt lat="44.0476288339601" lon="12.37104531672673"><ele>170.0</ele><time>2026-03-28T09:57:12Z</time></trkpt><trkpt lat="44.04755403670956" lon="12.37102686534544"><ele>170.0</ele><time>2026-03-28T09:57:14Z</time></trkpt><trkpt lat="44.0474726563168" lon="12.371021256266744"><ele>170.0</ele><time>2026-03-28T09:57:16Z</time></trkpt><trkpt lat="44.04738685741111" lon="12.371015090580146"><ele>170.0</ele><time>2026-03-28T09:57:18Z</time></trkpt><trkpt lat="44.047299061461345" lon="12.371014668628376"><ele>170.0</ele><time>2026-03-28T09:57:20Z</time></trkpt><trkpt lat="44.047210944601076" lon="12.37103143536292"><ele>170.0</ele><time>2026-03-28T09:57:22Z</time></trkpt><trkpt lat="44.04712658623402" lon="12.37104216555096"><ele>170.0</ele><time>2026-03-28T09:57:24Z</time></trkpt><trkpt lat="44.0470338754728" lon="12.37107148316082"><ele>170.0</ele><time>2026-03-28T09:57:26Z</time></trkpt><trkpt lat="44.04693909547936" lon="12.371094060996603"><ele>170.0</ele><time>2026-03-28T09:57:28Z</time></trkpt><trkpt lat="44.04684594433786" lon="12.371119587402712"><ele>170.0</ele><time>2026-03-28T09:57:30Z</time></trkpt><trkpt lat="44.04675043938254" lon="12.371139172166655"><ele>170.0</ele><time>2026-03-28T09:57:32Z</time></trkpt><trkpt lat="44.046655284698595" lon="12.371158795188718"><ele>169.2</ele><time>2026-03-28T09:57:34Z</time></trkpt><trkpt lat="44.046559740362454" lon="12.371185407120379"><ele>168.4</ele><time>2026-03-28T09:57:36Z</time></trkpt><trkpt lat="44.04647187243554" lon="12.371195481630602"><ele>167.60000000000002</ele><time>2026-03-28T09:57:38Z</time></trkpt><trkpt lat="44.04638040948359" lon="12.371213901217637"><ele>166.8</ele><time>2026-03-28T09:57:40Z</time></trkpt><trkpt lat="44.04628906333683" lon="12.37123504283846"><ele>166.0</ele><time>2026-03-28T09:57:42Z</time></trkpt><trkpt lat="44.04619614464602" lon="12.371263092766494"><ele>166.0</ele><time>2026-03-28T09:57:44Z</time></trkpt><trkpt lat="44.046103528336324" lon="12.371285067060272"><ele>166.0</ele><time>2026-03-28T09:57:46Z</time></trkpt><trkpt lat="44.04600669550145" lon="12.37131856511356"><ele>166.0</ele><time>2026-03-28T09:57:48Z</time></trkpt><trkpt lat="44.04591393068996" lon="12.37136098917121"><ele>166.0</ele><time>2026-03-28T09:57:50Z</time></trkpt><trkpt lat="44.04582939210471" lon="12.3713988462506"><ele>166.0</ele><time>2026-03-28T09:57:52Z</time></trkpt><trkpt lat="44.04573574993986" lon="12.371428240442865"><ele>167.0</ele><time>2026-03-28T09:57:54Z</time></trkpt><trkpt lat="44.0456541136563" lon="12.371456399695624"><ele>168.0</ele><time>2026-03-28T09:57:56Z</time></trkpt><trkpt lat="44.045582551659535" lon="12.371483888384516"><ele>169.0</ele><time>2026-03-28T09:57:58Z</time></trkpt><trkpt lat="44.04551015393467" lon="12.371516703624973"><ele>170.0</ele><time>2026-03-28T09:58:00Z</time></trkpt><trkpt lat="44.045442708847865" lon="12.371542166285355"><ele>171.0</ele><time>2026-03-28T09:58:02Z</time></trkpt><trkpt lat="44.0453805732005" lon="12.371567153373716"><ele>172.0</ele><time>2026-03-28T09:58:04Z</time></trkpt><trkpt lat="44.04528999219752" lon="12.371594530995774"><ele>172.0</ele><time>2026-03-28T09:58:07Z</time></trkpt><trkpt lat="44.04519814246548" lon="12.371619497243056"><ele>172.0</ele><time>2026-03-28T09:58:10Z</time></trkpt><trkpt lat="44.04511526777284" lon="12.371636329563303"><ele>172.0</ele><time>2026-03-28T09:58:13Z</time></trkpt><trkpt lat="44.04503129649219" lon="12.371649761734613"><ele>172.0</ele><time>2026-03-28T09:58:16Z</time></trkpt><trkpt lat="44.04495580904593" lon="12.371653729302766"><ele>172.0</ele><time>2026-03-28T09:58:19Z</time></trkpt><trkpt lat="44.044873847990836" lon="12.371651391936556"><ele>172.0</ele><time>2026-03-28T09:58:22Z</time></trkpt><trkpt lat="44.04479730321841" lon="12.371647463870632"><ele>172.33333333333334</ele><time>2026-03-28T09:58:25Z</time></trkpt><trkpt lat="44.04471321293245" lon="12.371646628906584"><ele>172.66666666666669</ele><time>2026-03-28T09:58:28Z</time></trkpt><trkpt lat="44.044639918868455" lon="12.371649134475431"><ele>173.0</ele><time>2026-03-28T09:58:31Z</time></trkpt><trkpt lat="44.04455748690808" lon="12.371648897821094"><ele>173.33333333333334</ele><time>2026-03-28T09:58:34Z</time></trkpt><trkpt lat="44.044482424711106" lon="12.371650635280426"><ele>173.66666666666666</ele><time>2026-03-28T09:58:37Z</time></trkpt><trkpt lat="44.044402350082834" lon="12.371676844396081"><ele>174.0</ele><time>2026-03-28T09:58:40Z</time></trkpt><trkpt lat="44.044323056552045" lon="12.371708985955205"><ele>174.0</ele><time>2026-03-28T09:58:43Z</time></trkpt><trkpt lat="44.044253189362955" lon="12.371755881775089"><ele>174.0</ele><time>2026-03-28T09:58:46Z</time></trkpt><trkpt lat="44.04418103589211" lon="12.371807163504519"><ele>174.0</ele><time>2026-03-28T09:58:49Z</time></trkpt><trkpt lat="44.044114361183055" lon="12.371872250626014"><ele>174.0</ele><time>2026-03-28T09:58:52Z</time></trkpt><trkpt lat="44.044046317902826" lon="12.371935834790904"><ele>174.0</ele><time>2026-03-28T09:58:55Z</time></trkpt><trkpt lat="44.043970221874126" lon="12.372006910109025"><ele>174.0</ele><time>2026-03-28T09:58:58Z</time></trkpt><trkpt lat="44.04390045075018" lon="12.372076356976994"><ele>173.83333333333334</ele><time>2026-03-28T09:59:01Z</time></trkpt><trkpt lat="44.04382715666711" lon="12.372131930082318"><ele>173.66666666666666</ele><time>2026-03-28T09:59:04Z</time></trkpt><trkpt lat="44.0437516824899" lon="12.372182214348175"><ele>173.5</ele><time>2026-03-28T09:59:07Z</time></trkpt><trkpt lat="44.04367156446219" lon="12.372228770581348"><ele>173.33333333333331</ele><time>2026-03-28T09:59:10Z</time></trkpt><trkpt lat="44.04359019908166" lon="12.372254759513487"><ele>173.16666666666666</ele><time>2026-03-28T09:59:13Z</time></trkpt><trkpt lat="44.043509738064195" lon="12.372268719716436"><ele>173.0</ele><time>2026-03-28T09:59:16Z</time></trkpt><trkpt lat="44.04343076591281" lon="12.37226737634516"><ele>175.5</ele><time>2026-03-28T09:59:19Z</time></trkpt><trkpt lat="44.04334776672835" lon="12.372272739776504"><ele>178.0</ele><time>2026-03-28T09:59:22Z</time></trkpt><trkpt lat="44.04325510661121" lon="12.37226905521036"><ele>180.5</ele><time>2026-03-28T09:59:25Z</time></trkpt><trkpt lat="44.043169497134244" lon="12.372255623957834"><ele>183.0</ele><time>2026-03-28T09:59:28Z</time></trkpt><trkpt lat="44.04308112471906" lon="12.372244920689802"><ele>185.5</ele><time>2026-03-28T09:59:31Z</time></trkpt><trkpt lat="44.042991787934476" lon="12.37222981214675"><ele>188.0</ele><time>2026-03-28T09:59:34Z</time></trkpt><trkpt lat="44.042901109745465" lon="12.372201419330242"><ele>187.33333333333331</ele><time>2026-03-28T09:59:37Z</time></trkpt><trkpt lat="44.04281719451443" lon="12.37217782371244"><ele>186.66666666666666</ele><time>2026-03-28T09:59:40Z</time></trkpt><trkpt lat="44.04273531995218" lon="12.372152071262867"><ele>186.0</ele><time>2026-03-28T09:59:43Z</time></trkpt><trkpt lat="44.04265562553315" lon="12.37212545430917"><ele>185.33333333333334</ele><time>2026-03-28T09:59:46Z</time></trkpt><trkpt lat="44.0425884471617" lon="12.372089561130686"><ele>184.66666666666669</ele><time>2026-03-28T09:59:49Z</time></trkpt><trkpt lat="44.042517809645865" lon="12.372059943920215"><ele>184.0</ele><time>2026-03-28T09:59:52Z</time></trkpt><trkpt lat="44.04245710307086" lon="12.372025691227732"><ele>184.0</ele><time>2026-03-28T09:59:55Z</time></trkpt><trkpt lat="44.04238930186944" lon="12.371991450129553"><ele>184.0</ele><time>2026-03-28T09:59:58Z</time></trkpt><trkpt lat="44.04232041251118" lon="12.371953730451045"><ele>184.0</ele><time>2026-03-28T10:00:01Z</time></trkpt><trkpt lat="44.04225250648238" lon="12.371934646414932"><ele>184.0</ele><time>2026-03-28T10:00:44Z</time></trkpt><trkpt lat="44.04216552115872" lon="12.371923290727224"><ele>184.0</ele><time>2026-03-28T10:00:48Z</time></trkpt><trkpt lat="44.042102303329884" lon="12.371881238143628"><ele>184.0</ele><time>2026-03-28T10:00:50Z</time></trkpt><trkpt lat="44.04202552565734" lon="12.371851394549559"><ele>184.0</ele><time>2026-03-28T10:00:52Z</time></trkpt><trkpt lat="44.04194442357139" lon="12.371804542859492"><ele>184.0</ele><time>2026-03-28T10:00:54Z</time></trkpt><trkpt lat="44.04184970399474" lon="12.371760623753017"><ele>184.0</ele><time>2026-03-28T10:00:56Z</time></trkpt><trkpt lat="44.041763236132255" lon="12.3716721826861"><ele>184.0</ele><time>2026-03-28T10:00:58Z</time></trkpt><trkpt lat="44.04167963840418" lon="12.37156645449477"><ele>184.0</ele><time>2026-03-28T10:01:00Z</time></trkpt><trkpt lat="44.041613093773314" lon="12.371423616882359"><ele>182.14285714285714</ele><time>2026-03-28T10:01:02Z</time></trkpt><trkpt lat="44.04159497678261" lon="12.371338270867367"><ele>180.28571428571428</ele><time>2026-03-28T10:01:03Z</time></trkpt><trkpt lat="44.04158109427313" lon="12.371249542533915"><ele>178.42857142857142</ele><time>2026-03-28T10:01:04Z</time></trkpt><trkpt lat="44.0415705950655" lon="12.371154719279074"><ele>176.57142857142856</ele><time>2026-03-28T10:01:05.001Z</time></trkpt><trkpt lat="44.04156940580477" lon="12.371059863910284"><ele>174.71428571428572</ele><time>2026-03-28T10:01:06.001Z</time></trkpt><trkpt lat="44.04156219075177" lon="12.370968057829163"><ele>172.85714285714283</ele><time>2026-03-28T10:01:07.001Z</time></trkpt><trkpt lat="44.041551739450796" lon="12.370876770933704"><ele>171.0</ele><time>2026-03-28T10:01:08.001Z</time></trkpt><trkpt lat="44.04154055031575" lon="12.370784768137595"><ele>170.99999999999997</ele><time>2026-03-28T10:01:09.001Z</time></trkpt><trkpt lat="44.041519326149306" lon="12.370695421121246"><ele>171.0</ele><time>2026-03-28T10:01:10.001Z</time></trkpt><trkpt lat="44.04148410234562" lon="12.370608725570708"><ele>171.0</ele><time>2026-03-28T10:01:11.001Z</time></trkpt><trkpt lat="44.041435946168086" lon="12.370534966795475"><ele>171.0</ele><time>2026-03-28T10:01:12.001Z</time></trkpt><trkpt lat="44.041385823840805" lon="12.370462551653178"><ele>171.0</ele><time>2026-03-28T10:01:13.001Z</time></trkpt><trkpt lat="44.0413401086318" lon="12.370387289220776"><ele>170.99999999999997</ele><time>2026-03-28T10:01:14.001Z</time></trkpt><trkpt lat="44.041289771757214" lon="12.370314610943511"><ele>171.0</ele><time>2026-03-28T10:01:15.001Z</time></trkpt><trkpt lat="44.04123816650329" lon="12.370245917834652"><ele>172.28571428571428</ele><time>2026-03-28T10:01:16.001Z</time></trkpt><trkpt lat="44.04118754176812" lon="12.370174709836038"><ele>173.57142857142856</ele><time>2026-03-28T10:01:17.001Z</time></trkpt><trkpt lat="44.041138456052124" lon="12.370102613718952"><ele>174.85714285714283</ele><time>2026-03-28T10:01:18Z</time></trkpt><trkpt lat="44.04108712414404" lon="12.370032127327029"><ele>176.14285714285714</ele><time>2026-03-28T10:01:19Z</time></trkpt><trkpt lat="44.04103836191943" lon="12.369964159750154"><ele>177.42857142857144</ele><time>2026-03-28T10:01:20Z</time></trkpt><trkpt lat="44.04098514072837" lon="12.369897279811116"><ele>178.7142857142857</ele><time>2026-03-28T10:01:21Z</time></trkpt><trkpt lat="44.040930815788485" lon="12.369837505731986"><ele>180.0</ele><time>2026-03-28T10:01:22Z</time></trkpt><trkpt lat="44.040878206310516" lon="12.3697866600357"><ele>181.25</ele><time>2026-03-28T10:01:23Z</time></trkpt><trkpt lat="44.040778764760994" lon="12.369688243359763"><ele>182.5</ele><time>2026-03-28T10:01:25Z</time></trkpt><trkpt lat="44.04067473473925" lon="12.369610107839424"><ele>183.75</ele><time>2026-03-28T10:01:27Z</time></trkpt><trkpt lat="44.0405769718398" lon="12.369539374455833"><ele>185.0</ele><time>2026-03-28T10:01:29Z</time></trkpt><trkpt lat="44.04048857123707" lon="12.369469994793947"><ele>185.0</ele><time>2026-03-28T10:01:31Z</time></trkpt><trkpt lat="44.04040417619839" lon="12.369412571199474"><ele>185.0</ele><time>2026-03-28T10:01:33Z</time></trkpt><trkpt lat="44.04033150093084" lon="12.369357912709285"><ele>185.0</ele><time>2026-03-28T10:01:35Z</time></trkpt><trkpt lat="44.04026474359179" lon="12.369315209153108"><ele>185.0</ele><time>2026-03-28T10:01:37Z</time></trkpt><trkpt lat="44.04019857803966" lon="12.369268481903896"><ele>185.0</ele><time>2026-03-28T10:01:39Z</time></trkpt><trkpt lat="44.04013673994572" lon="12.36922469328972"><ele>185.0</ele><time>2026-03-28T10:01:41Z</time></trkpt><trkpt lat="44.040077840878396" lon="12.369182830401142"><ele>185.0</ele><time>2026-03-28T10:01:43Z</time></trkpt><trkpt lat="44.040017802181346" lon="12.369147898653376"><ele>185.0</ele><time>2026-03-28T10:01:45Z</time></trkpt><trkpt lat="44.03993602162913" lon="12.369092121806508"><ele>185.0</ele><time>2026-03-28T10:01:48Z</time></trkpt><trkpt lat="44.03985548837512" lon="12.36903291662057"><ele>185.0</ele><time>2026-03-28T10:01:51Z</time></trkpt><trkpt lat="44.03978215741792" lon="12.36895651852907"><ele>185.0</ele><time>2026-03-28T10:01:54Z</time></trkpt><trkpt lat="44.03972357347183" lon="12.36887239431884"><ele>185.0</ele><time>2026-03-28T10:01:57Z</time></trkpt><trkpt lat="44.03966901365701" lon="12.368800033369482"><ele>184.99999999999997</ele><time>2026-03-28T10:02:00Z</time></trkpt><trkpt lat="44.03962211096107" lon="12.368730326098383"><ele>185.0</ele><time>2026-03-28T10:02:03Z</time></trkpt><trkpt lat="44.03958575299411" lon="12.368649610724422"><ele>185.0</ele><time>2026-03-28T10:02:06Z</time></trkpt><trkpt lat="44.03955474699899" lon="12.368570254320632"><ele>185.0</ele><time>2026-03-28T10:02:09Z</time></trkpt><trkpt lat="44.039529565277626" lon="12.36848700253461"><ele>185.0</ele><time>2026-03-28T10:02:12Z</time></trkpt><trkpt lat="44.03949771627864" lon="12.368408318268703"><ele>184.99999999999997</ele><time>2026-03-28T10:02:15Z</time></trkpt><trkpt lat="44.039473621594496" lon="12.368320526818051"><ele>185.0</ele><time>2026-03-28T10:02:18Z</time></trkpt><trkpt lat="44.03944797190133" lon="12.368236617297843"><ele>184.99999999999997</ele><time>2026-03-28T10:02:21Z</time></trkpt><trkpt lat="44.039412275005354" lon="12.368132249067475"><ele>185.0</ele><time>2026-03-28T10:02:25Z</time></trkpt><trkpt lat="44.03938476137936" lon="12.368048749631988"><ele>185.0</ele><time>2026-03-28T10:02:28Z</time></trkpt><trkpt lat="44.039353812863475" lon="12.367967974100166"><ele>185.0</ele><time>2026-03-28T10:02:31Z</time></trkpt><trkpt lat="44.039324503729645" lon="12.367889841545956"><ele>185.0</ele><time>2026-03-28T10:02:34Z</time></trkpt><trkpt lat="44.039299118963235" lon="12.367808586303957"><ele>184.99999999999997</ele><time>2026-03-28T10:02:37Z</time></trkpt><trkpt lat="44.03926751596822" lon="12.36773243597661"><ele>185.0</ele><time>2026-03-28T10:02:40Z</time></trkpt><trkpt lat="44.03923594641642" lon="12.367630039390571"><ele>184.99999999999997</ele><time>2026-03-28T10:02:44Z</time></trkpt><trkpt lat="44.03920787825279" lon="12.367543290918423"><ele>185.0</ele><time>2026-03-28T10:02:47.001Z</time></trkpt><trkpt lat="44.039178243083065" lon="12.367461647052094"><ele>185.0</ele><time>2026-03-28T10:02:50.001Z</time></trkpt><trkpt lat="44.039157971082524" lon="12.367375565680012"><ele>185.0</ele><time>2026-03-28T10:02:53.001Z</time></trkpt><trkpt lat="44.03914379402529" lon="12.367288995945264"><ele>185.0</ele><time>2026-03-28T10:02:56.001Z</time></trkpt><trkpt lat="44.03911206757303" lon="12.36718160375086"><ele>184.99999999999997</ele><time>2026-03-28T10:03:00.001Z</time></trkpt><trkpt lat="44.03909754971681" lon="12.367095137689676"><ele>185.0</ele><time>2026-03-28T10:03:03.001Z</time></trkpt><trkpt lat="44.03907931018141" lon="12.367006232342547"><ele>184.99999999999997</ele><time>2026-03-28T10:03:06.001Z</time></trkpt><trkpt lat="44.039051188295545" lon="12.366924035769921"><ele>185.0</ele><time>2026-03-28T10:03:09.001Z</time></trkpt><trkpt lat="44.039029624445675" lon="12.366830810551711"><ele>185.0</ele><time>2026-03-28T10:03:12.001Z</time></trkpt><trkpt lat="44.03900457954689" lon="12.366748028269853"><ele>185.0</ele><time>2026-03-28T10:03:15.001Z</time></trkpt><trkpt lat="44.03897545278121" lon="12.366660390270358"><ele>185.0</ele><time>2026-03-28T10:03:18.001Z</time></trkpt><trkpt lat="44.038948010749756" lon="12.366577770971428"><ele>184.99999999999997</ele><time>2026-03-28T10:03:21.001Z</time></trkpt><trkpt lat="44.038910263807516" lon="12.366494869731934"><ele>185.0</ele><time>2026-03-28T10:03:24.001Z</time></trkpt><trkpt lat="44.0388764572485" lon="12.366410428200757"><ele>187.14285714285714</ele><time>2026-03-28T10:03:27.001Z</time></trkpt><trkpt lat="44.03883675372104" lon="12.366324278788257"><ele>189.28571428571428</ele><time>2026-03-28T10:03:30.001Z</time></trkpt><trkpt lat="44.03880291798683" lon="12.366233428125543"><ele>191.42857142857144</ele><time>2026-03-28T10:03:33.001Z</time></trkpt><trkpt lat="44.038764018842016" lon="12.366146795284575"><ele>193.57142857142856</ele><time>2026-03-28T10:03:36Z</time></trkpt><trkpt lat="44.038725676992975" lon="12.366063166879638"><ele>195.71428571428572</ele><time>2026-03-28T10:03:39Z</time></trkpt><trkpt lat="44.038698018190495" lon="12.365973881483617"><ele>197.85714285714286</ele><time>2026-03-28T10:03:42Z</time></trkpt><trkpt lat="44.03868728598671" lon="12.365875530448662"><ele>200.0</ele><time>2026-03-28T10:03:45Z</time></trkpt><trkpt lat="44.038705410884006" lon="12.365787653295436"><ele>200.00000000000003</ele><time>2026-03-28T10:03:48Z</time></trkpt><trkpt lat="44.03877108837804" lon="12.365715728017506"><ele>200.0</ele><time>2026-03-28T10:03:52Z</time></trkpt><trkpt lat="44.038848948603764" lon="12.365724207677642"><ele>200.0</ele><time>2026-03-28T10:03:56Z</time></trkpt><trkpt lat="44.038902325153146" lon="12.365774435918707"><ele>200.0</ele><time>2026-03-28T10:03:59Z</time></trkpt><trkpt lat="44.03895269453543" lon="12.365833969911971"><ele>200.0</ele><time>2026-03-28T10:04:02Z</time></trkpt><trkpt lat="44.03900373139609" lon="12.365891770101065"><ele>200.00000000000003</ele><time>2026-03-28T10:04:05Z</time></trkpt><trkpt lat="44.03906885536269" lon="12.365950891318523"><ele>200.0</ele><time>2026-03-28T10:04:09Z</time></trkpt><trkpt lat="44.03914043899276" lon="12.365951495272835"><ele>201.14285714285717</ele><time>2026-03-28T10:04:12Z</time></trkpt><trkpt lat="44.03920113547261" lon="12.36591663111417"><ele>202.28571428571428</ele><time>2026-03-28T10:04:15Z</time></trkpt><trkpt lat="44.0392471457798" lon="12.365850669034716"><ele>203.42857142857144</ele><time>2026-03-28T10:04:18Z</time></trkpt><trkpt lat="44.03926581332364" lon="12.365766963384214"><ele>204.57142857142858</ele><time>2026-03-28T10:04:21Z</time></trkpt><trkpt lat="44.039267762088286" lon="12.365663057817926"><ele>205.71428571428572</ele><time>2026-03-28T10:04:25.001Z</time></trkpt><trkpt lat="44.03924548804043" lon="12.365568985898328"><ele>206.85714285714286</ele><time>2026-03-28T10:04:29.001Z</time></trkpt><trkpt lat="44.039206859958504" lon="12.36548441065445"><ele>208.0</ele><time>2026-03-28T10:04:33.001Z</time></trkpt><trkpt lat="44.03915256053959" lon="12.36540791569084"><ele>209.7142857142857</ele><time>2026-03-28T10:04:37.001Z</time></trkpt><trkpt lat="44.03908575564793" lon="12.365370989014313"><ele>211.42857142857144</ele><time>2026-03-28T10:04:40.001Z</time></trkpt><trkpt lat="44.03902101985156" lon="12.365328521584885"><ele>213.14285714285714</ele><time>2026-03-28T10:04:43.001Z</time></trkpt><trkpt lat="44.038960812441545" lon="12.365287333715347"><ele>214.85714285714283</ele><time>2026-03-28T10:04:46.001Z</time></trkpt><trkpt lat="44.03889256163881" lon="12.365245303435545"><ele>216.57142857142856</ele><time>2026-03-28T10:04:49.001Z</time></trkpt><trkpt lat="44.038836666921" lon="12.365202519967847"><ele>218.28571428571428</ele><time>2026-03-28T10:04:52.001Z</time></trkpt><trkpt lat="44.03876798487964" lon="12.365148883444874"><ele>220.0</ele><time>2026-03-28T10:04:56.001Z</time></trkpt><trkpt lat="44.03871201834688" lon="12.365100901539126"><ele>219.99999999999997</ele><time>2026-03-28T10:04:59.001Z</time></trkpt><trkpt lat="44.03865899571768" lon="12.365045351562335"><ele>220.0</ele><time>2026-03-28T10:05:02.001Z</time></trkpt><trkpt lat="44.03860239997627" lon="12.36498312092094"><ele>220.0</ele><time>2026-03-28T10:05:05.001Z</time></trkpt><trkpt lat="44.03855385713578" lon="12.364927002115111"><ele>220.0</ele><time>2026-03-28T10:05:08.001Z</time></trkpt><trkpt lat="44.03849551952641" lon="12.36485678972086"><ele>220.0</ele><time>2026-03-28T10:05:12.001Z</time></trkpt><trkpt lat="44.03843977204528" lon="12.364781898597913"><ele>219.99999999999997</ele><time>2026-03-28T10:05:16.001Z</time></trkpt><trkpt lat="44.03839081632495" lon="12.364697291998022"><ele>220.0</ele><time>2026-03-28T10:05:20.001Z</time></trkpt><trkpt lat="44.03833924232488" lon="12.3646256833864"><ele>221.57142857142856</ele><time>2026-03-28T10:05:24.001Z</time></trkpt><trkpt lat="44.038304711279686" lon="12.364541840557468"><ele>223.14285714285714</ele><time>2026-03-28T10:05:28.001Z</time></trkpt><trkpt lat="44.03825798549246" lon="12.364482490557553"><ele>224.71428571428572</ele><time>2026-03-28T10:05:54Z</time></trkpt><trkpt lat="44.03819957017599" lon="12.364405824432989"><ele>226.28571428571428</ele><time>2026-03-28T10:05:58Z</time></trkpt><trkpt lat="44.038138747813235" lon="12.36432774109405"><ele>227.85714285714286</ele><time>2026-03-28T10:06:02Z</time></trkpt><trkpt lat="44.03808295469857" lon="12.364264461402225"><ele>229.42857142857142</ele><time>2026-03-28T10:06:06Z</time></trkpt><trkpt lat="44.03801829265474" lon="12.364215851690696"><ele>231.0</ele><time>2026-03-28T10:06:10Z</time></trkpt><trkpt lat="44.03794554812469" lon="12.364183790448193"><ele>231.0</ele><time>2026-03-28T10:06:14Z</time></trkpt><trkpt lat="44.03786606564089" lon="12.364151317245431"><ele>231.0</ele><time>2026-03-28T10:06:18Z</time></trkpt><trkpt lat="44.0377842539" lon="12.364143159172203"><ele>231.0</ele><time>2026-03-28T10:06:22Z</time></trkpt><trkpt lat="44.0377166470674" lon="12.36413935554734"><ele>231.0</ele><time>2026-03-28T10:06:26Z</time></trkpt><trkpt lat="44.03764144737604" lon="12.364141134279782"><ele>231.0</ele><time>2026-03-28T10:06:30Z</time></trkpt><trkpt lat="44.03757710602474" lon="12.36414178997272"><ele>231.0</ele><time>2026-03-28T10:06:33Z</time></trkpt><trkpt lat="44.03750896291594" lon="12.364146877771073"><ele>231.0</ele><time>2026-03-28T10:06:36Z</time></trkpt><trkpt lat="44.037434337229236" lon="12.3641430842693"><ele>231.57142857142856</ele><time>2026-03-28T10:06:39Z</time></trkpt><trkpt lat="44.03736535415773" lon="12.364133544713678"><ele>232.14285714285714</ele><time>2026-03-28T10:06:42Z</time></trkpt><trkpt lat="44.03729534246862" lon="12.364114037766017"><ele>232.71428571428572</ele><time>2026-03-28T10:06:45Z</time></trkpt><trkpt lat="44.03721729162017" lon="12.364086869179344"><ele>233.28571428571428</ele><time>2026-03-28T10:06:49Z</time></trkpt><trkpt lat="44.03714143823179" lon="12.364055415123808"><ele>233.85714285714283</ele><time>2026-03-28T10:06:53Z</time></trkpt><trkpt lat="44.03706663812779" lon="12.364025392507537"><ele>234.42857142857142</ele><time>2026-03-28T10:06:57Z</time></trkpt><trkpt lat="44.03700301210301" lon="12.364016250834158"><ele>235.0</ele><time>2026-03-28T10:07:00Z</time></trkpt><trkpt lat="44.036923914946584" lon="12.363985393914957"><ele>235.0</ele><time>2026-03-28T10:07:04Z</time></trkpt><trkpt lat="44.036858275884995" lon="12.363977204769585"><ele>234.99999999999997</ele><time>2026-03-28T10:07:07Z</time></trkpt><trkpt lat="44.03678807549538" lon="12.363963199792055"><ele>235.0</ele><time>2026-03-28T10:07:10Z</time></trkpt><trkpt lat="44.03671840937018" lon="12.36394695524159"><ele>235.0</ele><time>2026-03-28T10:07:13Z</time></trkpt><trkpt lat="44.03664816113725" lon="12.363942088362844"><ele>234.99999999999997</ele><time>2026-03-28T10:07:16Z</time></trkpt><trkpt lat="44.03658138968578" lon="12.363940147601127"><ele>235.0</ele><time>2026-03-28T10:07:19.001Z</time></trkpt><trkpt lat="44.036516044598294" lon="12.363936184081586"><ele>235.0</ele><time>2026-03-28T10:07:22.001Z</time></trkpt><trkpt lat="44.03644694189821" lon="12.363936800551128"><ele>236.85714285714283</ele><time>2026-03-28T10:07:25.001Z</time></trkpt><trkpt lat="44.036383132262344" lon="12.363934667782456"><ele>238.7142857142857</ele><time>2026-03-28T10:07:28.001Z</time></trkpt><trkpt lat="44.03631918047815" lon="12.363941512199"><ele>240.57142857142856</ele><time>2026-03-28T10:07:31.001Z</time></trkpt><trkpt lat="44.03623802930803" lon="12.36395663959823"><ele>242.42857142857144</ele><time>2026-03-28T10:07:35.001Z</time></trkpt><trkpt lat="44.03618121689049" lon="12.363995963869062"><ele>244.2857142857143</ele><time>2026-03-28T10:07:38Z</time></trkpt><trkpt lat="44.036116672052536" lon="12.364036553533017"><ele>246.14285714285717</ele><time>2026-03-28T10:07:41Z</time></trkpt><trkpt lat="44.03603895537444" lon="12.364065584329586"><ele>248.0</ele><time>2026-03-28T10:07:45Z</time></trkpt><trkpt lat="44.03596093834209" lon="12.364118716224707"><ele>248.0</ele><time>2026-03-28T10:07:49Z</time></trkpt><trkpt lat="44.03588423204687" lon="12.364152270459014"><ele>248.00000000000003</ele><time>2026-03-28T10:07:53Z</time></trkpt><trkpt lat="44.03582242390372" lon="12.364176738979555"><ele>248.0</ele><time>2026-03-28T10:07:56Z</time></trkpt><trkpt lat="44.0357605848401" lon="12.36419694243858"><ele>248.0</ele><time>2026-03-28T10:07:59Z</time></trkpt><trkpt lat="44.03568504258606" lon="12.36420496221834"><ele>248.00000000000003</ele><time>2026-03-28T10:08:02Z</time></trkpt><trkpt lat="44.0355959661757" lon="12.364201454725242"><ele>248.0</ele><time>2026-03-28T10:08:05Z</time></trkpt><trkpt lat="44.03552825720008" lon="12.364196936907664"><ele>248.0</ele><time>2026-03-28T10:08:07Z</time></trkpt><trkpt lat="44.03546326865891" lon="12.364176257325294"><ele>247.83333333333334</ele><time>2026-03-28T10:08:09Z</time></trkpt><trkpt lat="44.03539846122841" lon="12.364144078980853"><ele>247.66666666666669</ele><time>2026-03-28T10:08:11Z</time></trkpt><trkpt lat="44.03531828443398" lon="12.364093040073772"><ele>247.5</ele><time>2026-03-28T10:08:13Z</time></trkpt><trkpt lat="44.035262546632865" lon="12.364021016415261"><ele>247.33333333333331</ele><time>2026-03-28T10:08:15Z</time></trkpt><trkpt lat="44.035214568902646" lon="12.363925273108002"><ele>247.16666666666666</ele><time>2026-03-28T10:08:17Z</time></trkpt><trkpt lat="44.03511587916709" lon="12.363911425453532"><ele>247.0</ele><time>2026-03-28T10:08:19Z</time></trkpt><trkpt lat="44.035012921102755" lon="12.363981778107219"><ele>244.33333333333331</ele><time>2026-03-28T10:08:21Z</time></trkpt><trkpt lat="44.0349002494583" lon="12.3640688992967"><ele>241.66666666666666</ele><time>2026-03-28T10:08:23Z</time></trkpt><trkpt lat="44.03483214120287" lon="12.364107560817185"><ele>239.0</ele><time>2026-03-28T10:08:24Z</time></trkpt><trkpt lat="44.0347610508209" lon="12.364158032277745"><ele>236.33333333333331</ele><time>2026-03-28T10:08:25Z</time></trkpt><trkpt lat="44.034689473525646" lon="12.364207426654664"><ele>233.66666666666666</ele><time>2026-03-28T10:08:26Z</time></trkpt><trkpt lat="44.03461150030297" lon="12.364254105298805"><ele>231.0</ele><time>2026-03-28T10:08:27Z</time></trkpt><trkpt lat="44.03453507000173" lon="12.364309765363325"><ele>231.0</ele><time>2026-03-28T10:08:28Z</time></trkpt><trkpt lat="44.034464338544396" lon="12.364379450371437"><ele>231.0</ele><time>2026-03-28T10:08:29Z</time></trkpt><trkpt lat="44.034407247178656" lon="12.364465711070867"><ele>231.0</ele><time>2026-03-28T10:08:30Z</time></trkpt><trkpt lat="44.034359805757525" lon="12.364573382012866"><ele>231.0</ele><time>2026-03-28T10:08:31Z</time></trkpt><trkpt lat="44.03432257332186" lon="12.364685100368837"><ele>231.0</ele><time>2026-03-28T10:08:32Z</time></trkpt><trkpt lat="44.034288768221145" lon="12.364806749286092"><ele>231.0</ele><time>2026-03-28T10:08:33Z</time></trkpt><trkpt lat="44.03424932108106" lon="12.364922733076485"><ele>232.20000000000002</ele><time>2026-03-28T10:08:34Z</time></trkpt><trkpt lat="44.03418856826656" lon="12.365031049234942"><ele>233.40000000000003</ele><time>2026-03-28T10:08:35Z</time></trkpt><trkpt lat="44.03412068761432" lon="12.365119275464277"><ele>234.6</ele><time>2026-03-28T10:08:36Z</time></trkpt><trkpt lat="44.03403937783815" lon="12.365196001011046"><ele>235.8</ele><time>2026-03-28T10:08:37Z</time></trkpt><trkpt lat="44.03396190731086" lon="12.365246393410267"><ele>237.0</ele><time>2026-03-28T10:08:38Z</time></trkpt><trkpt lat="44.033852733790205" lon="12.365316883622741"><ele>234.66666666666666</ele><time>2026-03-28T10:08:40Z</time></trkpt><trkpt lat="44.033792731959224" lon="12.365373358913445"><ele>232.33333333333331</ele><time>2026-03-28T10:08:41Z</time></trkpt><trkpt lat="44.03373558695313" lon="12.365433882389512"><ele>230.0</ele><time>2026-03-28T10:08:42Z</time></trkpt><trkpt lat="44.03368199804041" lon="12.365500847313017"><ele>227.66666666666666</ele><time>2026-03-28T10:08:43Z</time></trkpt><trkpt lat="44.033633156264365" lon="12.36563001954659"><ele>225.33333333333331</ele><time>2026-03-28T10:08:45Z</time></trkpt><trkpt lat="44.03362256339566" lon="12.365732299537422"><ele>223.0</ele><time>2026-03-28T10:08:48Z</time></trkpt><trkpt lat="44.03364607654905" lon="12.365821202959047"><ele>222.99999999999997</ele><time>2026-03-28T10:09:28Z</time></trkpt><trkpt lat="44.033691649071145" lon="12.36589523585844"><ele>223.0</ele><time>2026-03-28T10:09:32Z</time></trkpt><trkpt lat="44.0337280316245" lon="12.36597437328255"><ele>223.0</ele><time>2026-03-28T10:09:34Z</time></trkpt><trkpt lat="44.033791769223285" lon="12.3660520171085"><ele>223.0</ele><time>2026-03-28T10:09:36Z</time></trkpt><trkpt lat="44.03388836309756" lon="12.366136279716994"><ele>222.99999999999997</ele><time>2026-03-28T10:09:38Z</time></trkpt><trkpt lat="44.033943710592325" lon="12.36618060412946"><ele>223.0</ele><time>2026-03-28T10:09:39Z</time></trkpt><trkpt lat="44.034002898127525" lon="12.366218369423303"><ele>223.0</ele><time>2026-03-28T10:09:40Z</time></trkpt><trkpt lat="44.0340576202569" lon="12.36626652401385"><ele>223.0</ele><time>2026-03-28T10:09:41Z</time></trkpt><trkpt lat="44.034115785672206" lon="12.36632143809617"><ele>223.0</ele><time>2026-03-28T10:09:42Z</time></trkpt><trkpt lat="44.03417378678253" lon="12.366382885878553"><ele>223.0</ele><time>2026-03-28T10:09:43Z</time></trkpt><trkpt lat="44.03422756493856" lon="12.366457660589369"><ele>223.0</ele><time>2026-03-28T10:09:44Z</time></trkpt><trkpt lat="44.03427634765672" lon="12.366540575690548"><ele>223.0</ele><time>2026-03-28T10:09:45Z</time></trkpt><trkpt lat="44.03430229640254" lon="12.366639858223246"><ele>223.0</ele><time>2026-03-28T10:09:46Z</time></trkpt><trkpt lat="44.034331150675975" lon="12.366755314267861"><ele>223.2</ele><time>2026-03-28T10:09:47Z</time></trkpt><trkpt lat="44.03433291792306" lon="12.366882564796168"><ele>223.4</ele><time>2026-03-28T10:09:48Z</time></trkpt><trkpt lat="44.03432254340495" lon="12.367014836709755"><ele>223.59999999999997</ele><time>2026-03-28T10:09:49Z</time></trkpt><trkpt lat="44.034315362651306" lon="12.36714644341092"><ele>223.79999999999998</ele><time>2026-03-28T10:09:50Z</time></trkpt><trkpt lat="44.034324801881404" lon="12.367282693014669"><ele>224.0</ele><time>2026-03-28T10:09:51Z</time></trkpt><trkpt lat="44.03435996407083" lon="12.36742008993675"><ele>222.0</ele><time>2026-03-28T10:09:52Z</time></trkpt><trkpt lat="44.03440038772073" lon="12.367550262479526"><ele>219.99999999999997</ele><time>2026-03-28T10:09:53Z</time></trkpt><trkpt lat="44.03445016594577" lon="12.367679996719088"><ele>217.99999999999997</ele><time>2026-03-28T10:09:54Z</time></trkpt><trkpt lat="44.034510691031954" lon="12.36779996697301"><ele>216.0</ele><time>2026-03-28T10:09:55Z</time></trkpt><trkpt lat="44.034571093012104" lon="12.367912688015684"><ele>214.0</ele><time>2026-03-28T10:09:56Z</time></trkpt><trkpt lat="44.034623880269955" lon="12.368029434651142"><ele>212.6</ele><time>2026-03-28T10:09:57Z</time></trkpt><trkpt lat="44.034673410548244" lon="12.36814161210216"><ele>211.2</ele><time>2026-03-28T10:09:58Z</time></trkpt><trkpt lat="44.03471297592771" lon="12.368264904949227"><ele>209.79999999999998</ele><time>2026-03-28T10:09:59Z</time></trkpt><trkpt lat="44.034729511898576" lon="12.368388045949514"><ele>208.39999999999998</ele><time>2026-03-28T10:10:00Z</time></trkpt><trkpt lat="44.03477587800671" lon="12.368515083601093"><ele>207.0</ele><time>2026-03-28T10:10:01Z</time></trkpt><trkpt lat="44.034789703724755" lon="12.368635202070942"><ele>207.0</ele><time>2026-03-28T10:10:02Z</time></trkpt><trkpt lat="44.03478628925413" lon="12.368755732961816"><ele>207.0</ele><time>2026-03-28T10:10:03Z</time></trkpt><trkpt lat="44.034777893481824" lon="12.368881530252205"><ele>207.0</ele><time>2026-03-28T10:10:04Z</time></trkpt><trkpt lat="44.03475697388191" lon="12.368995662733408"><ele>207.0</ele><time>2026-03-28T10:10:05Z</time></trkpt><trkpt lat="44.03473456502773" lon="12.369111294248853"><ele>207.0</ele><time>2026-03-28T10:10:06Z</time></trkpt><trkpt lat="44.0347056794529" lon="12.369220698669784"><ele>207.0</ele><time>2026-03-28T10:10:07Z</time></trkpt><trkpt lat="44.034681206960535" lon="12.369327613602172"><ele>207.16666666666666</ele><time>2026-03-28T10:10:08Z</time></trkpt><trkpt lat="44.03465177749482" lon="12.36943049578855"><ele>207.33333333333331</ele><time>2026-03-28T10:10:09Z</time></trkpt><trkpt lat="44.034621477130536" lon="12.369531281730918"><ele>207.5</ele><time>2026-03-28T10:10:10Z</time></trkpt><trkpt lat="44.034594924020034" lon="12.369631854240543"><ele>207.66666666666666</ele><time>2026-03-28T10:10:11Z</time></trkpt><trkpt lat="44.03457420506123" lon="12.369735084428298"><ele>207.83333333333331</ele><time>2026-03-28T10:10:12Z</time></trkpt><trkpt lat="44.03455116387502" lon="12.369837117543472"><ele>208.0</ele><time>2026-03-28T10:10:13Z</time></trkpt><trkpt lat="44.034523981791224" lon="12.369938407601076"><ele>208.49999999999997</ele><time>2026-03-28T10:10:14Z</time></trkpt><trkpt lat="44.03449922766546" lon="12.370037666436104"><ele>209.0</ele><time>2026-03-28T10:10:15Z</time></trkpt><trkpt lat="44.03447736824689" lon="12.370145563268844"><ele>209.5</ele><time>2026-03-28T10:10:16Z</time></trkpt><trkpt lat="44.034450191517266" lon="12.370251901006881"><ele>210.0</ele><time>2026-03-28T10:10:17Z</time></trkpt><trkpt lat="44.0344197960798" lon="12.370361897730572"><ele>210.49999999999997</ele><time>2026-03-28T10:10:18Z</time></trkpt><trkpt lat="44.03437951620583" lon="12.370471194305113"><ele>211.0</ele><time>2026-03-28T10:10:19Z</time></trkpt><trkpt lat="44.03434533485625" lon="12.370580436205156"><ele>211.0</ele><time>2026-03-28T10:10:20Z</time></trkpt><trkpt lat="44.03432309744128" lon="12.37070438558231"><ele>211.0</ele><time>2026-03-28T10:10:21Z</time></trkpt><trkpt lat="44.03429960960299" lon="12.370833528407667"><ele>211.0</ele><time>2026-03-28T10:10:22Z</time></trkpt><trkpt lat="44.0342706586496" lon="12.37096483187939"><ele>211.0</ele><time>2026-03-28T10:10:23Z</time></trkpt><trkpt lat="44.03423304145998" lon="12.371113020609036"><ele>211.0</ele><time>2026-03-28T10:10:24Z</time></trkpt><trkpt lat="44.03419518036999" lon="12.37124507446394"><ele>209.60000000000002</ele><time>2026-03-28T10:10:25Z</time></trkpt><trkpt lat="44.03418125060642" lon="12.371392159791979"><ele>208.2</ele><time>2026-03-28T10:10:26Z</time></trkpt><trkpt lat="44.034150343360785" lon="12.37154192249847"><ele>206.8</ele><time>2026-03-28T10:10:27Z</time></trkpt><trkpt lat="44.03410219497296" lon="12.371687596574803"><ele>205.39999999999998</ele><time>2026-03-28T10:10:28Z</time></trkpt><trkpt lat="44.034050036935554" lon="12.37183047917821"><ele>204.0</ele><time>2026-03-28T10:10:29Z</time></trkpt><trkpt lat="44.033996995611595" lon="12.371966400727429"><ele>202.75</ele><time>2026-03-28T10:10:30Z</time></trkpt><trkpt lat="44.03394340427354" lon="12.372103168337034"><ele>201.5</ele><time>2026-03-28T10:10:31Z</time></trkpt><trkpt lat="44.0338776365499" lon="12.3722341362236"><ele>200.25</ele><time>2026-03-28T10:10:32Z</time></trkpt><trkpt lat="44.033799787899845" lon="12.372354629441766"><ele>199.0</ele><time>2026-03-28T10:10:33Z</time></trkpt><trkpt lat="44.0337165815823" lon="12.372469755139374"><ele>198.0</ele><time>2026-03-28T10:10:34Z</time></trkpt><trkpt lat="44.03363574755023" lon="12.372588633682607"><ele>197.0</ele><time>2026-03-28T10:10:35Z</time></trkpt><trkpt lat="44.03356248093311" lon="12.372699979004631"><ele>196.0</ele><time>2026-03-28T10:10:36Z</time></trkpt><trkpt lat="44.03349209445216" lon="12.372828529883959"><ele>195.0</ele><time>2026-03-28T10:10:37Z</time></trkpt><trkpt lat="44.03342618048953" lon="12.372958541586298"><ele>194.5</ele><time>2026-03-28T10:10:38Z</time></trkpt><trkpt lat="44.033357153906955" lon="12.373082591148147"><ele>194.0</ele><time>2026-03-28T10:10:39Z</time></trkpt><trkpt lat="44.033286551037385" lon="12.373209468178304"><ele>193.5</ele><time>2026-03-28T10:10:40Z</time></trkpt><trkpt lat="44.033218445012984" lon="12.37333300905079"><ele>193.0</ele><time>2026-03-28T10:10:41Z</time></trkpt><trkpt lat="44.03314647341104" lon="12.373458073215014"><ele>193.0</ele><time>2026-03-28T10:10:42Z</time></trkpt><trkpt lat="44.033075444574585" lon="12.373578517416991"><ele>193.0</ele><time>2026-03-28T10:10:43Z</time></trkpt><trkpt lat="44.03300367329306" lon="12.373705279403096"><ele>193.0</ele><time>2026-03-28T10:10:44Z</time></trkpt><trkpt lat="44.03293593369763" lon="12.373834975357807"><ele>193.0</ele><time>2026-03-28T10:10:45Z</time></trkpt><trkpt lat="44.0328647825351" lon="12.373961138213645"><ele>192.0</ele><time>2026-03-28T10:10:46Z</time></trkpt><trkpt lat="44.03279401738111" lon="12.374087230862386"><ele>191.0</ele><time>2026-03-28T10:10:47Z</time></trkpt><trkpt lat="44.03272431085094" lon="12.374214380953942"><ele>190.0</ele><time>2026-03-28T10:10:48Z</time></trkpt><trkpt lat="44.03265205585621" lon="12.3743455799878"><ele>189.0</ele><time>2026-03-28T10:10:49Z</time></trkpt><trkpt lat="44.03258177057005" lon="12.374467778293127"><ele>189.0</ele><time>2026-03-28T10:10:50Z</time></trkpt><trkpt lat="44.032511528666944" lon="12.374596363093653"><ele>189.0</ele><time>2026-03-28T10:10:51Z</time></trkpt><trkpt lat="44.03244442411188" lon="12.374723087471333"><ele>189.0</ele><time>2026-03-28T10:10:52Z</time></trkpt><trkpt lat="44.032371996620704" lon="12.374843907319535"><ele>189.0</ele><time>2026-03-28T10:10:53Z</time></trkpt><trkpt lat="44.032303442679186" lon="12.37496294893471"><ele>189.79999999999998</ele><time>2026-03-28T10:10:54Z</time></trkpt><trkpt lat="44.032237659611035" lon="12.375080764279714"><ele>190.6</ele><time>2026-03-28T10:10:55Z</time></trkpt><trkpt lat="44.032171855142046" lon="12.37519914841772"><ele>191.4</ele><time>2026-03-28T10:10:56Z</time></trkpt><trkpt lat="44.032105040604655" lon="12.375316112026594"><ele>192.2</ele><time>2026-03-28T10:10:57Z</time></trkpt><trkpt lat="44.03204121800678" lon="12.375431160245105"><ele>193.0</ele><time>2026-03-28T10:10:58Z</time></trkpt><trkpt lat="44.03197808203354" lon="12.375546648192207"><ele>191.0</ele><time>2026-03-28T10:10:59Z</time></trkpt><trkpt lat="44.031917474156884" lon="12.375654951606723"><ele>189.0</ele><time>2026-03-28T10:11:00Z</time></trkpt><trkpt lat="44.03185806996405" lon="12.375763102427703"><ele>187.0</ele><time>2026-03-28T10:11:01Z</time></trkpt><trkpt lat="44.03180112223307" lon="12.375874732730598"><ele>185.0</ele><time>2026-03-28T10:11:02Z</time></trkpt><trkpt lat="44.031747075090564" lon="12.375984054474372"><ele>183.0</ele><time>2026-03-28T10:11:03Z</time></trkpt><trkpt lat="44.0316946944086" lon="12.376098300521273"><ele>182.2</ele><time>2026-03-28T10:11:04Z</time></trkpt><trkpt lat="44.03163978520272" lon="12.376215551886055"><ele>181.4</ele><time>2026-03-28T10:11:05Z</time></trkpt><trkpt lat="44.03158619258522" lon="12.37633773163927"><ele>180.6</ele><time>2026-03-28T10:11:06Z</time></trkpt><trkpt lat="44.03152819533727" lon="12.376459969658198"><ele>179.79999999999998</ele><time>2026-03-28T10:11:07Z</time></trkpt><trkpt lat="44.03146953686738" lon="12.376582727813156"><ele>179.0</ele><time>2026-03-28T10:11:08Z</time></trkpt><trkpt lat="44.031411303214064" lon="12.376707813322172"><ele>177.39999999999998</ele><time>2026-03-28T10:11:09Z</time></trkpt><trkpt lat="44.0313495571996" lon="12.376836272832419"><ele>175.8</ele><time>2026-03-28T10:11:10Z</time></trkpt><trkpt lat="44.03128297327147" lon="12.376961479618993"><ele>174.2</ele><time>2026-03-28T10:11:11Z</time></trkpt><trkpt lat="44.03121982305202" lon="12.37709078360831"><ele>172.60000000000002</ele><time>2026-03-28T10:11:12Z</time></trkpt><trkpt lat="44.03115699217271" lon="12.37721349786272"><ele>171.0</ele><time>2026-03-28T10:11:13Z</time></trkpt><trkpt lat="44.031096791926174" lon="12.377327309108901"><ele>170.66666666666666</ele><time>2026-03-28T10:11:14Z</time></trkpt><trkpt lat="44.031039231001806" lon="12.377436031315904"><ele>170.33333333333334</ele><time>2026-03-28T10:11:15Z</time></trkpt><trkpt lat="44.03098236318937" lon="12.377542642316092"><ele>170.0</ele><time>2026-03-28T10:11:16Z</time></trkpt><trkpt lat="44.030926395077394" lon="12.377647711923549"><ele>169.66666666666669</ele><time>2026-03-28T10:11:17Z</time></trkpt><trkpt lat="44.03087610775075" lon="12.377742648836268"><ele>169.33333333333334</ele><time>2026-03-28T10:11:18Z</time></trkpt><trkpt lat="44.03082820470568" lon="12.377827403023145"><ele>169.0</ele><time>2026-03-28T10:11:19Z</time></trkpt><trkpt lat="44.030786632199586" lon="12.377901287814137"><ele>168.16666666666669</ele><time>2026-03-28T10:11:20Z</time></trkpt><trkpt lat="44.03072532102749" lon="12.378034561876"><ele>167.33333333333334</ele><time>2026-03-28T10:11:22Z</time></trkpt><trkpt lat="44.030697683191015" lon="12.378118216698466"><ele>166.5</ele><time>2026-03-28T10:11:26Z</time></trkpt><trkpt lat="44.030682282783424" lon="12.378219571631568"><ele>165.66666666666666</ele><time>2026-03-28T10:12:28Z</time></trkpt><trkpt lat="44.03070780369001" lon="12.37830348968574"><ele>164.83333333333331</ele><time>2026-03-28T10:12:33Z</time></trkpt><trkpt lat="44.03076197482462" lon="12.37837074830401"><ele>164.0</ele><time>2026-03-28T10:12:47Z</time></trkpt><trkpt lat="44.03084820500362" lon="12.378418911340395"><ele>164.0</ele><time>2026-03-28T10:12:51Z</time></trkpt><trkpt lat="44.03093533061908" lon="12.378424017644095"><ele>164.0</ele><time>2026-03-28T10:12:53Z</time></trkpt><trkpt lat="44.031026883391725" lon="12.378412318150243"><ele>164.0</ele><time>2026-03-28T10:12:55Z</time></trkpt><trkpt lat="44.03113799755718" lon="12.378380029775911"><ele>164.0</ele><time>2026-03-28T10:12:57Z</time></trkpt><trkpt lat="44.03120593619322" lon="12.378355000895851"><ele>164.0</ele><time>2026-03-28T10:12:58Z</time></trkpt><trkpt lat="44.03137998431138" lon="12.378335113626761"><ele>163.99999999999997</ele><time>2026-03-28T10:13:00Z</time></trkpt><trkpt lat="44.031458095556516" lon="12.378353950566753"><ele>164.0</ele><time>2026-03-28T10:13:01Z</time></trkpt><trkpt lat="44.031527007593425" lon="12.378386867786267"><ele>164.0</ele><time>2026-03-28T10:13:02Z</time></trkpt><trkpt lat="44.03159089725698" lon="12.378434716068375"><ele>164.0</ele><time>2026-03-28T10:13:03Z</time></trkpt><trkpt lat="44.031656368402615" lon="12.378479027578377"><ele>164.0</ele><time>2026-03-28T10:13:04Z</time></trkpt><trkpt lat="44.031719447350994" lon="12.378524010412175"><ele>163.99999999999997</ele><time>2026-03-28T10:13:05Z</time></trkpt><trkpt lat="44.0317884408578" lon="12.378558824744433"><ele>164.0</ele><time>2026-03-28T10:13:06Z</time></trkpt><trkpt lat="44.03185829014409" lon="12.378578730929217"><ele>164.16666666666666</ele><time>2026-03-28T10:13:07Z</time></trkpt><trkpt lat="44.031931733698585" lon="12.378576423200384"><ele>164.33333333333331</ele><time>2026-03-28T10:13:08Z</time></trkpt><trkpt lat="44.03200692185537" lon="12.378553673791034"><ele>164.5</ele><time>2026-03-28T10:13:09Z</time></trkpt><trkpt lat="44.032080948698386" lon="12.378507051041957"><ele>164.66666666666666</ele><time>2026-03-28T10:13:10Z</time></trkpt><trkpt lat="44.0321534651011" lon="12.378454409546016"><ele>164.83333333333334</ele><time>2026-03-28T10:13:11Z</time></trkpt><trkpt lat="44.03222196866543" lon="12.378401420615495"><ele>165.0</ele><time>2026-03-28T10:13:12Z</time></trkpt><trkpt lat="44.03228845573953" lon="12.378349214803315"><ele>165.00000000000003</ele><time>2026-03-28T10:13:13Z</time></trkpt><trkpt lat="44.03235283065102" lon="12.378298735130674"><ele>165.0</ele><time>2026-03-28T10:13:14Z</time></trkpt><trkpt lat="44.03241680826401" lon="12.378261820376519"><ele>165.0</ele><time>2026-03-28T10:13:15Z</time></trkpt><trkpt lat="44.03248720530316" lon="12.378254440553034"><ele>165.0</ele><time>2026-03-28T10:13:16Z</time></trkpt><trkpt lat="44.03255884650261" lon="12.3782752072574"><ele>165.0</ele><time>2026-03-28T10:13:17Z</time></trkpt><trkpt lat="44.032630064590236" lon="12.37832027526607"><ele>165.00000000000003</ele><time>2026-03-28T10:13:18Z</time></trkpt><trkpt lat="44.032689263157465" lon="12.378403190989447"><ele>165.0</ele><time>2026-03-28T10:13:19Z</time></trkpt><trkpt lat="44.03273601090766" lon="12.378511503057245"><ele>162.8</ele><time>2026-03-28T10:13:20Z</time></trkpt><trkpt lat="44.032772562676406" lon="12.378628916142407"><ele>160.6</ele><time>2026-03-28T10:13:21Z</time></trkpt><trkpt lat="44.03280897170988" lon="12.37875405284167"><ele>158.4</ele><time>2026-03-28T10:13:22Z</time></trkpt><trkpt lat="44.03283894788601" lon="12.378879016588499"><ele>156.2</ele><time>2026-03-28T10:13:23Z</time></trkpt><trkpt lat="44.03287510922449" lon="12.379012025841108"><ele>154.0</ele><time>2026-03-28T10:13:24Z</time></trkpt><trkpt lat="44.03290597735639" lon="12.379137743872546"><ele>153.2</ele><time>2026-03-28T10:13:25Z</time></trkpt><trkpt lat="44.032936284423464" lon="12.379266160785106"><ele>152.4</ele><time>2026-03-28T10:13:26Z</time></trkpt><trkpt lat="44.032958177547634" lon="12.379399778283988"><ele>151.6</ele><time>2026-03-28T10:13:27Z</time></trkpt><trkpt lat="44.0329662932101" lon="12.37953937383753"><ele>150.8</ele><time>2026-03-28T10:13:28Z</time></trkpt><trkpt lat="44.03295671554989" lon="12.379685209284753"><ele>150.0</ele><time>2026-03-28T10:13:29Z</time></trkpt><trkpt lat="44.032939901194915" lon="12.379830762070156"><ele>149.0</ele><time>2026-03-28T10:13:30Z</time></trkpt><trkpt lat="44.032911864980356" lon="12.379976254046971"><ele>148.0</ele><time>2026-03-28T10:13:31Z</time></trkpt><trkpt lat="44.03288640381069" lon="12.380123035079992"><ele>147.0</ele><time>2026-03-28T10:13:32Z</time></trkpt><trkpt lat="44.032867385090874" lon="12.380276045847157"><ele>146.0</ele><time>2026-03-28T10:13:33Z</time></trkpt><trkpt lat="44.03285262729928" lon="12.380430917770616"><ele>145.0</ele><time>2026-03-28T10:13:34Z</time></trkpt><trkpt lat="44.03284297405395" lon="12.380589835890344"><ele>143.25</ele><time>2026-03-28T10:13:35Z</time></trkpt><trkpt lat="44.03284455954052" lon="12.380749579325059"><ele>141.5</ele><time>2026-03-28T10:13:36Z</time></trkpt><trkpt lat="44.03284229186241" lon="12.380910864053446"><ele>139.75</ele><time>2026-03-28T10:13:37Z</time></trkpt><trkpt lat="44.03283802524186" lon="12.38107966756033"><ele>138.0</ele><time>2026-03-28T10:13:38Z</time></trkpt><trkpt lat="44.03283759858411" lon="12.381250632218874"><ele>136.25</ele><time>2026-03-28T10:13:39Z</time></trkpt><trkpt lat="44.0328376912521" lon="12.381421612606234"><ele>134.5</ele><time>2026-03-28T10:13:40Z</time></trkpt><trkpt lat="44.032836156928866" lon="12.38159476340848"><ele>132.75</ele><time>2026-03-28T10:13:41Z</time></trkpt><trkpt lat="44.03283524857506" lon="12.38176526544238"><ele>131.0</ele><time>2026-03-28T10:13:42Z</time></trkpt><trkpt lat="44.03282890361845" lon="12.381932385799079"><ele>131.0</ele><time>2026-03-28T10:13:43Z</time></trkpt><trkpt lat="44.03282955154148" lon="12.382088279765174"><ele>131.0</ele><time>2026-03-28T10:13:44Z</time></trkpt><trkpt lat="44.03282962681297" lon="12.382211162029506"><ele>131.0</ele><time>2026-03-28T10:13:45Z</time></trkpt><trkpt lat="44.03283159786582" lon="12.382314594216648"><ele>131.0</ele><time>2026-03-28T10:13:46Z</time></trkpt><trkpt lat="44.03283334008151" lon="12.38242261460969"><ele>131.0</ele><time>2026-03-28T10:13:47Z</time></trkpt><trkpt lat="44.03282975967276" lon="12.382527686343563"><ele>131.0</ele><time>2026-03-28T10:13:48Z</time></trkpt><trkpt lat="44.03281314923661" lon="12.382634296214109"><ele>130.83333333333331</ele><time>2026-03-28T10:13:49Z</time></trkpt><trkpt lat="44.03277776472059" lon="12.382733212457282"><ele>130.66666666666666</ele><time>2026-03-28T10:13:50Z</time></trkpt><trkpt lat="44.032739639577976" lon="12.382832935904673"><ele>130.5</ele><time>2026-03-28T10:13:51Z</time></trkpt><trkpt lat="44.032700281649916" lon="12.382927345832183"><ele>130.33333333333334</ele><time>2026-03-28T10:13:52Z</time></trkpt><trkpt lat="44.03264444039498" lon="12.383013002339784"><ele>130.16666666666669</ele><time>2026-03-28T10:13:53Z</time></trkpt><trkpt lat="44.03258544759351" lon="12.383097702503806"><ele>130.0</ele><time>2026-03-28T10:13:54Z</time></trkpt><trkpt lat="44.0325244055856" lon="12.383182792834491"><ele>127.6</ele><time>2026-03-28T10:13:55Z</time></trkpt><trkpt lat="44.03245875436327" lon="12.383258057688725"><ele>125.2</ele><time>2026-03-28T10:13:56Z</time></trkpt><trkpt lat="44.032385414128356" lon="12.38331771097132"><ele>122.80000000000001</ele><time>2026-03-28T10:13:57Z</time></trkpt><trkpt lat="44.03230155619084" lon="12.383364485469635"><ele>120.4</ele><time>2026-03-28T10:13:58Z</time></trkpt><trkpt lat="44.03220744891594" lon="12.383378688102292"><ele>118.0</ele><time>2026-03-28T10:13:59Z</time></trkpt><trkpt lat="44.032108837791284" lon="12.383365981748634"><ele>118.00000000000001</ele><time>2026-03-28T10:14:00Z</time></trkpt><trkpt lat="44.032011698076914" lon="12.383335121948976"><ele>118.0</ele><time>2026-03-28T10:14:01Z</time></trkpt><trkpt lat="44.03193076973524" lon="12.383300252981924"><ele>118.0</ele><time>2026-03-28T10:14:02Z</time></trkpt><trkpt lat="44.03186153498288" lon="12.38327418528465"><ele>118.0</ele><time>2026-03-28T10:14:03Z</time></trkpt><trkpt lat="44.0317410455005" lon="12.383272082984826"><ele>118.00000000000001</ele><time>2026-03-28T10:14:05Z</time></trkpt><trkpt lat="44.03168461576288" lon="12.383324566215864"><ele>118.0</ele><time>2026-03-28T10:14:06Z</time></trkpt><trkpt lat="44.03164750235832" lon="12.383411964879533"><ele>118.00000000000001</ele><time>2026-03-28T10:14:07Z</time></trkpt><trkpt lat="44.031639519476464" lon="12.383519102442422"><ele>118.0</ele><time>2026-03-28T10:14:08Z</time></trkpt><trkpt lat="44.03165827211833" lon="12.383628595948519"><ele>118.0</ele><time>2026-03-28T10:14:09Z</time></trkpt><trkpt lat="44.03169947305491" lon="12.383724577901706"><ele>118.0</ele><time>2026-03-28T10:14:10Z</time></trkpt><trkpt lat="44.03174685264675" lon="12.383820724276648"><ele>118.00000000000001</ele><time>2026-03-28T10:14:11Z</time></trkpt><trkpt lat="44.031796485120246" lon="12.38391518024372"><ele>118.0</ele><time>2026-03-28T10:14:12Z</time></trkpt><trkpt lat="44.03184897053498" lon="12.384014882433268"><ele>116.80000000000001</ele><time>2026-03-28T10:14:13Z</time></trkpt><trkpt lat="44.03190182177243" lon="12.384115732147245"><ele>115.60000000000001</ele><time>2026-03-28T10:14:14Z</time></trkpt><trkpt lat="44.03195756152458" lon="12.384214445629263"><ele>114.39999999999999</ele><time>2026-03-28T10:14:15Z</time></trkpt><trkpt lat="44.03203202674011" lon="12.384294219912864"><ele>113.19999999999999</ele><time>2026-03-28T10:14:16Z</time></trkpt><trkpt lat="44.03212044911213" lon="12.384354954650739"><ele>112.0</ele><time>2026-03-28T10:14:17Z</time></trkpt><trkpt lat="44.03220352651426" lon="12.384407891259503"><ele>112.00000000000001</ele><time>2026-03-28T10:14:18Z</time></trkpt><trkpt lat="44.032278961424026" lon="12.384477478420296"><ele>112.0</ele><time>2026-03-28T10:14:19Z</time></trkpt><trkpt lat="44.03234009871322" lon="12.38456278822408"><ele>112.0</ele><time>2026-03-28T10:14:20Z</time></trkpt><trkpt lat="44.03239184380431" lon="12.384646735547513"><ele>112.0</ele><time>2026-03-28T10:14:21Z</time></trkpt><trkpt lat="44.03244185493724" lon="12.38471800900951"><ele>112.00000000000001</ele><time>2026-03-28T10:14:22Z</time></trkpt><trkpt lat="44.03251335378809" lon="12.38476319801566"><ele>112.0</ele><time>2026-03-28T10:14:23Z</time></trkpt><trkpt lat="44.03258965001623" lon="12.38476659747889"><ele>112.66666666666667</ele><time>2026-03-28T10:14:24Z</time></trkpt><trkpt lat="44.032664184777126" lon="12.384708545134698"><ele>113.33333333333334</ele><time>2026-03-28T10:14:25Z</time></trkpt><trkpt lat="44.0327295895783" lon="12.384622745056953"><ele>114.0</ele><time>2026-03-28T10:14:26Z</time></trkpt><trkpt lat="44.03279357281148" lon="12.384562368021328"><ele>114.66666666666666</ele><time>2026-03-28T10:14:27Z</time></trkpt><trkpt lat="44.03285856151044" lon="12.384534016671358"><ele>115.33333333333333</ele><time>2026-03-28T10:14:28Z</time></trkpt><trkpt lat="44.03292239911598" lon="12.384565571645638"><ele>116.0</ele><time>2026-03-28T10:14:29Z</time></trkpt><trkpt lat="44.032978328483104" lon="12.38465266630545"><ele>114.16666666666666</ele><time>2026-03-28T10:14:30Z</time></trkpt><trkpt lat="44.033009151583386" lon="12.384757230789772"><ele>112.33333333333333</ele><time>2026-03-28T10:14:31Z</time></trkpt><trkpt lat="44.03299040378785" lon="12.384879513552852"><ele>110.5</ele><time>2026-03-28T10:14:32Z</time></trkpt><trkpt lat="44.03294850350619" lon="12.384989179697373"><ele>108.66666666666666</ele><time>2026-03-28T10:14:33Z</time></trkpt><trkpt lat="44.03290143633627" lon="12.385094293769601"><ele>106.83333333333333</ele><time>2026-03-28T10:14:34Z</time></trkpt><trkpt lat="44.03285890690066" lon="12.385201870371887"><ele>105.0</ele><time>2026-03-28T10:14:35Z</time></trkpt><trkpt lat="44.032817773124215" lon="12.385312924705312"><ele>105.0</ele><time>2026-03-28T10:14:36Z</time></trkpt><trkpt lat="44.03278618566491" lon="12.385406856015518"><ele>105.0</ele><time>2026-03-28T10:14:37Z</time></trkpt><trkpt lat="44.032742322889995" lon="12.38548587564454"><ele>105.0</ele><time>2026-03-28T10:14:38Z</time></trkpt><trkpt lat="44.03267087016561" lon="12.38553248932626"><ele>105.0</ele><time>2026-03-28T10:14:39Z</time></trkpt><trkpt lat="44.032589023345565" lon="12.385531382130361"><ele>105.0</ele><time>2026-03-28T10:14:40Z</time></trkpt><trkpt lat="44.0325028904143" lon="12.38549500812195"><ele>105.0</ele><time>2026-03-28T10:14:41Z</time></trkpt><trkpt lat="44.032421711453985" lon="12.385444210335288"><ele>103.33333333333333</ele><time>2026-03-28T10:14:42Z</time></trkpt><trkpt lat="44.03234753752845" lon="12.385382144017331"><ele>101.66666666666667</ele><time>2026-03-28T10:14:43Z</time></trkpt><trkpt lat="44.032274914337776" lon="12.385327337752335"><ele>100.0</ele><time>2026-03-28T10:14:44Z</time></trkpt><trkpt lat="44.032212685681195" lon="12.385300763483308"><ele>98.33333333333334</ele><time>2026-03-28T10:14:45Z</time></trkpt><trkpt lat="44.03211240494296" lon="12.385294997720754"><ele>96.66666666666667</ele><time>2026-03-28T10:14:47Z</time></trkpt><trkpt lat="44.03205973056218" lon="12.385423470216884"><ele>95.0</ele><time>2026-03-28T10:14:49Z</time></trkpt><trkpt lat="44.032076192634435" lon="12.385512808604016"><ele>93.16666666666667</ele><time>2026-03-28T10:14:50Z</time></trkpt><trkpt lat="44.032124851430225" lon="12.385589531209929"><ele>91.33333333333334</ele><time>2026-03-28T10:14:51Z</time></trkpt><trkpt lat="44.03218182186187" lon="12.385644997613198"><ele>89.5</ele><time>2026-03-28T10:14:52Z</time></trkpt><trkpt lat="44.03224608241265" lon="12.385693266653663"><ele>87.66666666666667</ele><time>2026-03-28T10:14:53Z</time></trkpt><trkpt lat="44.03231639342125" lon="12.385740620978105"><ele>85.83333333333333</ele><time>2026-03-28T10:14:54Z</time></trkpt><trkpt lat="44.03238559927464" lon="12.385794868846427"><ele>84.0</ele><time>2026-03-28T10:14:55Z</time></trkpt><trkpt lat="44.03245241845583" lon="12.385857779925532"><ele>83.6</ele><time>2026-03-28T10:14:56Z</time></trkpt><trkpt lat="44.032517997799744" lon="12.385927446442661"><ele>83.2</ele><time>2026-03-28T10:14:57Z</time></trkpt><trkpt lat="44.03258166481444" lon="12.386010187326033"><ele>82.8</ele><time>2026-03-28T10:14:58Z</time></trkpt><trkpt lat="44.032643039995236" lon="12.38611052961597"><ele>82.39999999999999</ele><time>2026-03-28T10:14:59Z</time></trkpt><trkpt lat="44.03267880072544" lon="12.38624216565663"><ele>82.0</ele><time>2026-03-28T10:15:00Z</time></trkpt><trkpt lat="44.03269873980071" lon="12.38637968503784"><ele>82.0</ele><time>2026-03-28T10:15:01Z</time></trkpt><trkpt lat="44.03271149963453" lon="12.386518705320038"><ele>82.0</ele><time>2026-03-28T10:15:02Z</time></trkpt><trkpt lat="44.03274633718316" lon="12.386655361973768"><ele>82.0</ele><time>2026-03-28T10:15:03Z</time></trkpt><trkpt lat="44.03280351654475" lon="12.386773675335759"><ele>82.0</ele><time>2026-03-28T10:15:04Z</time></trkpt><trkpt lat="44.032882451013585" lon="12.386878621578106"><ele>82.0</ele><time>2026-03-28T10:15:05Z</time></trkpt><trkpt lat="44.032966719389584" lon="12.38697296477961"><ele>82.0</ele><time>2026-03-28T10:15:06Z</time></trkpt><trkpt lat="44.033047480965024" lon="12.387076542013236"><ele>82.0</ele><time>2026-03-28T10:15:07Z</time></trkpt><trkpt lat="44.033125652948435" lon="12.387184630006674"><ele>82.0</ele><time>2026-03-28T10:15:08Z</time></trkpt><trkpt lat="44.033209310725255" lon="12.387283844557533"><ele>82.0</ele><time>2026-03-28T10:15:09Z</time></trkpt><trkpt lat="44.03329651739188" lon="12.387376992105636"><ele>82.0</ele><time>2026-03-28T10:15:10Z</time></trkpt><trkpt lat="44.0333867213766" lon="12.38746697585389"><ele>81.5</ele><time>2026-03-28T10:15:11Z</time></trkpt><trkpt lat="44.03348225672371" lon="12.387567113214827"><ele>81.0</ele><time>2026-03-28T10:15:12Z</time></trkpt><trkpt lat="44.033562012763724" lon="12.387677473636224"><ele>80.5</ele><time>2026-03-28T10:15:13Z</time></trkpt><trkpt lat="44.03363812422719" lon="12.387811218298276"><ele>80.0</ele><time>2026-03-28T10:15:14Z</time></trkpt><trkpt lat="44.0337026178041" lon="12.387950464337054"><ele>78.6</ele><time>2026-03-28T10:15:15Z</time></trkpt><trkpt lat="44.033765507674154" lon="12.38809269089948"><ele>77.2</ele><time>2026-03-28T10:15:16Z</time></trkpt><trkpt lat="44.033828721013926" lon="12.388234742708851"><ele>75.8</ele><time>2026-03-28T10:15:17Z</time></trkpt><trkpt lat="44.03388533861712" lon="12.388329866622165"><ele>74.4</ele><time>2026-03-28T10:15:18Z</time></trkpt><trkpt lat="44.03394589973911" lon="12.388421035010044"><ele>73.0</ele><time>2026-03-28T10:15:19Z</time></trkpt><trkpt lat="44.03400264535595" lon="12.388498071050334"><ele>73.0</ele><time>2026-03-28T10:15:20Z</time></trkpt><trkpt lat="44.03404803810541" lon="12.388562206384632"><ele>73.0</ele><time>2026-03-28T10:15:21Z</time></trkpt><trkpt lat="44.03412150364347" lon="12.38864697490386"><ele>73.0</ele><time>2026-03-28T10:15:23Z</time></trkpt><trkpt lat="44.034168473743385" lon="12.388720853681665"><ele>73.0</ele><time>2026-03-28T10:15:35Z</time></trkpt><trkpt lat="44.0341947520087" lon="12.388842664678755"><ele>73.0</ele><time>2026-03-28T10:15:38Z</time></trkpt><trkpt lat="44.03427690198611" lon="12.388898374897417"><ele>73.0</ele><time>2026-03-28T10:15:40Z</time></trkpt><trkpt lat="44.03433590624234" lon="12.388963638327931"><ele>72.33333333333333</ele><time>2026-03-28T10:15:42Z</time></trkpt><trkpt lat="44.03438837234849" lon="12.389055408296766"><ele>71.66666666666666</ele><time>2026-03-28T10:15:44Z</time></trkpt><trkpt lat="44.034432115432146" lon="12.389158549291112"><ele>71.0</ele><time>2026-03-28T10:15:46Z</time></trkpt><trkpt lat="44.03447820242189" lon="12.389257690618743"><ele>70.33333333333333</ele><time>2026-03-28T10:15:48Z</time></trkpt><trkpt lat="44.03452553605214" lon="12.389354654005897"><ele>69.66666666666667</ele><time>2026-03-28T10:15:50.001Z</time></trkpt><trkpt lat="44.03457449602101" lon="12.389454995344266"><ele>69.0</ele><time>2026-03-28T10:15:52.001Z</time></trkpt><trkpt lat="44.034622678650926" lon="12.389556616050903"><ele>69.0</ele><time>2026-03-28T10:15:54.001Z</time></trkpt><trkpt lat="44.03466811981116" lon="12.38966219429598"><ele>69.0</ele><time>2026-03-28T10:15:56.001Z</time></trkpt><trkpt lat="44.0347188384547" lon="12.389766052610248"><ele>69.0</ele><time>2026-03-28T10:15:58.001Z</time></trkpt><trkpt lat="44.034771879276256" lon="12.389870021337003"><ele>69.0</ele><time>2026-03-28T10:16:00Z</time></trkpt><trkpt lat="44.03483121900672" lon="12.389975356998605"><ele>69.0</ele><time>2026-03-28T10:16:02Z</time></trkpt><trkpt lat="44.03489301157144" lon="12.390084367148125"><ele>68.8</ele><time>2026-03-28T10:16:04Z</time></trkpt><trkpt lat="44.034946411056964" lon="12.390202819682306"><ele>68.60000000000001</ele><time>2026-03-28T10:16:06Z</time></trkpt><trkpt lat="44.03501067647314" lon="12.390315935352275"><ele>68.4</ele><time>2026-03-28T10:16:08Z</time></trkpt><trkpt lat="44.035083187246926" lon="12.390445603764439"><ele>68.2</ele><time>2026-03-28T10:16:10Z</time></trkpt><trkpt lat="44.035121506345575" lon="12.390516356405087"><ele>68.0</ele><time>2026-03-28T10:16:11Z</time></trkpt><trkpt lat="44.03515698655315" lon="12.39059069338684"><ele>67.99999999999999</ele><time>2026-03-28T10:16:12Z</time></trkpt><trkpt lat="44.03519552746137" lon="12.390666771889565"><ele>68.0</ele><time>2026-03-28T10:16:13Z</time></trkpt><trkpt lat="44.03523871136353" lon="12.390740322327975"><ele>68.0</ele><time>2026-03-28T10:16:14Z</time></trkpt><trkpt lat="44.035276410052525" lon="12.390818305561892"><ele>68.0</ele><time>2026-03-28T10:16:15Z</time></trkpt><trkpt lat="44.03531249544407" lon="12.39089543708885"><ele>68.0</ele><time>2026-03-28T10:16:16Z</time></trkpt><trkpt lat="44.03535174264735" lon="12.39097268877823"><ele>67.99999999999999</ele><time>2026-03-28T10:16:17Z</time></trkpt><trkpt lat="44.035399422752945" lon="12.391045550702028"><ele>68.0</ele><time>2026-03-28T10:16:18Z</time></trkpt><trkpt lat="44.03544151472267" lon="12.391125362650332"><ele>67.99999999999999</ele><time>2026-03-28T10:16:19Z</time></trkpt><trkpt lat="44.03548555997577" lon="12.391202036242202"><ele>68.0</ele><time>2026-03-28T10:16:20Z</time></trkpt><trkpt lat="44.03552502401797" lon="12.391275538098796"><ele>68.0</ele><time>2026-03-28T10:16:21Z</time></trkpt><trkpt lat="44.03556703120203" lon="12.39135418486923"><ele>68.0</ele><time>2026-03-28T10:16:22Z</time></trkpt><trkpt lat="44.03560747529374" lon="12.39143044921966"><ele>68.0</ele><time>2026-03-28T10:16:23Z</time></trkpt><trkpt lat="44.035648426784974" lon="12.391504882372587"><ele>67.99999999999999</ele><time>2026-03-28T10:16:24Z</time></trkpt><trkpt lat="44.03568813485624" lon="12.391578805254396"><ele>68.0</ele><time>2026-03-28T10:16:25Z</time></trkpt><trkpt lat="44.03573098350308" lon="12.391654235821989"><ele>68.28571428571428</ele><time>2026-03-28T10:16:26Z</time></trkpt><trkpt lat="44.03577393187446" lon="12.391729433392468"><ele>68.57142857142857</ele><time>2026-03-28T10:16:27Z</time></trkpt><trkpt lat="44.03581256118925" lon="12.391802660053443"><ele>68.85714285714286</ele><time>2026-03-28T10:16:28Z</time></trkpt><trkpt lat="44.03585007245393" lon="12.391878722033388"><ele>69.14285714285714</ele><time>2026-03-28T10:16:29Z</time></trkpt><trkpt lat="44.035885460759886" lon="12.391951525804302"><ele>69.42857142857143</ele><time>2026-03-28T10:16:30Z</time></trkpt><trkpt lat="44.035927525697645" lon="12.392027258809051"><ele>69.71428571428571</ele><time>2026-03-28T10:16:31Z</time></trkpt><trkpt lat="44.03596629486343" lon="12.39210578564162"><ele>70.0</ele><time>2026-03-28T10:16:32Z</time></trkpt><trkpt lat="44.03600707633586" lon="12.392178158764143"><ele>69.14285714285714</ele><time>2026-03-28T10:16:33Z</time></trkpt><trkpt lat="44.03604765929994" lon="12.392253269819994"><ele>68.28571428571428</ele><time>2026-03-28T10:16:34Z</time></trkpt><trkpt lat="44.03608750431773" lon="12.392326706827319"><ele>67.42857142857143</ele><time>2026-03-28T10:16:35Z</time></trkpt><trkpt lat="44.03612788928094" lon="12.392400975825769"><ele>66.57142857142857</ele><time>2026-03-28T10:16:36Z</time></trkpt><trkpt lat="44.03616342031172" lon="12.392479100006263"><ele>65.71428571428571</ele><time>2026-03-28T10:16:37Z</time></trkpt><trkpt lat="44.03620559681134" lon="12.392554475527655"><ele>64.85714285714286</ele><time>2026-03-28T10:16:38Z</time></trkpt><trkpt lat="44.036246373697196" lon="12.392624825833856"><ele>64.0</ele><time>2026-03-28T10:16:39Z</time></trkpt><trkpt lat="44.03628786201529" lon="12.392700825604956"><ele>63.99999999999999</ele><time>2026-03-28T10:16:40Z</time></trkpt><trkpt lat="44.03632660490205" lon="12.392774006058128"><ele>64.0</ele><time>2026-03-28T10:16:41Z</time></trkpt><trkpt lat="44.036365731118806" lon="12.392848151385863"><ele>64.0</ele><time>2026-03-28T10:16:42Z</time></trkpt><trkpt lat="44.03640606130765" lon="12.392921303567702"><ele>64.0</ele><time>2026-03-28T10:16:43Z</time></trkpt><trkpt lat="44.03644690745436" lon="12.392992411391047"><ele>63.99999999999999</ele><time>2026-03-28T10:16:44Z</time></trkpt><trkpt lat="44.036482420999256" lon="12.393065924799306"><ele>64.0</ele><time>2026-03-28T10:16:45Z</time></trkpt><trkpt lat="44.036560499739025" lon="12.393201296467032"><ele>64.4</ele><time>2026-03-28T10:16:47Z</time></trkpt><trkpt lat="44.03659835155616" lon="12.393275362468772"><ele>64.80000000000001</ele><time>2026-03-28T10:16:48Z</time></trkpt><trkpt lat="44.036670816663566" lon="12.393409020770296"><ele>65.19999999999999</ele><time>2026-03-28T10:16:50Z</time></trkpt><trkpt lat="44.03674175968404" lon="12.393548681702299"><ele>65.6</ele><time>2026-03-28T10:16:52Z</time></trkpt><trkpt lat="44.036815384530556" lon="12.393678490622726"><ele>66.0</ele><time>2026-03-28T10:16:54Z</time></trkpt><trkpt lat="44.0368873423006" lon="12.393814687237795"><ele>64.75</ele><time>2026-03-28T10:16:56Z</time></trkpt><trkpt lat="44.03695648567921" lon="12.393957232358586"><ele>63.5</ele><time>2026-03-28T10:16:58Z</time></trkpt><trkpt lat="44.03703137472912" lon="12.394088548162129"><ele>62.25</ele><time>2026-03-28T10:17:00Z</time></trkpt><trkpt lat="44.03709908179363" lon="12.39422243866856"><ele>61.0</ele><time>2026-03-28T10:17:02Z</time></trkpt><trkpt lat="44.03716836474598" lon="12.394356803234894"><ele>61.0</ele><time>2026-03-28T10:17:04Z</time></trkpt><trkpt lat="44.03724039755425" lon="12.394484594841071"><ele>61.0</ele><time>2026-03-28T10:17:06Z</time></trkpt><trkpt lat="44.03731238486029" lon="12.394618501485994"><ele>61.0</ele><time>2026-03-28T10:17:08.001Z</time></trkpt><trkpt lat="44.037375252521784" lon="12.394756330539598"><ele>61.0</ele><time>2026-03-28T10:17:10.001Z</time></trkpt><trkpt lat="44.03744307043645" lon="12.394886210783891"><ele>61.5</ele><time>2026-03-28T10:17:12.001Z</time></trkpt><trkpt lat="44.037512396449394" lon="12.39501399391371"><ele>62.0</ele><time>2026-03-28T10:17:14.001Z</time></trkpt><trkpt lat="44.03758104509307" lon="12.395140533542884"><ele>62.5</ele><time>2026-03-28T10:17:16.001Z</time></trkpt><trkpt lat="44.03765797408475" lon="12.39526370235971"><ele>63.0</ele><time>2026-03-28T10:17:18.001Z</time></trkpt><trkpt lat="44.0377322173776" lon="12.395383028868796"><ele>63.0</ele><time>2026-03-28T10:17:20.001Z</time></trkpt><trkpt lat="44.03781729711419" lon="12.395494638993098"><ele>63.0</ele><time>2026-03-28T10:17:22.001Z</time></trkpt><trkpt lat="44.03790007009912" lon="12.395603677003017"><ele>63.0</ele><time>2026-03-28T10:17:24.001Z</time></trkpt><trkpt lat="44.03798491652513" lon="12.395707649521261"><ele>63.0</ele><time>2026-03-28T10:17:26.001Z</time></trkpt><trkpt lat="44.03806946030366" lon="12.395807093229944"><ele>62.8</ele><time>2026-03-28T10:17:28.001Z</time></trkpt><trkpt lat="44.03815338551931" lon="12.395901982385137"><ele>62.599999999999994</ele><time>2026-03-28T10:17:30.001Z</time></trkpt><trkpt lat="44.03823885311167" lon="12.395995188099764"><ele>62.400000000000006</ele><time>2026-03-28T10:17:32.001Z</time></trkpt><trkpt lat="44.03832203966113" lon="12.396087269185276"><ele>62.2</ele><time>2026-03-28T10:17:34.001Z</time></trkpt><trkpt lat="44.03841379939364" lon="12.396171407327879"><ele>62.0</ele><time>2026-03-28T10:17:36.001Z</time></trkpt><trkpt lat="44.03850326032872" lon="12.396255021443173"><ele>61.2</ele><time>2026-03-28T10:17:38.001Z</time></trkpt><trkpt lat="44.03859647724818" lon="12.396336805203712"><ele>60.400000000000006</ele><time>2026-03-28T10:17:40.001Z</time></trkpt><trkpt lat="44.03869021882383" lon="12.396416812186049"><ele>59.599999999999994</ele><time>2026-03-28T10:17:42.001Z</time></trkpt><trkpt lat="44.038780934374245" lon="12.396498959923909"><ele>58.8</ele><time>2026-03-28T10:17:44.001Z</time></trkpt><trkpt lat="44.03887032508755" lon="12.396582721221991"><ele>58.0</ele><time>2026-03-28T10:17:46.001Z</time></trkpt><trkpt lat="44.03895791917113" lon="12.396664114260723"><ele>58.0</ele><time>2026-03-28T10:17:48.001Z</time></trkpt><trkpt lat="44.03904127542929" lon="12.39674426480487"><ele>58.0</ele><time>2026-03-28T10:17:50.001Z</time></trkpt><trkpt lat="44.039125758240026" lon="12.396820020061732"><ele>58.0</ele><time>2026-03-28T10:17:52.001Z</time></trkpt><trkpt lat="44.03921260461189" lon="12.396899321295209"><ele>58.0</ele><time>2026-03-28T10:17:54.001Z</time></trkpt><trkpt lat="44.039297374509594" lon="12.396974993545202"><ele>58.0</ele><time>2026-03-28T10:17:56.001Z</time></trkpt><trkpt lat="44.039382950306646" lon="12.397044494420298"><ele>58.2</ele><time>2026-03-28T10:17:58.001Z</time></trkpt><trkpt lat="44.039466151911675" lon="12.397116778597969"><ele>58.4</ele><time>2026-03-28T10:18:00.001Z</time></trkpt><trkpt lat="44.03954728412832" lon="12.397193803821418"><ele>58.60000000000001</ele><time>2026-03-28T10:18:02.001Z</time></trkpt><trkpt lat="44.03963337549894" lon="12.39726758875869"><ele>58.800000000000004</ele><time>2026-03-28T10:18:04.001Z</time></trkpt><trkpt lat="44.039711288435434" lon="12.397354917468677"><ele>59.0</ele><time>2026-03-28T10:18:06.001Z</time></trkpt><trkpt lat="44.039784761519805" lon="12.397431947480934"><ele>59.0</ele><time>2026-03-28T10:18:08.001Z</time></trkpt><trkpt lat="44.039848390522835" lon="12.39751526933167"><ele>59.00000000000001</ele><time>2026-03-28T10:18:10.001Z</time></trkpt><trkpt lat="44.03997242586296" lon="12.397686084427574"><ele>59.00000000000001</ele><time>2026-03-28T10:18:14Z</time></trkpt><trkpt lat="44.04002839153603" lon="12.397783054753862"><ele>59.0</ele><time>2026-03-28T10:18:16Z</time></trkpt><trkpt lat="44.04008673443424" lon="12.397885546249354"><ele>59.0</ele><time>2026-03-28T10:18:18Z</time></trkpt><trkpt lat="44.04014508965347" lon="12.397989707661113"><ele>59.0</ele><time>2026-03-28T10:18:20Z</time></trkpt><trkpt lat="44.04019851946498" lon="12.398105864010727"><ele>59.00000000000001</ele><time>2026-03-28T10:18:22Z</time></trkpt><trkpt lat="44.04025390992139" lon="12.398220885176986"><ele>59.00000000000001</ele><time>2026-03-28T10:18:24Z</time></trkpt><trkpt lat="44.040309289509075" lon="12.398339799401894"><ele>59.0</ele><time>2026-03-28T10:18:26Z</time></trkpt><trkpt lat="44.04036560792724" lon="12.398462288778806"><ele>59.0</ele><time>2026-03-28T10:18:28Z</time></trkpt><trkpt lat="44.04042295144847" lon="12.39859116539744"><ele>59.0</ele><time>2026-03-28T10:18:30Z</time></trkpt><trkpt lat="44.04048050947474" lon="12.398729065440527"><ele>59.0</ele><time>2026-03-28T10:18:32Z</time></trkpt><trkpt lat="44.04054592219244" lon="12.39886276637635"><ele>59.0</ele><time>2026-03-28T10:18:34Z</time></trkpt><trkpt lat="44.04060975777708" lon="12.398998103312987"><ele>59.0</ele><time>2026-03-28T10:18:36Z</time></trkpt><trkpt lat="44.0406722582185" lon="12.399134121009409"><ele>59.0</ele><time>2026-03-28T10:18:38Z</time></trkpt><trkpt lat="44.040734471838924" lon="12.399270776071518"><ele>59.00000000000001</ele><time>2026-03-28T10:18:40Z</time></trkpt><trkpt lat="44.04080293496036" lon="12.39941115921788"><ele>59.00000000000001</ele><time>2026-03-28T10:18:42Z</time></trkpt><trkpt lat="44.04086921248854" lon="12.399554930163484"><ele>59.0</ele><time>2026-03-28T10:18:44Z</time></trkpt><trkpt lat="44.04089952613548" lon="12.399632031701294"><ele>59.0</ele><time>2026-03-28T10:18:45Z</time></trkpt><trkpt lat="44.040965792744764" lon="12.399779522298717"><ele>58.75</ele><time>2026-03-28T10:18:47Z</time></trkpt><trkpt lat="44.04103313007685" lon="12.399924485561296"><ele>58.5</ele><time>2026-03-28T10:18:49Z</time></trkpt><trkpt lat="44.0410964705473" lon="12.400070550818901"><ele>58.25</ele><time>2026-03-28T10:18:51Z</time></trkpt><trkpt lat="44.04116116980929" lon="12.400210538268524"><ele>58.0</ele><time>2026-03-28T10:18:53Z</time></trkpt><trkpt lat="44.04122809841108" lon="12.400355189797095"><ele>58.0</ele><time>2026-03-28T10:18:55Z</time></trkpt><trkpt lat="44.04129354958689" lon="12.400499317768068"><ele>58.0</ele><time>2026-03-28T10:18:57Z</time></trkpt><trkpt lat="44.041360937340826" lon="12.40063918464336"><ele>58.0</ele><time>2026-03-28T10:18:59Z</time></trkpt><trkpt lat="44.04142961150677" lon="12.400780787963539"><ele>58.0</ele><time>2026-03-28T10:19:01Z</time></trkpt><trkpt lat="44.04149473929461" lon="12.400922027943778"><ele>57.5</ele><time>2026-03-28T10:19:03Z</time></trkpt><trkpt lat="44.04156311935144" lon="12.401067740477913"><ele>57.0</ele><time>2026-03-28T10:19:05Z</time></trkpt><trkpt lat="44.04162957547169" lon="12.40120709813716"><ele>56.5</ele><time>2026-03-28T10:19:07Z</time></trkpt><trkpt lat="44.041690366482605" lon="12.401346042261714"><ele>56.0</ele><time>2026-03-28T10:19:09Z</time></trkpt><trkpt lat="44.04175570954899" lon="12.401482188388828"><ele>56.0</ele><time>2026-03-28T10:19:11Z</time></trkpt><trkpt lat="44.04181879055933" lon="12.401615835412363"><ele>56.0</ele><time>2026-03-28T10:19:13Z</time></trkpt><trkpt lat="44.04188234530128" lon="12.401750262379736"><ele>56.0</ele><time>2026-03-28T10:19:15Z</time></trkpt><trkpt lat="44.041945809488624" lon="12.401889226418081"><ele>56.0</ele><time>2026-03-28T10:19:17Z</time></trkpt><trkpt lat="44.04201004762684" lon="12.402028281755806"><ele>56.0</ele><time>2026-03-28T10:19:19Z</time></trkpt><trkpt lat="44.042074486730435" lon="12.402168497627354"><ele>56.0</ele><time>2026-03-28T10:19:21Z</time></trkpt><trkpt lat="44.04213756163218" lon="12.402311412979918"><ele>56.0</ele><time>2026-03-28T10:19:23Z</time></trkpt><trkpt lat="44.042207586991275" lon="12.402452283584035"><ele>56.0</ele><time>2026-03-28T10:19:25Z</time></trkpt><trkpt lat="44.04227387250859" lon="12.402595793095294"><ele>56.00000000000001</ele><time>2026-03-28T10:19:27Z</time></trkpt><trkpt lat="44.04231005964085" lon="12.402669926819184"><ele>56.0</ele><time>2026-03-28T10:19:28Z</time></trkpt><trkpt lat="44.04234487462347" lon="12.4027430717569"><ele>56.0</ele><time>2026-03-28T10:19:29Z</time></trkpt><trkpt lat="44.04241304834826" lon="12.402888123497004"><ele>56.0</ele><time>2026-03-28T10:19:31Z</time></trkpt><trkpt lat="44.0424458962917" lon="12.402963315488167"><ele>56.00000000000001</ele><time>2026-03-28T10:19:32Z</time></trkpt><trkpt lat="44.04251082528726" lon="12.40310949252801"><ele>56.0</ele><time>2026-03-28T10:19:34Z</time></trkpt><trkpt lat="44.04257339921731" lon="12.40324716163752"><ele>56.25</ele><time>2026-03-28T10:19:36Z</time></trkpt><trkpt lat="44.042636265433785" lon="12.403384732335756"><ele>56.5</ele><time>2026-03-28T10:19:38Z</time></trkpt><trkpt lat="44.042702705105356" lon="12.403519371189295"><ele>56.75</ele><time>2026-03-28T10:19:40Z</time></trkpt><trkpt lat="44.04276648501406" lon="12.40365448117852"><ele>57.0</ele><time>2026-03-28T10:19:42.001Z</time></trkpt><trkpt lat="44.042828548164266" lon="12.403795650617116"><ele>57.0</ele><time>2026-03-28T10:19:44.001Z</time></trkpt><trkpt lat="44.04289335559845" lon="12.403932332856067"><ele>57.0</ele><time>2026-03-28T10:19:46.001Z</time></trkpt><trkpt lat="44.04295709556051" lon="12.404068995997735"><ele>57.0</ele><time>2026-03-28T10:19:48.001Z</time></trkpt><trkpt lat="44.04302215436032" lon="12.404210140486185"><ele>57.0</ele><time>2026-03-28T10:19:50.001Z</time></trkpt><trkpt lat="44.043083497938916" lon="12.404344678236017"><ele>57.0</ele><time>2026-03-28T10:19:52.001Z</time></trkpt><trkpt lat="44.043143000966154" lon="12.404467866148632"><ele>57.0</ele><time>2026-03-28T10:19:54.001Z</time></trkpt><trkpt lat="44.043200539498464" lon="12.40459503487112"><ele>57.0</ele><time>2026-03-28T10:19:56.001Z</time></trkpt><trkpt lat="44.04326252395404" lon="12.404723330572898"><ele>57.0</ele><time>2026-03-28T10:19:58.001Z</time></trkpt><trkpt lat="44.043327137508896" lon="12.40485855077204"><ele>57.0</ele><time>2026-03-28T10:20:00.001Z</time></trkpt><trkpt lat="44.043389033723635" lon="12.404989744318865"><ele>56.5</ele><time>2026-03-28T10:20:02.001Z</time></trkpt><trkpt lat="44.043450816565986" lon="12.405121929698465"><ele>56.0</ele><time>2026-03-28T10:20:04.001Z</time></trkpt><trkpt lat="44.04351524860209" lon="12.405253019523872"><ele>55.5</ele><time>2026-03-28T10:20:06.001Z</time></trkpt><trkpt lat="44.04357955970678" lon="12.405384344273191"><ele>55.0</ele><time>2026-03-28T10:20:08.001Z</time></trkpt><trkpt lat="44.04364050530625" lon="12.405514399181673"><ele>54.75</ele><time>2026-03-28T10:20:10.001Z</time></trkpt><trkpt lat="44.04370075120288" lon="12.405645494505901"><ele>54.5</ele><time>2026-03-28T10:20:12.001Z</time></trkpt><trkpt lat="44.04376337000356" lon="12.405778943255317"><ele>54.25</ele><time>2026-03-28T10:20:14.001Z</time></trkpt><trkpt lat="44.04382716890813" lon="12.405916467447659"><ele>54.0</ele><time>2026-03-28T10:20:16.001Z</time></trkpt><trkpt lat="44.04388904338327" lon="12.406055137661195"><ele>54.0</ele><time>2026-03-28T10:20:18.001Z</time></trkpt><trkpt lat="44.043954317275286" lon="12.406190054220751"><ele>54.0</ele><time>2026-03-28T10:20:20Z</time></trkpt><trkpt lat="44.04401653958758" lon="12.406324492540422"><ele>54.0</ele><time>2026-03-28T10:20:22Z</time></trkpt><trkpt lat="44.04407821877427" lon="12.406459181543532"><ele>54.0</ele><time>2026-03-28T10:20:24Z</time></trkpt><trkpt lat="44.044140260611066" lon="12.406592624679085"><ele>53.75</ele><time>2026-03-28T10:20:26Z</time></trkpt><trkpt lat="44.04420554691119" lon="12.406731199290672"><ele>53.5</ele><time>2026-03-28T10:20:28Z</time></trkpt><trkpt lat="44.044264143377255" lon="12.406866010076829"><ele>53.25</ele><time>2026-03-28T10:20:30Z</time></trkpt><trkpt lat="44.04433060445805" lon="12.407002216158071"><ele>53.0</ele><time>2026-03-28T10:20:32Z</time></trkpt><trkpt lat="44.04439170620663" lon="12.407137956955047"><ele>53.25</ele><time>2026-03-28T10:20:34Z</time></trkpt><trkpt lat="44.04445759262444" lon="12.407270989763045"><ele>53.5</ele><time>2026-03-28T10:20:36Z</time></trkpt><trkpt lat="44.04452203686792" lon="12.407410212646218"><ele>53.75</ele><time>2026-03-28T10:20:38Z</time></trkpt><trkpt lat="44.04458158455655" lon="12.40754724991387"><ele>54.0</ele><time>2026-03-28T10:20:40Z</time></trkpt><trkpt lat="44.04464546685243" lon="12.407684935360686"><ele>54.0</ele><time>2026-03-28T10:20:42Z</time></trkpt><trkpt lat="44.04470819737413" lon="12.407816740631516"><ele>54.00000000000001</ele><time>2026-03-28T10:20:44Z</time></trkpt><trkpt lat="44.04476750391847" lon="12.407952980594306"><ele>54.00000000000001</ele><time>2026-03-28T10:20:46Z</time></trkpt><trkpt lat="44.04482802515045" lon="12.408087958792917"><ele>54.0</ele><time>2026-03-28T10:20:48Z</time></trkpt><trkpt lat="44.04489075544662" lon="12.408207622172322"><ele>54.0</ele><time>2026-03-28T10:20:50Z</time></trkpt><trkpt lat="44.044951072875584" lon="12.408336610374516"><ele>54.0</ele><time>2026-03-28T10:20:52Z</time></trkpt><trkpt lat="44.04501584499681" lon="12.408453143111522"><ele>54.00000000000001</ele><time>2026-03-28T10:20:54Z</time></trkpt><trkpt lat="44.045065703324134" lon="12.408576302339839"><ele>54.00000000000001</ele><time>2026-03-28T10:20:56Z</time></trkpt><trkpt lat="44.04509878157703" lon="12.40869565929159"><ele>54.0</ele><time>2026-03-28T10:20:58Z</time></trkpt><trkpt lat="44.04512346206173" lon="12.408826945168691"><ele>54.0</ele><time>2026-03-28T10:21:00Z</time></trkpt><trkpt lat="44.04521577645561" lon="12.408847186524461"><ele>53.800000000000004</ele><time>2026-03-28T10:21:02Z</time></trkpt><trkpt lat="44.045280721696685" lon="12.408720706833325"><ele>53.60000000000001</ele><time>2026-03-28T10:21:04Z</time></trkpt><trkpt lat="44.045322973013356" lon="12.4086040107917"><ele>53.4</ele><time>2026-03-28T10:21:06Z</time></trkpt><trkpt lat="44.045389575714054" lon="12.408531545267067"><ele>53.2</ele><time>2026-03-28T10:21:08Z</time></trkpt><trkpt lat="44.04546566381697" lon="12.408503642490615"><ele>53.0</ele><time>2026-03-28T10:21:10Z</time></trkpt><trkpt lat="44.04554201787173" lon="12.408463217265657"><ele>53.0</ele><time>2026-03-28T10:21:12Z</time></trkpt><trkpt lat="44.045616652015255" lon="12.408421891163508"><ele>53.0</ele><time>2026-03-28T10:21:14Z</time></trkpt><trkpt lat="44.045694933966296" lon="12.408357592519637"><ele>53.0</ele><time>2026-03-28T10:21:16Z</time></trkpt><trkpt lat="44.045775245068434" lon="12.408294392711761"><ele>53.0</ele><time>2026-03-28T10:21:18Z</time></trkpt><trkpt lat="44.04586029147338" lon="12.408218309734325"><ele>53.0</ele><time>2026-03-28T10:21:20Z</time></trkpt><trkpt lat="44.04594732134107" lon="12.408141397614827"><ele>52.8</ele><time>2026-03-28T10:21:22Z</time></trkpt><trkpt lat="44.0460345527769" lon="12.40806307504403"><ele>52.599999999999994</ele><time>2026-03-28T10:21:24Z</time></trkpt><trkpt lat="44.046125654845675" lon="12.4079857664196"><ele>52.400000000000006</ele><time>2026-03-28T10:21:26Z</time></trkpt><trkpt lat="44.046215979502" lon="12.407905799035326"><ele>52.2</ele><time>2026-03-28T10:21:28Z</time></trkpt><trkpt lat="44.04630632843952" lon="12.407825483809551"><ele>52.0</ele><time>2026-03-28T10:21:30Z</time></trkpt><trkpt lat="44.046398622245675" lon="12.407743298788963"><ele>52.0</ele><time>2026-03-28T10:21:32Z</time></trkpt><trkpt lat="44.046490223453056" lon="12.407655863790081"><ele>52.0</ele><time>2026-03-28T10:21:34Z</time></trkpt><trkpt lat="44.046583659835164" lon="12.407574044251195"><ele>52.0</ele><time>2026-03-28T10:21:36Z</time></trkpt><trkpt lat="44.04667890204805" lon="12.407492547785441"><ele>52.0</ele><time>2026-03-28T10:21:38Z</time></trkpt><trkpt lat="44.04677410668765" lon="12.407411697818317"><ele>52.0</ele><time>2026-03-28T10:21:40Z</time></trkpt><trkpt lat="44.046866682802644" lon="12.407331960132758"><ele>52.2</ele><time>2026-03-28T10:21:42Z</time></trkpt><trkpt lat="44.04695829794319" lon="12.407249610610892"><ele>52.400000000000006</ele><time>2026-03-28T10:21:44Z</time></trkpt><trkpt lat="44.04704705401028" lon="12.407169250902255"><ele>52.599999999999994</ele><time>2026-03-28T10:21:46Z</time></trkpt><trkpt lat="44.047134998354565" lon="12.40708995719047"><ele>52.8</ele><time>2026-03-28T10:21:48Z</time></trkpt><trkpt lat="44.047226888280484" lon="12.407009244577402"><ele>53.0</ele><time>2026-03-28T10:21:50Z</time></trkpt><trkpt lat="44.04731880000176" lon="12.406934107893752"><ele>53.0</ele><time>2026-03-28T10:21:52Z</time></trkpt><trkpt lat="44.04741065771457" lon="12.40685067152588"><ele>53.0</ele><time>2026-03-28T10:21:54Z</time></trkpt><trkpt lat="44.047502560597565" lon="12.406772544279471"><ele>53.0</ele><time>2026-03-28T10:21:56Z</time></trkpt><trkpt lat="44.04759315277575" lon="12.406693149996377"><ele>53.0</ele><time>2026-03-28T10:21:58Z</time></trkpt><trkpt lat="44.04768427394127" lon="12.406613301448685"><ele>53.0</ele><time>2026-03-28T10:22:00Z</time></trkpt><trkpt lat="44.04777265413813" lon="12.406534398832196"><ele>53.0</ele><time>2026-03-28T10:22:02Z</time></trkpt><trkpt lat="44.047859107281454" lon="12.406453316512271"><ele>53.0</ele><time>2026-03-28T10:22:04Z</time></trkpt><trkpt lat="44.04794316817155" lon="12.406372414399106"><ele>53.0</ele><time>2026-03-28T10:22:06Z</time></trkpt><trkpt lat="44.04802274376363" lon="12.406286553561527"><ele>53.0</ele><time>2026-03-28T10:22:08Z</time></trkpt><trkpt lat="44.04810359465671" lon="12.406197629423607"><ele>53.0</ele><time>2026-03-28T10:22:10Z</time></trkpt><trkpt lat="44.048175930708354" lon="12.406102074656122"><ele>53.0</ele><time>2026-03-28T10:22:12Z</time></trkpt><trkpt lat="44.048245658397306" lon="12.406002289014067"><ele>53.0</ele><time>2026-03-28T10:22:14Z</time></trkpt><trkpt lat="44.048312561110336" lon="12.405894963940046"><ele>53.0</ele><time>2026-03-28T10:22:16Z</time></trkpt><trkpt lat="44.04838088384626" lon="12.40578204965263"><ele>53.0</ele><time>2026-03-28T10:22:18.001Z</time></trkpt><trkpt lat="44.04844940273706" lon="12.40567049907007"><ele>53.0</ele><time>2026-03-28T10:22:20.001Z</time></trkpt><trkpt lat="44.0485159630768" lon="12.405557092003829"><ele>52.4</ele><time>2026-03-28T10:22:22.001Z</time></trkpt><trkpt lat="44.04858027285796" lon="12.405445557512582"><ele>51.8</ele><time>2026-03-28T10:22:24.001Z</time></trkpt><trkpt lat="44.048640712281134" lon="12.405334105039708"><ele>51.2</ele><time>2026-03-28T10:22:26.001Z</time></trkpt><trkpt lat="44.048697041726165" lon="12.405227129714326"><ele>50.6</ele><time>2026-03-28T10:22:28.001Z</time></trkpt><trkpt lat="44.048750487565066" lon="12.40511069357624"><ele>50.0</ele><time>2026-03-28T10:22:30.001Z</time></trkpt><trkpt lat="44.04879723358871" lon="12.404992007519752"><ele>50.0</ele><time>2026-03-28T10:22:32Z</time></trkpt><trkpt lat="44.0488399515189" lon="12.40487158926005"><ele>50.0</ele><time>2026-03-28T10:22:34Z</time></trkpt><trkpt lat="44.0488731708687" lon="12.404748797715039"><ele>50.0</ele><time>2026-03-28T10:22:36Z</time></trkpt><trkpt lat="44.048906449250616" lon="12.404632807027447"><ele>50.0</ele><time>2026-03-28T10:22:38Z</time></trkpt><trkpt lat="44.048934079654536" lon="12.404516240851637"><ele>50.0</ele><time>2026-03-28T10:22:40Z</time></trkpt><trkpt lat="44.04896147944906" lon="12.404397827546086"><ele>50.66666666666667</ele><time>2026-03-28T10:22:42Z</time></trkpt><trkpt lat="44.04898860742973" lon="12.404281626127414"><ele>51.333333333333336</ele><time>2026-03-28T10:22:44Z</time></trkpt><trkpt lat="44.04901615828292" lon="12.404162285943697"><ele>52.0</ele><time>2026-03-28T10:22:46Z</time></trkpt><trkpt lat="44.049045517631285" lon="12.404042652941447"><ele>52.66666666666667</ele><time>2026-03-28T10:22:48Z</time></trkpt><trkpt lat="44.04907554434625" lon="12.403923867101387"><ele>53.333333333333336</ele><time>2026-03-28T10:22:50Z</time></trkpt><trkpt lat="44.04910474166515" lon="12.403807342134575"><ele>54.0</ele><time>2026-03-28T10:22:52Z</time></trkpt><trkpt lat="44.04913631049506" lon="12.403692115618268"><ele>54.333333333333336</ele><time>2026-03-28T10:22:54Z</time></trkpt><trkpt lat="44.049171239310986" lon="12.4035808600969"><ele>54.66666666666667</ele><time>2026-03-28T10:22:56Z</time></trkpt><trkpt lat="44.04920906307398" lon="12.403476803950936"><ele>55.0</ele><time>2026-03-28T10:22:58Z</time></trkpt><trkpt lat="44.049247082114" lon="12.403382860826548"><ele>55.333333333333336</ele><time>2026-03-28T10:23:00Z</time></trkpt><trkpt lat="44.04928815984479" lon="12.403289786201272"><ele>55.66666666666667</ele><time>2026-03-28T10:23:02Z</time></trkpt><trkpt lat="44.04933541874328" lon="12.403206387178216"><ele>56.0</ele><time>2026-03-28T10:23:04Z</time></trkpt><trkpt lat="44.04938500637865" lon="12.403126159216175"><ele>56.00000000000001</ele><time>2026-03-28T10:23:06Z</time></trkpt><trkpt lat="44.04943804186917" lon="12.403046985255553"><ele>56.0</ele><time>2026-03-28T10:23:08Z</time></trkpt><trkpt lat="44.04949316522423" lon="12.402972029993494"><ele>56.0</ele><time>2026-03-28T10:23:10Z</time></trkpt><trkpt lat="44.04955546776709" lon="12.402901719827753"><ele>56.0</ele><time>2026-03-28T10:23:12Z</time></trkpt><trkpt lat="44.04962311410071" lon="12.402842905003492"><ele>56.00000000000001</ele><time>2026-03-28T10:23:14Z</time></trkpt><trkpt lat="44.04969572187019" lon="12.402790635783699"><ele>56.0</ele><time>2026-03-28T10:23:16Z</time></trkpt><trkpt lat="44.049777701634035" lon="12.402770844450586"><ele>56.199999999999996</ele><time>2026-03-28T10:23:18Z</time></trkpt><trkpt lat="44.049863724589606" lon="12.402768105067047"><ele>56.39999999999999</ele><time>2026-03-28T10:23:20Z</time></trkpt><trkpt lat="44.04995377273613" lon="12.402783656978986"><ele>56.6</ele><time>2026-03-28T10:23:22Z</time></trkpt><trkpt lat="44.05004209058901" lon="12.40282108623715"><ele>56.8</ele><time>2026-03-28T10:23:24Z</time></trkpt><trkpt lat="44.0501307523849" lon="12.40286135537664"><ele>57.0</ele><time>2026-03-28T10:23:26Z</time></trkpt><trkpt lat="44.05021803012597" lon="12.402906674598707"><ele>57.0</ele><time>2026-03-28T10:23:28Z</time></trkpt><trkpt lat="44.050306214570064" lon="12.402943375179843"><ele>57.0</ele><time>2026-03-28T10:23:30Z</time></trkpt><trkpt lat="44.05040198446881" lon="12.402988522198072"><ele>57.0</ele><time>2026-03-28T10:23:32Z</time></trkpt><trkpt lat="44.050504873554395" lon="12.403041135663402"><ele>57.0</ele><time>2026-03-28T10:23:34Z</time></trkpt><trkpt lat="44.050616383167586" lon="12.403095005468789"><ele>57.0</ele><time>2026-03-28T10:23:36Z</time></trkpt><trkpt lat="44.05067534843664" lon="12.403129041459762"><ele>56.666666666666664</ele><time>2026-03-28T10:23:37Z</time></trkpt><trkpt lat="44.050733951840016" lon="12.403169471671138"><ele>56.33333333333333</ele><time>2026-03-28T10:23:38Z</time></trkpt><trkpt lat="44.05079120695628" lon="12.403212403556447"><ele>56.0</ele><time>2026-03-28T10:23:39Z</time></trkpt><trkpt lat="44.050849986925584" lon="12.403255472366702"><ele>55.666666666666664</ele><time>2026-03-28T10:23:40Z</time></trkpt><trkpt lat="44.05096213701534" lon="12.403351792203699"><ele>55.33333333333333</ele><time>2026-03-28T10:23:42Z</time></trkpt><trkpt lat="44.051015598238315" lon="12.40340022876002"><ele>55.0</ele><time>2026-03-28T10:23:43Z</time></trkpt><trkpt lat="44.05106442712985" lon="12.40346041271461"><ele>54.857142857142854</ele><time>2026-03-28T10:23:44Z</time></trkpt><trkpt lat="44.05112066682431" lon="12.403511701036148"><ele>54.714285714285715</ele><time>2026-03-28T10:23:45Z</time></trkpt><trkpt lat="44.05117900223401" lon="12.403562453230396"><ele>54.57142857142857</ele><time>2026-03-28T10:23:46Z</time></trkpt><trkpt lat="44.051236826956575" lon="12.403610370270831"><ele>54.42857142857143</ele><time>2026-03-28T10:23:47Z</time></trkpt><trkpt lat="44.05129311211307" lon="12.403661637439821"><ele>54.285714285714285</ele><time>2026-03-28T10:23:48Z</time></trkpt><trkpt lat="44.05134759814768" lon="12.403717399670048"><ele>54.14285714285714</ele><time>2026-03-28T10:23:49Z</time></trkpt><trkpt lat="44.0514012958588" lon="12.40376917994805"><ele>54.0</ele><time>2026-03-28T10:23:50Z</time></trkpt><trkpt lat="44.05145901700772" lon="12.403822742725085"><ele>53.5</ele><time>2026-03-28T10:23:51Z</time></trkpt><trkpt lat="44.05151481763875" lon="12.40388035849412"><ele>53.0</ele><time>2026-03-28T10:23:52Z</time></trkpt><trkpt lat="44.051571745047426" lon="12.403924040554825"><ele>52.5</ele><time>2026-03-28T10:23:53Z</time></trkpt><trkpt lat="44.05163067214654" lon="12.40397390090323"><ele>52.0</ele><time>2026-03-28T10:23:54Z</time></trkpt><trkpt lat="44.05168895469105" lon="12.404014018169264"><ele>51.5</ele><time>2026-03-28T10:23:55Z</time></trkpt><trkpt lat="44.05181531776077" lon="12.404072624527247"><ele>51.0</ele><time>2026-03-28T10:23:57Z</time></trkpt><trkpt lat="44.051879450262234" lon="12.404092910717718"><ele>51.0</ele><time>2026-03-28T10:23:58Z</time></trkpt><trkpt lat="44.0519462797514" lon="12.404093257074571"><ele>51.0</ele><time>2026-03-28T10:23:59Z</time></trkpt><trkpt lat="44.05201351968084" lon="12.404086658031039"><ele>51.0</ele><time>2026-03-28T10:24:00Z</time></trkpt><trkpt lat="44.05207766412057" lon="12.404062630271266"><ele>51.0</ele><time>2026-03-28T10:24:01Z</time></trkpt><trkpt lat="44.052141760386135" lon="12.404041036422278"><ele>51.0</ele><time>2026-03-28T10:24:02Z</time></trkpt><trkpt lat="44.052203305726124" lon="12.404008898243905"><ele>51.0</ele><time>2026-03-28T10:24:03Z</time></trkpt><trkpt lat="44.05226499421835" lon="12.403975694311029"><ele>51.0</ele><time>2026-03-28T10:24:04Z</time></trkpt><trkpt lat="44.05232545620627" lon="12.403939867213346"><ele>51.0</ele><time>2026-03-28T10:24:05Z</time></trkpt><trkpt lat="44.05238556878469" lon="12.403899607165338"><ele>51.0</ele><time>2026-03-28T10:24:06Z</time></trkpt><trkpt lat="44.05244229743768" lon="12.403860794678419"><ele>51.0</ele><time>2026-03-28T10:24:07Z</time></trkpt><trkpt lat="44.05255194102135" lon="12.403790988294322"><ele>51.0</ele><time>2026-03-28T10:24:09Z</time></trkpt><trkpt lat="44.05265949105635" lon="12.403713172124816"><ele>51.0</ele><time>2026-03-28T10:24:11Z</time></trkpt><trkpt lat="44.05276608825075" lon="12.403652753444344"><ele>50.8</ele><time>2026-03-28T10:24:13Z</time></trkpt><trkpt lat="44.05282835795077" lon="12.40361477588734"><ele>50.599999999999994</ele><time>2026-03-28T10:24:14Z</time></trkpt><trkpt lat="44.05292563353279" lon="12.403547636403891"><ele>50.4</ele><time>2026-03-28T10:24:16Z</time></trkpt><trkpt lat="44.05302477155175" lon="12.403486305193507"><ele>50.2</ele><time>2026-03-28T10:24:18Z</time></trkpt><trkpt lat="44.053126968882204" lon="12.403427807500005"><ele>50.0</ele><time>2026-03-28T10:24:20Z</time></trkpt><trkpt lat="44.053234946985" lon="12.403356194673462"><ele>50.0</ele><time>2026-03-28T10:24:22Z</time></trkpt><trkpt lat="44.05333812715955" lon="12.403285922600022"><ele>50.0</ele><time>2026-03-28T10:24:24Z</time></trkpt><trkpt lat="44.053444348054605" lon="12.403218883708732"><ele>50.0</ele><time>2026-03-28T10:24:26Z</time></trkpt><trkpt lat="44.0535515694811" lon="12.403151574589895"><ele>50.0</ele><time>2026-03-28T10:24:28Z</time></trkpt><trkpt lat="44.053658724418945" lon="12.403081377730178"><ele>50.0</ele><time>2026-03-28T10:24:30Z</time></trkpt><trkpt lat="44.05376640420611" lon="12.403010116513332"><ele>50.0</ele><time>2026-03-28T10:24:32Z</time></trkpt><trkpt lat="44.05387471414504" lon="12.402941249321373"><ele>50.0</ele><time>2026-03-28T10:24:34Z</time></trkpt><trkpt lat="44.05398338760965" lon="12.402869568237492"><ele>50.0</ele><time>2026-03-28T10:24:36Z</time></trkpt><trkpt lat="44.05409616776814" lon="12.402792433255064"><ele>49.8</ele><time>2026-03-28T10:24:38Z</time></trkpt><trkpt lat="44.05420286190353" lon="12.402722452665863"><ele>49.6</ele><time>2026-03-28T10:24:40Z</time></trkpt><trkpt lat="44.0543086260812" lon="12.402662525846342"><ele>49.400000000000006</ele><time>2026-03-28T10:24:42Z</time></trkpt><trkpt lat="44.05440707590545" lon="12.40259312432871"><ele>49.2</ele><time>2026-03-28T10:24:44Z</time></trkpt><trkpt lat="44.05450207283475" lon="12.402531628416709"><ele>49.0</ele><time>2026-03-28T10:24:46Z</time></trkpt><trkpt lat="44.05458968451133" lon="12.402471029817544"><ele>48.99999999999999</ele><time>2026-03-28T10:24:48Z</time></trkpt><trkpt lat="44.05467587287758" lon="12.402415648930749"><ele>49.0</ele><time>2026-03-28T10:24:50Z</time></trkpt><trkpt lat="44.054754910920956" lon="12.402359758701023"><ele>49.0</ele><time>2026-03-28T10:24:52Z</time></trkpt><trkpt lat="44.05483224618137" lon="12.402310070120588"><ele>49.0</ele><time>2026-03-28T10:24:54Z</time></trkpt><trkpt lat="44.05490476886638" lon="12.402257280413473"><ele>48.99999999999999</ele><time>2026-03-28T10:24:56Z</time></trkpt><trkpt lat="44.05497618194426" lon="12.402217360404945"><ele>49.0</ele><time>2026-03-28T10:24:58Z</time></trkpt><trkpt lat="44.055053795613546" lon="12.402168233997008"><ele>49.2</ele><time>2026-03-28T10:25:00Z</time></trkpt><trkpt lat="44.05513265038668" lon="12.40211351231222"><ele>49.400000000000006</ele><time>2026-03-28T10:25:02Z</time></trkpt><trkpt lat="44.05520795875288" lon="12.402053855413465"><ele>49.6</ele><time>2026-03-28T10:25:04Z</time></trkpt><trkpt lat="44.05528649696879" lon="12.402003900790543"><ele>49.8</ele><time>2026-03-28T10:25:06Z</time></trkpt><trkpt lat="44.05538148095903" lon="12.401971625733628"><ele>50.0</ele><time>2026-03-28T10:25:08Z</time></trkpt><trkpt lat="44.055479387068594" lon="12.401960949506737"><ele>50.0</ele><time>2026-03-28T10:25:10Z</time></trkpt><trkpt lat="44.055564181673354" lon="12.402025384991708"><ele>50.0</ele><time>2026-03-28T10:25:12Z</time></trkpt><trkpt lat="44.055632978404695" lon="12.402128364948522"><ele>50.0</ele><time>2026-03-28T10:25:14Z</time></trkpt><trkpt lat="44.055711850382885" lon="12.402220060096925"><ele>50.0</ele><time>2026-03-28T10:25:16Z</time></trkpt><trkpt lat="44.05579404057751" lon="12.402312525053242"><ele>50.0</ele><time>2026-03-28T10:25:18Z</time></trkpt><trkpt lat="44.0558729503458" lon="12.402409325404362"><ele>49.5</ele><time>2026-03-28T10:25:20Z</time></trkpt><trkpt lat="44.05595710465596" lon="12.402509779502585"><ele>49.0</ele><time>2026-03-28T10:25:22Z</time></trkpt><trkpt lat="44.05604255703981" lon="12.402616613801085"><ele>48.5</ele><time>2026-03-28T10:25:24Z</time></trkpt><trkpt lat="44.056132280575156" lon="12.402728093129657"><ele>48.0</ele><time>2026-03-28T10:25:26Z</time></trkpt><trkpt lat="44.05622185066967" lon="12.402834543862545"><ele>48.0</ele><time>2026-03-28T10:25:28Z</time></trkpt><trkpt lat="44.05630425231391" lon="12.40292741066125"><ele>48.0</ele><time>2026-03-28T10:25:30Z</time></trkpt><trkpt lat="44.05638855528559" lon="12.40302014679845"><ele>48.0</ele><time>2026-03-28T10:25:32Z</time></trkpt><trkpt lat="44.0564678586651" lon="12.403123001389256"><ele>48.0</ele><time>2026-03-28T10:25:34Z</time></trkpt><trkpt lat="44.056555075983724" lon="12.403225684727078"><ele>48.0</ele><time>2026-03-28T10:25:36Z</time></trkpt><trkpt lat="44.05663340162165" lon="12.403330555187024"><ele>47.25</ele><time>2026-03-28T10:25:38Z</time></trkpt><trkpt lat="44.05671704392538" lon="12.403435470113891"><ele>46.5</ele><time>2026-03-28T10:25:40Z</time></trkpt><trkpt lat="44.05680495256654" lon="12.403536834890371"><ele>45.75</ele><time>2026-03-28T10:25:42Z</time></trkpt><trkpt lat="44.0568915161242" lon="12.403648862975407"><ele>45.0</ele><time>2026-03-28T10:25:44Z</time></trkpt><trkpt lat="44.05698008978601" lon="12.40374892621324"><ele>45.0</ele><time>2026-03-28T10:25:46Z</time></trkpt><trkpt lat="44.05706691018895" lon="12.403858213575864"><ele>45.0</ele><time>2026-03-28T10:25:48Z</time></trkpt><trkpt lat="44.05711350310808" lon="12.403917164505403"><ele>45.0</ele><time>2026-03-28T10:25:49Z</time></trkpt><trkpt lat="44.05720469198505" lon="12.404022901939197"><ele>45.0</ele><time>2026-03-28T10:25:51Z</time></trkpt><trkpt lat="44.05729746751103" lon="12.404131052650717"><ele>45.0</ele><time>2026-03-28T10:25:53Z</time></trkpt><trkpt lat="44.05734474973615" lon="12.404191596063367"><ele>45.0</ele><time>2026-03-28T10:25:54Z</time></trkpt><trkpt lat="44.05743000944781" lon="12.404289369103243"><ele>45.0</ele><time>2026-03-28T10:25:56Z</time></trkpt><trkpt lat="44.05751247326697" lon="12.404413246844287"><ele>45.0</ele><time>2026-03-28T10:25:58Z</time></trkpt><trkpt lat="44.05761607182127" lon="12.404505353676027"><ele>45.0</ele><time>2026-03-28T10:26:00Z</time></trkpt><trkpt lat="44.05769815518449" lon="12.40461195996689"><ele>45.333333333333336</ele><time>2026-03-28T10:26:02Z</time></trkpt><trkpt lat="44.057747258185316" lon="12.404721816670941"><ele>45.666666666666664</ele><time>2026-03-28T10:26:04Z</time></trkpt><trkpt lat="44.05778856709683" lon="12.404838368726299"><ele>46.0</ele><time>2026-03-28T10:26:06Z</time></trkpt><trkpt lat="44.05783171907585" lon="12.404949506404824"><ele>46.33333333333333</ele><time>2026-03-28T10:26:08Z</time></trkpt><trkpt lat="44.05790663799918" lon="12.404995760118695"><ele>46.666666666666664</ele><time>2026-03-28T10:26:10Z</time></trkpt><trkpt lat="44.057971562760535" lon="12.404908667982797"><ele>47.0</ele><time>2026-03-28T10:26:12Z</time></trkpt><trkpt lat="44.0579903140034" lon="12.404791241010832"><ele>47.0</ele><time>2026-03-28T10:26:14Z</time></trkpt><trkpt lat="44.0580109340238" lon="12.404683698022653"><ele>47.0</ele><time>2026-03-28T10:26:16Z</time></trkpt><trkpt lat="44.05803877612639" lon="12.404578412118754"><ele>47.0</ele><time>2026-03-28T10:26:18Z</time></trkpt><trkpt lat="44.05805556553065" lon="12.404469300230353"><ele>47.0</ele><time>2026-03-28T10:26:20Z</time></trkpt><trkpt lat="44.058067371503284" lon="12.404358732252678"><ele>47.0</ele><time>2026-03-28T10:26:22Z</time></trkpt><trkpt lat="44.05808519382547" lon="12.404243400336702"><ele>47.0</ele><time>2026-03-28T10:26:24Z</time></trkpt><trkpt lat="44.058097394239375" lon="12.404128513452756"><ele>47.0</ele><time>2026-03-28T10:26:26Z</time></trkpt><trkpt lat="44.05810863098624" lon="12.404003012779713"><ele>47.0</ele><time>2026-03-28T10:26:28Z</time></trkpt><trkpt lat="44.05813443729331" lon="12.403878490317208"><ele>47.0</ele><time>2026-03-28T10:26:30Z</time></trkpt><trkpt lat="44.05818020331855" lon="12.403758993572788"><ele>47.0</ele><time>2026-03-28T10:26:32Z</time></trkpt><trkpt lat="44.05823981235744" lon="12.403649190280323"><ele>47.0</ele><time>2026-03-28T10:26:34Z</time></trkpt><trkpt lat="44.058302782892156" lon="12.40355348981367"><ele>46.6</ele><time>2026-03-28T10:26:36Z</time></trkpt><trkpt lat="44.058369637047186" lon="12.403447951900565"><ele>46.2</ele><time>2026-03-28T10:26:38Z</time></trkpt><trkpt lat="44.05844403693235" lon="12.403347748366015"><ele>45.8</ele><time>2026-03-28T10:26:40Z</time></trkpt><trkpt lat="44.05851800401951" lon="12.403246189076734"><ele>45.4</ele><time>2026-03-28T10:26:42Z</time></trkpt><trkpt lat="44.05859802261228" lon="12.403138422580513"><ele>45.0</ele><time>2026-03-28T10:26:44Z</time></trkpt><trkpt lat="44.05868940356533" lon="12.403040660228772"><ele>45.2</ele><time>2026-03-28T10:26:46Z</time></trkpt><trkpt lat="44.05878174441309" lon="12.402944561672747"><ele>45.4</ele><time>2026-03-28T10:26:48Z</time></trkpt><trkpt lat="44.05887281505628" lon="12.402861175560655"><ele>45.599999999999994</ele><time>2026-03-28T10:26:50Z</time></trkpt><trkpt lat="44.058957751062785" lon="12.4027817637214"><ele>45.8</ele><time>2026-03-28T10:26:52Z</time></trkpt><trkpt lat="44.05904093451508" lon="12.40270582535434"><ele>46.0</ele><time>2026-03-28T10:26:54Z</time></trkpt><trkpt lat="44.05911459499518" lon="12.402629909955174"><ele>45.599999999999994</ele><time>2026-03-28T10:26:56Z</time></trkpt><trkpt lat="44.05919720015513" lon="12.402556413733793"><ele>45.2</ele><time>2026-03-28T10:26:58Z</time></trkpt><trkpt lat="44.05928816375622" lon="12.402476719169304"><ele>44.8</ele><time>2026-03-28T10:27:00Z</time></trkpt><trkpt lat="44.05938033275198" lon="12.402394633302874"><ele>44.400000000000006</ele><time>2026-03-28T10:27:02Z</time></trkpt><trkpt lat="44.05947607161988" lon="12.402302555127518"><ele>44.0</ele><time>2026-03-28T10:27:04Z</time></trkpt><trkpt lat="44.059573165656815" lon="12.402220704882494"><ele>44.0</ele><time>2026-03-28T10:27:06Z</time></trkpt><trkpt lat="44.05967047013404" lon="12.402142742010343"><ele>44.0</ele><time>2026-03-28T10:27:08Z</time></trkpt><trkpt lat="44.05976725810568" lon="12.402057581809446"><ele>44.0</ele><time>2026-03-28T10:27:10Z</time></trkpt><trkpt lat="44.05986339874569" lon="12.401982440857395"><ele>44.0</ele><time>2026-03-28T10:27:12Z</time></trkpt><trkpt lat="44.05996065823242" lon="12.401892755114833"><ele>44.0</ele><time>2026-03-28T10:27:14Z</time></trkpt><trkpt lat="44.06005968755431" lon="12.401799366387579"><ele>44.0</ele><time>2026-03-28T10:27:16Z</time></trkpt><trkpt lat="44.06015699344509" lon="12.401722611182324"><ele>44.0</ele><time>2026-03-28T10:27:18Z</time></trkpt><trkpt lat="44.06024280780867" lon="12.401647794494902"><ele>44.0</ele><time>2026-03-28T10:27:20Z</time></trkpt><trkpt lat="44.06032727821163" lon="12.401583332051914"><ele>44.0</ele><time>2026-03-28T10:27:22Z</time></trkpt><trkpt lat="44.06041545267521" lon="12.401511331610893"><ele>44.0</ele><time>2026-03-28T10:27:24Z</time></trkpt><trkpt lat="44.0604999236234" lon="12.401442197462242"><ele>44.0</ele><time>2026-03-28T10:27:26Z</time></trkpt><trkpt lat="44.06058395493627" lon="12.40136645997879"><ele>44.0</ele><time>2026-03-28T10:27:28Z</time></trkpt><trkpt lat="44.06067500008887" lon="12.401296927900933"><ele>44.0</ele><time>2026-03-28T10:27:30Z</time></trkpt><trkpt lat="44.060763632522765" lon="12.401217142885644"><ele>44.0</ele><time>2026-03-28T10:27:32Z</time></trkpt><trkpt lat="44.06085720595614" lon="12.401139764263675"><ele>43.75</ele><time>2026-03-28T10:27:34Z</time></trkpt><trkpt lat="44.0609521099329" lon="12.40105682511068"><ele>43.5</ele><time>2026-03-28T10:27:36Z</time></trkpt><trkpt lat="44.06105254720544" lon="12.400977466527786"><ele>43.25</ele><time>2026-03-28T10:27:38Z</time></trkpt><trkpt lat="44.06115232288467" lon="12.400889544382705"><ele>43.0</ele><time>2026-03-28T10:27:40Z</time></trkpt><trkpt lat="44.06125627033194" lon="12.400789933732725"><ele>43.0</ele><time>2026-03-28T10:27:42Z</time></trkpt><trkpt lat="44.06136541384664" lon="12.400698968634119"><ele>43.0</ele><time>2026-03-28T10:27:44Z</time></trkpt><trkpt lat="44.061420304186946" lon="12.40065572496896"><ele>43.0</ele><time>2026-03-28T10:27:45Z</time></trkpt><trkpt lat="44.061516952768315" lon="12.400560695246979"><ele>43.0</ele><time>2026-03-28T10:27:47Z</time></trkpt><trkpt lat="44.06161359517368" lon="12.400480785102236"><ele>43.0</ele><time>2026-03-28T10:27:49Z</time></trkpt><trkpt lat="44.061707071870956" lon="12.400399639473434"><ele>42.599999999999994</ele><time>2026-03-28T10:27:51Z</time></trkpt><trkpt lat="44.06179752611948" lon="12.400331446685136"><ele>42.199999999999996</ele><time>2026-03-28T10:27:53Z</time></trkpt><trkpt lat="44.061890399378186" lon="12.40026661018269"><ele>41.8</ele><time>2026-03-28T10:27:55Z</time></trkpt><trkpt lat="44.061994306082916" lon="12.40023901167852"><ele>41.4</ele><time>2026-03-28T10:27:57Z</time></trkpt><trkpt lat="44.06209841412166" lon="12.400252499753073"><ele>41.0</ele><time>2026-03-28T10:27:59Z</time></trkpt><trkpt lat="44.062194231810025" lon="12.400291103688236"><ele>41.0</ele><time>2026-03-28T10:28:01Z</time></trkpt><trkpt lat="44.062286427345065" lon="12.400352704405702"><ele>41.0</ele><time>2026-03-28T10:28:03Z</time></trkpt><trkpt lat="44.062386316792946" lon="12.400416436944486"><ele>41.0</ele><time>2026-03-28T10:28:05Z</time></trkpt><trkpt lat="44.06248742384713" lon="12.400479797514699"><ele>41.0</ele><time>2026-03-28T10:28:07Z</time></trkpt><trkpt lat="44.06259086430597" lon="12.40054803757109"><ele>41.0</ele><time>2026-03-28T10:28:09Z</time></trkpt><trkpt lat="44.06269987649519" lon="12.400616019454485"><ele>41.199999999999996</ele><time>2026-03-28T10:28:11Z</time></trkpt><trkpt lat="44.06280972931241" lon="12.400678571954016"><ele>41.4</ele><time>2026-03-28T10:28:13Z</time></trkpt><trkpt lat="44.06286960811433" lon="12.400705883709813"><ele>41.6</ele><time>2026-03-28T10:28:14Z</time></trkpt><trkpt lat="44.062987911227836" lon="12.400752295967296"><ele>41.8</ele><time>2026-03-28T10:28:16Z</time></trkpt><trkpt lat="44.06311054784446" lon="12.400791368291717"><ele>42.0</ele><time>2026-03-28T10:28:18Z</time></trkpt><trkpt lat="44.0631741326886" lon="12.400810907521116"><ele>42.0</ele><time>2026-03-28T10:28:19Z</time></trkpt><trkpt lat="44.063238888258994" lon="12.400831558091083"><ele>42.0</ele><time>2026-03-28T10:28:20Z</time></trkpt><trkpt lat="44.063358662954286" lon="12.400869947567207"><ele>42.0</ele><time>2026-03-28T10:28:22Z</time></trkpt><trkpt lat="44.063474851579485" lon="12.40090163949236"><ele>42.0</ele><time>2026-03-28T10:28:24Z</time></trkpt><trkpt lat="44.06359229210498" lon="12.400945911875567"><ele>42.0</ele><time>2026-03-28T10:28:26Z</time></trkpt><trkpt lat="44.06365647490622" lon="12.40096231992066"><ele>41.714285714285715</ele><time>2026-03-28T10:28:27Z</time></trkpt><trkpt lat="44.063721684917695" lon="12.400981167197944"><ele>41.42857142857143</ele><time>2026-03-28T10:28:28Z</time></trkpt><trkpt lat="44.06378391981279" lon="12.401004038614381"><ele>41.14285714285714</ele><time>2026-03-28T10:28:29Z</time></trkpt><trkpt lat="44.063906463226495" lon="12.401036817485243"><ele>40.85714285714286</ele><time>2026-03-28T10:28:31Z</time></trkpt><trkpt lat="44.06397213607147" lon="12.401045495200158"><ele>40.57142857142857</ele><time>2026-03-28T10:28:32Z</time></trkpt><trkpt lat="44.0640352375787" lon="12.401060642811268"><ele>40.285714285714285</ele><time>2026-03-28T10:28:33Z</time></trkpt><trkpt lat="44.064098385080364" lon="12.40106788656201"><ele>40.0</ele><time>2026-03-28T10:28:34Z</time></trkpt><trkpt lat="44.06416286782672" lon="12.40106449884825"><ele>39.857142857142854</ele><time>2026-03-28T10:28:35Z</time></trkpt><trkpt lat="44.06422915332442" lon="12.401048195971041"><ele>39.714285714285715</ele><time>2026-03-28T10:28:36Z</time></trkpt><trkpt lat="44.06429571291725" lon="12.40103011610943"><ele>39.57142857142857</ele><time>2026-03-28T10:28:37Z</time></trkpt><trkpt lat="44.064357803500044" lon="12.40101182593246"><ele>39.42857142857143</ele><time>2026-03-28T10:28:38Z</time></trkpt><trkpt lat="44.064420214644" lon="12.400999544755814"><ele>39.285714285714285</ele><time>2026-03-28T10:28:39Z</time></trkpt><trkpt lat="44.06448715195088" lon="12.400983727653003"><ele>39.142857142857146</ele><time>2026-03-28T10:28:40Z</time></trkpt><trkpt lat="44.064549252408945" lon="12.400968010495504"><ele>39.0</ele><time>2026-03-28T10:28:41Z</time></trkpt><trkpt lat="44.064610926255725" lon="12.400945906333082"><ele>39.0</ele><time>2026-03-28T10:28:42Z</time></trkpt><trkpt lat="44.064677216849574" lon="12.400928980548406"><ele>39.0</ele><time>2026-03-28T10:28:43Z</time></trkpt><trkpt lat="44.06479632247465" lon="12.40089236040924"><ele>39.0</ele><time>2026-03-28T10:28:45Z</time></trkpt><trkpt lat="44.0648586933571" lon="12.400865314013076"><ele>39.0</ele><time>2026-03-28T10:28:46Z</time></trkpt><trkpt lat="44.06497919262782" lon="12.400827359161921"><ele>39.0</ele><time>2026-03-28T10:28:48Z</time></trkpt><trkpt lat="44.065102719906484" lon="12.40080044958139"><ele>38.833333333333336</ele><time>2026-03-28T10:28:50Z</time></trkpt><trkpt lat="44.065167817073856" lon="12.40078379796434"><ele>38.666666666666664</ele><time>2026-03-28T10:28:51Z</time></trkpt><trkpt lat="44.06523229547469" lon="12.40077318527824"><ele>38.5</ele><time>2026-03-28T10:28:52Z</time></trkpt><trkpt lat="44.065298235594575" lon="12.400766507483947"><ele>38.33333333333333</ele><time>2026-03-28T10:28:53Z</time></trkpt><trkpt lat="44.06536586016877" lon="12.40077135817241"><ele>38.166666666666664</ele><time>2026-03-28T10:28:54Z</time></trkpt><trkpt lat="44.06543245361445" lon="12.40076727595611"><ele>38.0</ele><time>2026-03-28T10:28:55Z</time></trkpt><trkpt lat="44.06555220825105" lon="12.400796283195334"><ele>38.0</ele><time>2026-03-28T10:28:57Z</time></trkpt><trkpt lat="44.065675984483015" lon="12.400831731058563"><ele>38.0</ele><time>2026-03-28T10:28:59Z</time></trkpt><trkpt lat="44.06573965052938" lon="12.400850641418671"><ele>38.0</ele><time>2026-03-28T10:29:00Z</time></trkpt><trkpt lat="44.065802708487325" lon="12.400879215231706"><ele>38.0</ele><time>2026-03-28T10:29:01Z</time></trkpt><trkpt lat="44.065861056807854" lon="12.400915388079891"><ele>38.0</ele><time>2026-03-28T10:29:02Z</time></trkpt><trkpt lat="44.06596701679348" lon="12.401000217281336"><ele>38.0</ele><time>2026-03-28T10:29:04Z</time></trkpt><trkpt lat="44.06607441970398" lon="12.401093306537447"><ele>38.0</ele><time>2026-03-28T10:29:06Z</time></trkpt><trkpt lat="44.0661823071558" lon="12.401180291192095"><ele>38.0</ele><time>2026-03-28T10:29:08Z</time></trkpt><trkpt lat="44.06623600742572" lon="12.401227323063381"><ele>38.0</ele><time>2026-03-28T10:29:09Z</time></trkpt><trkpt lat="44.066345327458635" lon="12.401317340008722"><ele>38.0</ele><time>2026-03-28T10:29:11Z</time></trkpt><trkpt lat="44.06645201147651" lon="12.401408332739562"><ele>38.0</ele><time>2026-03-28T10:29:13Z</time></trkpt><trkpt lat="44.066504849122445" lon="12.401456039109622"><ele>38.25</ele><time>2026-03-28T10:29:14Z</time></trkpt><trkpt lat="44.06660966837487" lon="12.401545558871078"><ele>38.5</ele><time>2026-03-28T10:29:16Z</time></trkpt><trkpt lat="44.06671640817098" lon="12.401636089529811"><ele>38.75</ele><time>2026-03-28T10:29:18Z</time></trkpt><trkpt lat="44.06682156480637" lon="12.401727390046995"><ele>39.0</ele><time>2026-03-28T10:29:20Z</time></trkpt><trkpt lat="44.06692787462376" lon="12.401816886980654"><ele>39.0</ele><time>2026-03-28T10:29:22Z</time></trkpt><trkpt lat="44.06703789563614" lon="12.401898412286398"><ele>39.0</ele><time>2026-03-28T10:29:24Z</time></trkpt><trkpt lat="44.06715128601942" lon="12.401966283055385"><ele>39.0</ele><time>2026-03-28T10:29:26Z</time></trkpt><trkpt lat="44.06726355055568" lon="12.402015757991647"><ele>39.0</ele><time>2026-03-28T10:29:28Z</time></trkpt><trkpt lat="44.06737592033925" lon="12.40206075000422"><ele>40.0</ele><time>2026-03-28T10:29:30Z</time></trkpt><trkpt lat="44.06748481965707" lon="12.402085087043538"><ele>41.0</ele><time>2026-03-28T10:29:32Z</time></trkpt><trkpt lat="44.06759504447138" lon="12.402102816808773"><ele>42.0</ele><time>2026-03-28T10:29:34Z</time></trkpt><trkpt lat="44.067709765517485" lon="12.40210307426829"><ele>43.0</ele><time>2026-03-28T10:29:36Z</time></trkpt><trkpt lat="44.06782406723963" lon="12.40209981413274"><ele>43.0</ele><time>2026-03-28T10:29:38Z</time></trkpt><trkpt lat="44.06793917565667" lon="12.402099011773512"><ele>43.0</ele><time>2026-03-28T10:29:40Z</time></trkpt><trkpt lat="44.06805200813015" lon="12.402090250717283"><ele>43.0</ele><time>2026-03-28T10:29:42Z</time></trkpt><trkpt lat="44.06816407728594" lon="12.40207944128132"><ele>43.0</ele><time>2026-03-28T10:29:44Z</time></trkpt><trkpt lat="44.06827500988206" lon="12.402062829023292"><ele>42.599999999999994</ele><time>2026-03-28T10:29:46Z</time></trkpt><trkpt lat="44.0683818716165" lon="12.40203946405748"><ele>42.199999999999996</ele><time>2026-03-28T10:29:48Z</time></trkpt><trkpt lat="44.06848222681264" lon="12.40200616113388"><ele>41.8</ele><time>2026-03-28T10:29:50Z</time></trkpt><trkpt lat="44.06857080817816" lon="12.401977514672723"><ele>41.4</ele><time>2026-03-28T10:29:52Z</time></trkpt><trkpt lat="44.068654085264285" lon="12.401941936733131"><ele>41.0</ele><time>2026-03-28T10:29:54Z</time></trkpt><trkpt lat="44.06872319074418" lon="12.40192259470647"><ele>41.0</ele><time>2026-03-28T10:29:57Z</time></trkpt><trkpt lat="44.06878796638129" lon="12.401874554761827"><ele>41.0</ele><time>2026-03-28T10:31:00Z</time></trkpt><trkpt lat="44.06886376308358" lon="12.401833629603033"><ele>41.0</ele><time>2026-03-28T10:31:03Z</time></trkpt><trkpt lat="44.06893488583638" lon="12.40180232978759"><ele>41.0</ele><time>2026-03-28T10:31:05Z</time></trkpt><trkpt lat="44.06901544288798" lon="12.40176527952105"><ele>41.0</ele><time>2026-03-28T10:31:07Z</time></trkpt><trkpt lat="44.06909584065347" lon="12.401724948609871"><ele>41.0</ele><time>2026-03-28T10:31:09Z</time></trkpt><trkpt lat="44.069196762721525" lon="12.401681870291387"><ele>40.4</ele><time>2026-03-28T10:31:11Z</time></trkpt><trkpt lat="44.06929482595303" lon="12.401637979423308"><ele>39.8</ele><time>2026-03-28T10:31:13Z</time></trkpt><trkpt lat="44.06938983664975" lon="12.401588277917766"><ele>39.199999999999996</ele><time>2026-03-28T10:31:15Z</time></trkpt><trkpt lat="44.06948654978634" lon="12.40154341238328"><ele>38.599999999999994</ele><time>2026-03-28T10:31:17Z</time></trkpt><trkpt lat="44.06958240237786" lon="12.401494481918276"><ele>38.0</ele><time>2026-03-28T10:31:19Z</time></trkpt><trkpt lat="44.06966943332007" lon="12.401435236704167"><ele>38.0</ele><time>2026-03-28T10:31:21Z</time></trkpt><trkpt lat="44.069753280592856" lon="12.401368269896546"><ele>38.0</ele><time>2026-03-28T10:31:23Z</time></trkpt><trkpt lat="44.06982878953537" lon="12.401281065891435"><ele>38.0</ele><time>2026-03-28T10:31:25Z</time></trkpt><trkpt lat="44.06989304199532" lon="12.401172894026432"><ele>38.0</ele><time>2026-03-28T10:31:27Z</time></trkpt><trkpt lat="44.06995252832209" lon="12.401050372986534"><ele>38.0</ele><time>2026-03-28T10:31:29Z</time></trkpt><trkpt lat="44.07000737195884" lon="12.400920462231788"><ele>37.8</ele><time>2026-03-28T10:31:31Z</time></trkpt><trkpt lat="44.070057453716565" lon="12.40079636367674"><ele>37.599999999999994</ele><time>2026-03-28T10:31:33Z</time></trkpt><trkpt lat="44.07011004584294" lon="12.40067527318565"><ele>37.400000000000006</ele><time>2026-03-28T10:31:35Z</time></trkpt><trkpt lat="44.07016177691615" lon="12.40055004896174"><ele>37.2</ele><time>2026-03-28T10:31:37Z</time></trkpt><trkpt lat="44.07021664199785" lon="12.40041794633766"><ele>37.0</ele><time>2026-03-28T10:31:39Z</time></trkpt><trkpt lat="44.07027187411411" lon="12.400286250638459"><ele>36.800000000000004</ele><time>2026-03-28T10:31:41Z</time></trkpt><trkpt lat="44.070329767694886" lon="12.40015627814009"><ele>36.6</ele><time>2026-03-28T10:31:43Z</time></trkpt><trkpt lat="44.0703854693214" lon="12.400022309190634"><ele>36.400000000000006</ele><time>2026-03-28T10:31:45Z</time></trkpt><trkpt lat="44.07044241870211" lon="12.399888050271676"><ele>36.2</ele><time>2026-03-28T10:31:47Z</time></trkpt><trkpt lat="44.07050298041552" lon="12.399752054895059"><ele>36.0</ele><time>2026-03-28T10:31:49Z</time></trkpt><trkpt lat="44.07057258568044" lon="12.399615978113273"><ele>35.75</ele><time>2026-03-28T10:31:51Z</time></trkpt><trkpt lat="44.070659726095556" lon="12.399501821838708"><ele>35.5</ele><time>2026-03-28T10:31:53Z</time></trkpt><trkpt lat="44.07074924256044" lon="12.399403313757185"><ele>35.25</ele><time>2026-03-28T10:31:55Z</time></trkpt><trkpt lat="44.070851705579486" lon="12.399322459939762"><ele>35.0</ele><time>2026-03-28T10:31:57Z</time></trkpt><trkpt lat="44.070953860008665" lon="12.39924602581689"><ele>35.0</ele><time>2026-03-28T10:31:59Z</time></trkpt><trkpt lat="44.07105237510247" lon="12.399166273574199"><ele>35.0</ele><time>2026-03-28T10:32:01Z</time></trkpt><trkpt lat="44.071149437815805" lon="12.399085109483245"><ele>35.0</ele><time>2026-03-28T10:32:03Z</time></trkpt><trkpt lat="44.07124790076214" lon="12.399004889148502"><ele>35.0</ele><time>2026-03-28T10:32:05Z</time></trkpt><trkpt lat="44.071349994122784" lon="12.398924800528121"><ele>35.0</ele><time>2026-03-28T10:32:07Z</time></trkpt><trkpt lat="44.07144893346808" lon="12.398839510137067"><ele>35.0</ele><time>2026-03-28T10:32:09Z</time></trkpt><trkpt lat="44.071546507943026" lon="12.398756950110252"><ele>35.0</ele><time>2026-03-28T10:32:11Z</time></trkpt><trkpt lat="44.07165087409434" lon="12.398673652328238"><ele>35.0</ele><time>2026-03-28T10:32:13Z</time></trkpt><trkpt lat="44.0717480248747" lon="12.398603660952954"><ele>35.2</ele><time>2026-03-28T10:32:15Z</time></trkpt><trkpt lat="44.071846984097746" lon="12.398543790402538"><ele>35.4</ele><time>2026-03-28T10:32:17Z</time></trkpt><trkpt lat="44.07194507752166" lon="12.398504349460385"><ele>35.6</ele><time>2026-03-28T10:32:19Z</time></trkpt><trkpt lat="44.07204229306442" lon="12.3984826956001"><ele>35.8</ele><time>2026-03-28T10:32:21Z</time></trkpt><trkpt lat="44.07213911203152" lon="12.398461778680128"><ele>36.0</ele><time>2026-03-28T10:32:23Z</time></trkpt><trkpt lat="44.07223445662676" lon="12.398434493376278"><ele>36.0</ele><time>2026-03-28T10:32:25Z</time></trkpt><trkpt lat="44.07231421150964" lon="12.398363695889504"><ele>36.0</ele><time>2026-03-28T10:32:27Z</time></trkpt><trkpt lat="44.07237161867112" lon="12.398251772036202"><ele>36.0</ele><time>2026-03-28T10:32:29Z</time></trkpt><trkpt lat="44.07242138378834" lon="12.398137903497704"><ele>36.0</ele><time>2026-03-28T10:32:31Z</time></trkpt><trkpt lat="44.07247667386209" lon="12.398026881138241"><ele>36.0</ele><time>2026-03-28T10:32:33Z</time></trkpt><trkpt lat="44.072534642815576" lon="12.397912606758304"><ele>35.4</ele><time>2026-03-28T10:32:35Z</time></trkpt><trkpt lat="44.07259130620316" lon="12.397799283670958"><ele>34.8</ele><time>2026-03-28T10:32:37Z</time></trkpt><trkpt lat="44.07263987645169" lon="12.397689798710207"><ele>34.199999999999996</ele><time>2026-03-28T10:32:39Z</time></trkpt><trkpt lat="44.0726950777633" lon="12.397595531030282"><ele>33.6</ele><time>2026-03-28T10:32:41Z</time></trkpt><trkpt lat="44.07274989136774" lon="12.397510352480882"><ele>33.0</ele><time>2026-03-28T10:32:43Z</time></trkpt><trkpt lat="44.07280717312849" lon="12.397412678331909"><ele>33.0</ele><time>2026-03-28T10:32:45Z</time></trkpt><trkpt lat="44.07286175382553" lon="12.397308101055055"><ele>33.0</ele><time>2026-03-28T10:32:47Z</time></trkpt><trkpt lat="44.072921329112404" lon="12.397204816694021"><ele>33.0</ele><time>2026-03-28T10:32:49Z</time></trkpt><trkpt lat="44.07297797735354" lon="12.397093991800457"><ele>33.0</ele><time>2026-03-28T10:32:51Z</time></trkpt><trkpt lat="44.07303659311838" lon="12.396982276562753"><ele>33.0</ele><time>2026-03-28T10:32:53Z</time></trkpt><trkpt lat="44.073092105312156" lon="12.396865188195498"><ele>33.0</ele><time>2026-03-28T10:32:55Z</time></trkpt><trkpt lat="44.073139094289246" lon="12.396743456122449"><ele>33.0</ele><time>2026-03-28T10:32:57Z</time></trkpt><trkpt lat="44.07317548888547" lon="12.396616338010366"><ele>33.0</ele><time>2026-03-28T10:32:59Z</time></trkpt><trkpt lat="44.073203761353824" lon="12.396480546504247"><ele>33.0</ele><time>2026-03-28T10:33:01Z</time></trkpt><trkpt lat="44.073219605643914" lon="12.396339843088095"><ele>33.0</ele><time>2026-03-28T10:33:03Z</time></trkpt><trkpt lat="44.07323731479867" lon="12.396212383440103"><ele>33.0</ele><time>2026-03-28T10:33:05Z</time></trkpt><trkpt lat="44.07325318156021" lon="12.39607730748427"><ele>33.0</ele><time>2026-03-28T10:33:07Z</time></trkpt><trkpt lat="44.073274966175596" lon="12.395938881356637"><ele>33.0</ele><time>2026-03-28T10:33:09Z</time></trkpt><trkpt lat="44.07329016456489" lon="12.395798438399334"><ele>33.0</ele><time>2026-03-28T10:33:11Z</time></trkpt><trkpt lat="44.07331159329727" lon="12.395656650573208"><ele>33.0</ele><time>2026-03-28T10:33:13Z</time></trkpt><trkpt lat="44.07333785522524" lon="12.395504463671145"><ele>33.199999999999996</ele><time>2026-03-28T10:33:15Z</time></trkpt><trkpt lat="44.07337286225624" lon="12.39535723364795"><ele>33.4</ele><time>2026-03-28T10:33:17Z</time></trkpt><trkpt lat="44.073398611646894" lon="12.395206276861966"><ele>33.599999999999994</ele><time>2026-03-28T10:33:19Z</time></trkpt><trkpt lat="44.07342132108293" lon="12.39505458169538"><ele>33.8</ele><time>2026-03-28T10:33:21Z</time></trkpt><trkpt lat="44.0734497666898" lon="12.394915982305925"><ele>34.0</ele><time>2026-03-28T10:33:23Z</time></trkpt><trkpt lat="44.07345523142936" lon="12.394775758274601"><ele>34.0</ele><time>2026-03-28T10:33:25Z</time></trkpt><trkpt lat="44.073459959858326" lon="12.394641277016408"><ele>34.0</ele><time>2026-03-28T10:33:27Z</time></trkpt><trkpt lat="44.073463855826134" lon="12.39449876646733"><ele>34.0</ele><time>2026-03-28T10:33:29Z</time></trkpt><trkpt lat="44.07345789224832" lon="12.394353185887516"><ele>34.0</ele><time>2026-03-28T10:33:31Z</time></trkpt><trkpt lat="44.0734464128548" lon="12.39423552107125"><ele>34.0</ele><time>2026-03-28T10:33:33Z</time></trkpt><trkpt lat="44.07342792733438" lon="12.394093619001069"><ele>34.0</ele><time>2026-03-28T10:33:35Z</time></trkpt><trkpt lat="44.073413391967776" lon="12.393964996113876"><ele>34.0</ele><time>2026-03-28T10:33:37Z</time></trkpt><trkpt lat="44.07339827251616" lon="12.393836824721165"><ele>34.0</ele><time>2026-03-28T10:33:39Z</time></trkpt><trkpt lat="44.073382740779884" lon="12.393706629949643"><ele>34.0</ele><time>2026-03-28T10:33:41Z</time></trkpt><trkpt lat="44.07336794944052" lon="12.393577698482227"><ele>34.0</ele><time>2026-03-28T10:33:43Z</time></trkpt><trkpt lat="44.07334655349105" lon="12.393449164103096"><ele>34.0</ele><time>2026-03-28T10:33:45Z</time></trkpt><trkpt lat="44.073344568207524" lon="12.393318208884663"><ele>34.0</ele><time>2026-03-28T10:33:47Z</time></trkpt><trkpt lat="44.07333734222567" lon="12.393186448895989"><ele>34.0</ele><time>2026-03-28T10:33:49Z</time></trkpt><trkpt lat="44.073321519557176" lon="12.393046633359967"><ele>34.0</ele><time>2026-03-28T10:33:51Z</time></trkpt><trkpt lat="44.07331013103932" lon="12.392905468427818"><ele>34.0</ele><time>2026-03-28T10:33:53Z</time></trkpt><trkpt lat="44.07330701925779" lon="12.392753196188325"><ele>34.0</ele><time>2026-03-28T10:33:55Z</time></trkpt><trkpt lat="44.07331820532396" lon="12.392595746031347"><ele>34.0</ele><time>2026-03-28T10:33:57Z</time></trkpt><trkpt lat="44.07333374331351" lon="12.392442975568976"><ele>34.0</ele><time>2026-03-28T10:33:59Z</time></trkpt><trkpt lat="44.0733578638343" lon="12.392288252522937"><ele>34.0</ele><time>2026-03-28T10:34:01Z</time></trkpt><trkpt lat="44.073382786755104" lon="12.392133491355912"><ele>33.8</ele><time>2026-03-28T10:34:03Z</time></trkpt><trkpt lat="44.07340392802469" lon="12.39198340507382"><ele>33.599999999999994</ele><time>2026-03-28T10:34:05Z</time></trkpt><trkpt lat="44.0734257765221" lon="12.391844527988985"><ele>33.4</ele><time>2026-03-28T10:34:07Z</time></trkpt><trkpt lat="44.073479083570824" lon="12.391732136937728"><ele>33.199999999999996</ele><time>2026-03-28T10:34:09Z</time></trkpt><trkpt lat="44.0735802114873" lon="12.391726162022023"><ele>33.0</ele><time>2026-03-28T10:34:11Z</time></trkpt><trkpt lat="44.073678555655476" lon="12.391720365635095"><ele>33.0</ele><time>2026-03-28T10:34:13Z</time></trkpt><trkpt lat="44.073781045728516" lon="12.391714664417243"><ele>33.0</ele><time>2026-03-28T10:34:15Z</time></trkpt><trkpt lat="44.0738936522082" lon="12.391710043843874"><ele>33.0</ele><time>2026-03-28T10:34:17Z</time></trkpt><trkpt lat="44.07400262408116" lon="12.391709837745"><ele>33.0</ele><time>2026-03-28T10:34:19Z</time></trkpt><trkpt lat="44.07411022110619" lon="12.39170495629491"><ele>33.0</ele><time>2026-03-28T10:34:21Z</time></trkpt><trkpt lat="44.07420700907449" lon="12.391692565386874"><ele>33.333333333333336</ele><time>2026-03-28T10:34:23Z</time></trkpt><trkpt lat="44.07429748124333" lon="12.391677380756182"><ele>33.666666666666664</ele><time>2026-03-28T10:34:25Z</time></trkpt><trkpt lat="44.07437404026028" lon="12.391668206928717"><ele>34.0</ele><time>2026-03-28T10:34:27Z</time></trkpt><trkpt lat="44.074451382930974" lon="12.391652238983722"><ele>34.33333333333333</ele><time>2026-03-28T10:34:29Z</time></trkpt><trkpt lat="44.074520853992105" lon="12.391653809368327"><ele>34.666666666666664</ele><time>2026-03-28T10:34:31Z</time></trkpt><trkpt lat="44.07459703243615" lon="12.39164162266289"><ele>35.0</ele><time>2026-03-28T10:34:33Z</time></trkpt><trkpt lat="44.07467335112051" lon="12.391634442939344"><ele>35.0</ele><time>2026-03-28T10:34:35Z</time></trkpt><trkpt lat="44.07474504826677" lon="12.39162440747461"><ele>35.0</ele><time>2026-03-28T10:34:37Z</time></trkpt><trkpt lat="44.07482022915131" lon="12.391624746933172"><ele>35.0</ele><time>2026-03-28T10:34:39Z</time></trkpt><trkpt lat="44.074892609954745" lon="12.391611275171616"><ele>35.0</ele><time>2026-03-28T10:34:41Z</time></trkpt><trkpt lat="44.07496780731438" lon="12.39161448123895"><ele>35.0</ele><time>2026-03-28T10:34:43Z</time></trkpt><trkpt lat="44.075044168879465" lon="12.391594670445093"><ele>35.0</ele><time>2026-03-28T10:34:45Z</time></trkpt><trkpt lat="44.075129917841316" lon="12.391575285527562"><ele>35.0</ele><time>2026-03-28T10:34:47Z</time></trkpt><trkpt lat="44.07521874214709" lon="12.391564535212455"><ele>35.0</ele><time>2026-03-28T10:34:49Z</time></trkpt><trkpt lat="44.075295705440276" lon="12.39155008690609"><ele>35.0</ele><time>2026-03-28T10:34:51Z</time></trkpt><trkpt lat="44.0753638508122" lon="12.391540049356385"><ele>35.0</ele><time>2026-03-28T10:34:53Z</time></trkpt><trkpt lat="44.07544347719208" lon="12.391529458927131"><ele>35.0</ele><time>2026-03-28T10:34:55Z</time></trkpt><trkpt lat="44.07551914363542" lon="12.391519297213092"><ele>35.0</ele><time>2026-03-28T10:34:57Z</time></trkpt><trkpt lat="44.07559715084332" lon="12.391511160169216"><ele>35.0</ele><time>2026-03-28T10:34:59Z</time></trkpt><trkpt lat="44.07567450296731" lon="12.391503666600993"><ele>35.0</ele><time>2026-03-28T10:35:01Z</time></trkpt><trkpt lat="44.075752358790055" lon="12.391494470134605"><ele>35.0</ele><time>2026-03-28T10:35:03Z</time></trkpt><trkpt lat="44.07583432439413" lon="12.39148852883512"><ele>35.0</ele><time>2026-03-28T10:35:05Z</time></trkpt><trkpt lat="44.07592163559737" lon="12.391482231885254"><ele>35.0</ele><time>2026-03-28T10:35:07Z</time></trkpt><trkpt lat="44.07599775089959" lon="12.391473303534884"><ele>35.0</ele><time>2026-03-28T10:35:09Z</time></trkpt><trkpt lat="44.07606056760012" lon="12.391467099279888"><ele>34.83333333333333</ele><time>2026-03-28T10:35:11Z</time></trkpt><trkpt lat="44.07615014450466" lon="12.391468009615195"><ele>34.666666666666664</ele><time>2026-03-28T10:35:14Z</time></trkpt><trkpt lat="44.07621814967731" lon="12.391467959886716"><ele>34.5</ele><time>2026-03-28T10:35:16Z</time></trkpt><trkpt lat="44.07628989720985" lon="12.391465252349585"><ele>34.333333333333336</ele><time>2026-03-28T10:35:18Z</time></trkpt><trkpt lat="44.076367304139055" lon="12.391468520065358"><ele>34.16666666666667</ele><time>2026-03-28T10:35:20Z</time></trkpt><trkpt lat="44.076442292109896" lon="12.391477495817412"><ele>34.0</ele><time>2026-03-28T10:35:22Z</time></trkpt><trkpt lat="44.076511162474226" lon="12.391480611249536"><ele>34.0</ele><time>2026-03-28T10:35:24Z</time></trkpt><trkpt lat="44.07658180233285" lon="12.39148888160359"><ele>34.0</ele><time>2026-03-28T10:35:26Z</time></trkpt><trkpt lat="44.076660207590685" lon="12.391496213764372"><ele>34.0</ele><time>2026-03-28T10:35:28Z</time></trkpt><trkpt lat="44.07674153427734" lon="12.39150752484469"><ele>34.0</ele><time>2026-03-28T10:35:30Z</time></trkpt><trkpt lat="44.076822149821794" lon="12.391519300375643"><ele>34.0</ele><time>2026-03-28T10:35:32Z</time></trkpt><trkpt lat="44.07690243970402" lon="12.391528551980864"><ele>34.0</ele><time>2026-03-28T10:35:34Z</time></trkpt><trkpt lat="44.076985053729075" lon="12.391539046689054"><ele>33.833333333333336</ele><time>2026-03-28T10:35:36Z</time></trkpt><trkpt lat="44.077070679270115" lon="12.391554652092296"><ele>33.66666666666667</ele><time>2026-03-28T10:35:38Z</time></trkpt><trkpt lat="44.07715812379886" lon="12.391575639046417"><ele>33.5</ele><time>2026-03-28T10:35:40Z</time></trkpt><trkpt lat="44.07724080151115" lon="12.391602172158347"><ele>33.333333333333336</ele><time>2026-03-28T10:35:42Z</time></trkpt><trkpt lat="44.07732828093229" lon="12.391626797649828"><ele>33.166666666666664</ele><time>2026-03-28T10:35:44Z</time></trkpt><trkpt lat="44.07741449888505" lon="12.39165547931901"><ele>33.0</ele><time>2026-03-28T10:35:46Z</time></trkpt><trkpt lat="44.07748404956285" lon="12.391661206089392"><ele>32.833333333333336</ele><time>2026-03-28T10:35:48Z</time></trkpt><trkpt lat="44.07754300112307" lon="12.391608098655354"><ele>32.666666666666664</ele><time>2026-03-28T10:36:39Z</time></trkpt><trkpt lat="44.077572728911214" lon="12.391523218296703"><ele>32.5</ele><time>2026-03-28T10:36:43Z</time></trkpt><trkpt lat="44.077596155753476" lon="12.39143772873607"><ele>32.33333333333333</ele><time>2026-03-28T10:36:45Z</time></trkpt><trkpt lat="44.07763493883687" lon="12.391349355768277"><ele>32.166666666666664</ele><time>2026-03-28T10:36:47Z</time></trkpt><trkpt lat="44.07767389722529" lon="12.391245959772595"><ele>32.0</ele><time>2026-03-28T10:36:49Z</time></trkpt><trkpt lat="44.07771409153341" lon="12.391133050716558"><ele>32.6</ele><time>2026-03-28T10:36:51Z</time></trkpt><trkpt lat="44.0777620211949" lon="12.39102139730084"><ele>33.2</ele><time>2026-03-28T10:36:53Z</time></trkpt><trkpt lat="44.07781983911313" lon="12.390908445035958"><ele>33.8</ele><time>2026-03-28T10:36:55Z</time></trkpt><trkpt lat="44.0778789015469" lon="12.390796601437655"><ele>34.4</ele><time>2026-03-28T10:36:57Z</time></trkpt><trkpt lat="44.07794830985164" lon="12.390690841322463"><ele>35.0</ele><time>2026-03-28T10:36:59Z</time></trkpt><trkpt lat="44.07801371900849" lon="12.390590649270958"><ele>36.166666666666664</ele><time>2026-03-28T10:37:01Z</time></trkpt><trkpt lat="44.07807443688899" lon="12.390487241609977"><ele>37.33333333333333</ele><time>2026-03-28T10:37:03Z</time></trkpt><trkpt lat="44.07813224527434" lon="12.390388601662696"><ele>38.5</ele><time>2026-03-28T10:37:05Z</time></trkpt><trkpt lat="44.078188553390795" lon="12.39029922699859"><ele>39.666666666666664</ele><time>2026-03-28T10:37:07Z</time></trkpt><trkpt lat="44.07824000523109" lon="12.390214951835663"><ele>40.833333333333336</ele><time>2026-03-28T10:37:09Z</time></trkpt><trkpt lat="44.078290011866876" lon="12.390148962096347"><ele>42.0</ele><time>2026-03-28T10:37:11Z</time></trkpt><trkpt lat="44.07833581773818" lon="12.390084561539586"><ele>42.0</ele><time>2026-03-28T10:37:13Z</time></trkpt><trkpt lat="44.078389274632315" lon="12.389989186985742"><ele>42.0</ele><time>2026-03-28T10:37:16Z</time></trkpt><trkpt lat="44.07843444762825" lon="12.389916099687882"><ele>42.0</ele><time>2026-03-28T10:37:19Z</time></trkpt><trkpt lat="44.07848365311164" lon="12.389827783486593"><ele>42.0</ele><time>2026-03-28T10:37:22Z</time></trkpt><trkpt lat="44.078539768019006" lon="12.389735977926845"><ele>42.0</ele><time>2026-03-28T10:37:25Z</time></trkpt><trkpt lat="44.07859189926905" lon="12.389631424949467"><ele>42.0</ele><time>2026-03-28T10:37:28Z</time></trkpt><trkpt lat="44.07863773099944" lon="12.389533588675162"><ele>42.666666666666664</ele><time>2026-03-28T10:37:31Z</time></trkpt><trkpt lat="44.07867030625262" lon="12.389444822607135"><ele>43.333333333333336</ele><time>2026-03-28T10:38:05Z</time></trkpt><trkpt lat="44.07874480200486" lon="12.389394729696967"><ele>44.0</ele><time>2026-03-28T10:38:08Z</time></trkpt><trkpt lat="44.07880236244074" lon="12.389456783260064"><ele>44.66666666666667</ele><time>2026-03-28T10:38:10Z</time></trkpt><trkpt lat="44.07885987141033" lon="12.389529670472458"><ele>45.333333333333336</ele><time>2026-03-28T10:38:12Z</time></trkpt><trkpt lat="44.07892934241125" lon="12.38959083160571"><ele>46.0</ele><time>2026-03-28T10:38:14Z</time></trkpt><trkpt lat="44.07900426746461" lon="12.389658639641475"><ele>46.0</ele><time>2026-03-28T10:38:16Z</time></trkpt><trkpt lat="44.07909280441378" lon="12.3897226190074"><ele>46.0</ele><time>2026-03-28T10:38:18Z</time></trkpt><trkpt lat="44.07917974891034" lon="12.389785307334149"><ele>46.0</ele><time>2026-03-28T10:38:20Z</time></trkpt><trkpt lat="44.079279459761274" lon="12.389850817811544"><ele>46.0</ele><time>2026-03-28T10:38:22Z</time></trkpt><trkpt lat="44.07938030983142" lon="12.389914650240062"><ele>46.0</ele><time>2026-03-28T10:38:24Z</time></trkpt><trkpt lat="44.07948581646519" lon="12.389983650131525"><ele>46.0</ele><time>2026-03-28T10:38:26Z</time></trkpt><trkpt lat="44.07959568662178" lon="12.390045417375662"><ele>46.0</ele><time>2026-03-28T10:38:28Z</time></trkpt><trkpt lat="44.07971003926072" lon="12.39008716945048"><ele>46.0</ele><time>2026-03-28T10:38:30Z</time></trkpt><trkpt lat="44.079824958188915" lon="12.390138732882793"><ele>46.0</ele><time>2026-03-28T10:38:32Z</time></trkpt><trkpt lat="44.07994240853397" lon="12.390169642413676"><ele>45.75</ele><time>2026-03-28T10:38:34Z</time></trkpt><trkpt lat="44.08005509609076" lon="12.390201108113907"><ele>45.5</ele><time>2026-03-28T10:38:36Z</time></trkpt><trkpt lat="44.080171409736806" lon="12.390227029140021"><ele>45.25</ele><time>2026-03-28T10:38:38Z</time></trkpt><trkpt lat="44.08028242097582" lon="12.390233644499103"><ele>45.0</ele><time>2026-03-28T10:38:40Z</time></trkpt><trkpt lat="44.08039301978295" lon="12.39023435410777"><ele>45.0</ele><time>2026-03-28T10:38:42Z</time></trkpt><trkpt lat="44.08050831767296" lon="12.390229417149717"><ele>45.0</ele><time>2026-03-28T10:38:44Z</time></trkpt><trkpt lat="44.080620444608066" lon="12.390221003031742"><ele>45.0</ele><time>2026-03-28T10:38:46Z</time></trkpt><trkpt lat="44.080704556409984" lon="12.390224820231275"><ele>45.0</ele><time>2026-03-28T10:38:48Z</time></trkpt><trkpt lat="44.08079300929878" lon="12.390200302710875"><ele>45.0</ele><time>2026-03-28T10:38:50Z</time></trkpt><trkpt lat="44.080912602896234" lon="12.390183960722412"><ele>44.2</ele><time>2026-03-28T10:38:52Z</time></trkpt><trkpt lat="44.08097675165342" lon="12.390169560794982"><ele>43.4</ele><time>2026-03-28T10:38:53Z</time></trkpt><trkpt lat="44.08104387127633" lon="12.390152190082832"><ele>42.599999999999994</ele><time>2026-03-28T10:38:54Z</time></trkpt><trkpt lat="44.08110700962678" lon="12.390142697816776"><ele>41.8</ele><time>2026-03-28T10:38:55Z</time></trkpt><trkpt lat="44.08123517137244" lon="12.390117597293083"><ele>41.0</ele><time>2026-03-28T10:38:57Z</time></trkpt><trkpt lat="44.08136309482547" lon="12.390094343440786"><ele>40.99999999999999</ele><time>2026-03-28T10:38:59Z</time></trkpt><trkpt lat="44.08142720465239" lon="12.39008427334391"><ele>41.0</ele><time>2026-03-28T10:39:00Z</time></trkpt><trkpt lat="44.08149345744113" lon="12.3900698452755"><ele>41.0</ele><time>2026-03-28T10:39:01Z</time></trkpt><trkpt lat="44.081558562598254" lon="12.390054581471723"><ele>41.0</ele><time>2026-03-28T10:39:02Z</time></trkpt><trkpt lat="44.081625308112734" lon="12.390044080402149"><ele>41.0</ele><time>2026-03-28T10:39:03Z</time></trkpt><trkpt lat="44.0816896248881" lon="12.390030617889856"><ele>40.99999999999999</ele><time>2026-03-28T10:39:04Z</time></trkpt><trkpt lat="44.081755057071526" lon="12.390018468307316"><ele>41.0</ele><time>2026-03-28T10:39:05Z</time></trkpt><trkpt lat="44.08181974831312" lon="12.390003232020184"><ele>40.42857142857142</ele><time>2026-03-28T10:39:06Z</time></trkpt><trkpt lat="44.08188621922693" lon="12.389986126800407"><ele>39.857142857142854</ele><time>2026-03-28T10:39:07Z</time></trkpt><trkpt lat="44.08195061132303" lon="12.389969804542252"><ele>39.285714285714285</ele><time>2026-03-28T10:39:08Z</time></trkpt><trkpt lat="44.08201861498928" lon="12.38995817819292"><ele>38.71428571428571</ele><time>2026-03-28T10:39:09Z</time></trkpt><trkpt lat="44.082083984593474" lon="12.389949681782916"><ele>38.14285714285714</ele><time>2026-03-28T10:39:10Z</time></trkpt><trkpt lat="44.08215148360344" lon="12.389935156265599"><ele>37.57142857142857</ele><time>2026-03-28T10:39:11Z</time></trkpt><trkpt lat="44.082216968027495" lon="12.389924345470273"><ele>37.0</ele><time>2026-03-28T10:39:12Z</time></trkpt><trkpt lat="44.08228428097954" lon="12.389913804093604"><ele>37.0</ele><time>2026-03-28T10:39:13Z</time></trkpt><trkpt lat="44.082351037311454" lon="12.389905304549831"><ele>37.0</ele><time>2026-03-28T10:39:14Z</time></trkpt><trkpt lat="44.082417797428434" lon="12.389888361739407"><ele>37.0</ele><time>2026-03-28T10:39:15Z</time></trkpt><trkpt lat="44.0824835793324" lon="12.389880504685518"><ele>37.0</ele><time>2026-03-28T10:39:16Z</time></trkpt><trkpt lat="44.08254957644818" lon="12.3898672441818"><ele>37.0</ele><time>2026-03-28T10:39:17Z</time></trkpt><trkpt lat="44.08261652372382" lon="12.389852242034497"><ele>37.0</ele><time>2026-03-28T10:39:18Z</time></trkpt><trkpt lat="44.08268109009056" lon="12.389840306657726"><ele>37.0</ele><time>2026-03-28T10:39:19Z</time></trkpt><trkpt lat="44.08274443068628" lon="12.389826883880112"><ele>36.6</ele><time>2026-03-28T10:39:20Z</time></trkpt><trkpt lat="44.082807086187735" lon="12.389811606917698"><ele>36.2</ele><time>2026-03-28T10:39:21Z</time></trkpt><trkpt lat="44.08292895888136" lon="12.389782638173276"><ele>35.8</ele><time>2026-03-28T10:39:23Z</time></trkpt><trkpt lat="44.08304394377756" lon="12.389750861694026"><ele>35.4</ele><time>2026-03-28T10:39:25Z</time></trkpt><trkpt lat="44.08315772691589" lon="12.3897274922436"><ele>35.0</ele><time>2026-03-28T10:39:27Z</time></trkpt><trkpt lat="44.083259346621105" lon="12.389696490652254"><ele>34.666666666666664</ele><time>2026-03-28T10:39:29Z</time></trkpt><trkpt lat="44.083353778885126" lon="12.389675826913749"><ele>34.33333333333333</ele><time>2026-03-28T10:39:31Z</time></trkpt><trkpt lat="44.08343938126332" lon="12.38965582994233"><ele>34.0</ele><time>2026-03-28T10:39:33Z</time></trkpt><trkpt lat="44.08351106159655" lon="12.38963821871558"><ele>33.666666666666664</ele><time>2026-03-28T10:39:35Z</time></trkpt><trkpt lat="44.08358479088979" lon="12.389624290993362"><ele>33.333333333333336</ele><time>2026-03-28T10:39:37Z</time></trkpt><trkpt lat="44.08365692529909" lon="12.389612894808355"><ele>33.0</ele><time>2026-03-28T10:39:39Z</time></trkpt><trkpt lat="44.08373325266367" lon="12.389600682490277"><ele>33.0</ele><time>2026-03-28T10:39:41Z</time></trkpt><trkpt lat="44.083816352038546" lon="12.389587400105054"><ele>33.0</ele><time>2026-03-28T10:39:43Z</time></trkpt><trkpt lat="44.08390247680446" lon="12.389574697674245"><ele>33.0</ele><time>2026-03-28T10:39:45Z</time></trkpt><trkpt lat="44.08399021183744" lon="12.389560226482"><ele>33.0</ele><time>2026-03-28T10:39:47Z</time></trkpt><trkpt lat="44.08408542222546" lon="12.389544504047892"><ele>33.0</ele><time>2026-03-28T10:39:49Z</time></trkpt><trkpt lat="44.08418389676061" lon="12.389520910566963"><ele>33.0</ele><time>2026-03-28T10:39:51Z</time></trkpt><trkpt lat="44.08428424457121" lon="12.3895064357289"><ele>33.0</ele><time>2026-03-28T10:39:53Z</time></trkpt><trkpt lat="44.08438549110225" lon="12.38949074029614"><ele>33.0</ele><time>2026-03-28T10:39:55Z</time></trkpt><trkpt lat="44.08448842507276" lon="12.389479493675225"><ele>33.0</ele><time>2026-03-28T10:39:57Z</time></trkpt><trkpt lat="44.08459578187903" lon="12.389473219070311"><ele>33.0</ele><time>2026-03-28T10:39:59Z</time></trkpt><trkpt lat="44.084702916807274" lon="12.389468013783139"><ele>33.0</ele><time>2026-03-28T10:40:01Z</time></trkpt><trkpt lat="44.084815658750685" lon="12.38946614215361"><ele>33.0</ele><time>2026-03-28T10:40:03Z</time></trkpt><trkpt lat="44.08493088482679" lon="12.389470395104041"><ele>33.0</ele><time>2026-03-28T10:40:05Z</time></trkpt><trkpt lat="44.08504613699929" lon="12.389487876659471"><ele>33.0</ele><time>2026-03-28T10:40:07Z</time></trkpt><trkpt lat="44.08516240312769" lon="12.389510186010414"><ele>33.199999999999996</ele><time>2026-03-28T10:40:09Z</time></trkpt><trkpt lat="44.08527982703815" lon="12.389540302408793"><ele>33.4</ele><time>2026-03-28T10:40:11Z</time></trkpt><trkpt lat="44.08538857558245" lon="12.389571637744089"><ele>33.599999999999994</ele><time>2026-03-28T10:40:13Z</time></trkpt><trkpt lat="44.085494417275356" lon="12.389614444367876"><ele>33.8</ele><time>2026-03-28T10:40:15Z</time></trkpt><trkpt lat="44.08558730099883" lon="12.389645421286323"><ele>34.0</ele><time>2026-03-28T10:40:17Z</time></trkpt><trkpt lat="44.08567864186011" lon="12.38968092638553"><ele>34.0</ele><time>2026-03-28T10:40:19Z</time></trkpt><trkpt lat="44.08575632946535" lon="12.389720232464628"><ele>34.0</ele><time>2026-03-28T10:40:21Z</time></trkpt><trkpt lat="44.085819422049035" lon="12.389794659477325"><ele>34.0</ele><time>2026-03-28T10:40:23Z</time></trkpt><trkpt lat="44.0858875511838" lon="12.38984999930537"><ele>34.0</ele><time>2026-03-28T10:40:25Z</time></trkpt><trkpt lat="44.085960790995586" lon="12.38982864079876"><ele>34.0</ele><time>2026-03-28T10:40:27Z</time></trkpt><trkpt lat="44.086038720021456" lon="12.389849595149462"><ele>34.0</ele><time>2026-03-28T10:40:29Z</time></trkpt><trkpt lat="44.08611785427298" lon="12.389896295212164"><ele>34.4</ele><time>2026-03-28T10:40:31Z</time></trkpt><trkpt lat="44.08620736424075" lon="12.389937758667141"><ele>34.8</ele><time>2026-03-28T10:40:33Z</time></trkpt><trkpt lat="44.08629773153352" lon="12.38997932093686"><ele>35.2</ele><time>2026-03-28T10:40:35Z</time></trkpt><trkpt lat="44.086394025191055" lon="12.390042745852774"><ele>35.6</ele><time>2026-03-28T10:40:37Z</time></trkpt><trkpt lat="44.086480234647205" lon="12.390084597491615"><ele>36.0</ele><time>2026-03-28T10:40:39Z</time></trkpt><trkpt lat="44.08657219128914" lon="12.390112190217815"><ele>36.0</ele><time>2026-03-28T10:40:41Z</time></trkpt><trkpt lat="44.08667191090971" lon="12.390132443220597"><ele>36.0</ele><time>2026-03-28T10:40:43Z</time></trkpt><trkpt lat="44.086765212243506" lon="12.390192233055606"><ele>36.0</ele><time>2026-03-28T10:40:45Z</time></trkpt><trkpt lat="44.08686641308988" lon="12.390250706474271"><ele>36.0</ele><time>2026-03-28T10:40:47Z</time></trkpt><trkpt lat="44.08696724644826" lon="12.390300626141016"><ele>36.0</ele><time>2026-03-28T10:40:49Z</time></trkpt><trkpt lat="44.08707543374956" lon="12.39036136133464"><ele>36.0</ele><time>2026-03-28T10:40:51Z</time></trkpt><trkpt lat="44.08718110161816" lon="12.390413858457416"><ele>36.0</ele><time>2026-03-28T10:40:53Z</time></trkpt><trkpt lat="44.087289934281756" lon="12.390473699085918"><ele>36.0</ele><time>2026-03-28T10:40:55Z</time></trkpt><trkpt lat="44.08740209749841" lon="12.39053300104664"><ele>36.0</ele><time>2026-03-28T10:40:57Z</time></trkpt><trkpt lat="44.08751472268288" lon="12.390591596903182"><ele>35.5</ele><time>2026-03-28T10:40:59Z</time></trkpt><trkpt lat="44.0876236702805" lon="12.390651452468386"><ele>35.0</ele><time>2026-03-28T10:41:01Z</time></trkpt><trkpt lat="44.08773692576224" lon="12.390717993928043"><ele>34.5</ele><time>2026-03-28T10:41:03Z</time></trkpt><trkpt lat="44.08784845309746" lon="12.390776872641485"><ele>34.0</ele><time>2026-03-28T10:41:05Z</time></trkpt><trkpt lat="44.0879588276025" lon="12.39083660777641"><ele>34.0</ele><time>2026-03-28T10:41:07Z</time></trkpt><trkpt lat="44.088066836321836" lon="12.390891111445738"><ele>34.0</ele><time>2026-03-28T10:41:09Z</time></trkpt><trkpt lat="44.08817950088835" lon="12.39094003200578"><ele>34.0</ele><time>2026-03-28T10:41:11Z</time></trkpt><trkpt lat="44.08827514934175" lon="12.39099753661672"><ele>34.0</ele><time>2026-03-28T10:41:13Z</time></trkpt><trkpt lat="44.088380306038026" lon="12.391020522763771"><ele>34.0</ele><time>2026-03-28T10:41:15Z</time></trkpt><trkpt lat="44.088470811439215" lon="12.39104253673267"><ele>34.0</ele><time>2026-03-28T10:41:17Z</time></trkpt><trkpt lat="44.08855747669844" lon="12.391065808745177"><ele>34.0</ele><time>2026-03-28T10:41:19Z</time></trkpt><trkpt lat="44.088651503161756" lon="12.391093498188186"><ele>34.0</ele><time>2026-03-28T10:41:21Z</time></trkpt><trkpt lat="44.08874796525682" lon="12.391117122154627"><ele>34.0</ele><time>2026-03-28T10:41:23Z</time></trkpt><trkpt lat="44.08884101277811" lon="12.391134708171244"><ele>34.0</ele><time>2026-03-28T10:41:25Z</time></trkpt><trkpt lat="44.08894630538729" lon="12.391150870458324"><ele>34.0</ele><time>2026-03-28T10:41:27Z</time></trkpt><trkpt lat="44.08905209069216" lon="12.391165276493165"><ele>34.0</ele><time>2026-03-28T10:41:29Z</time></trkpt><trkpt lat="44.08916506093557" lon="12.391178969649438"><ele>34.0</ele><time>2026-03-28T10:41:31Z</time></trkpt><trkpt lat="44.08927470401737" lon="12.391184430774429"><ele>34.0</ele><time>2026-03-28T10:41:33Z</time></trkpt><trkpt lat="44.0893861762756" lon="12.391181754725391"><ele>34.0</ele><time>2026-03-28T10:41:35Z</time></trkpt><trkpt lat="44.089480301892436" lon="12.39116888535875"><ele>34.2</ele><time>2026-03-28T10:41:37Z</time></trkpt><trkpt lat="44.0895832994097" lon="12.39115142180851"><ele>34.4</ele><time>2026-03-28T10:41:39Z</time></trkpt><trkpt lat="44.089695414533885" lon="12.391132116329361"><ele>34.6</ele><time>2026-03-28T10:41:41Z</time></trkpt><trkpt lat="44.08980582874241" lon="12.391109750752722"><ele>34.8</ele><time>2026-03-28T10:41:43Z</time></trkpt><trkpt lat="44.089917748579666" lon="12.391133068351145"><ele>35.0</ele><time>2026-03-28T10:41:45Z</time></trkpt><trkpt lat="44.090030915950024" lon="12.391115523896891"><ele>34.5</ele><time>2026-03-28T10:41:47Z</time></trkpt><trkpt lat="44.090143463075336" lon="12.391097772008802"><ele>34.0</ele><time>2026-03-28T10:41:49Z</time></trkpt><trkpt lat="44.09025881475194" lon="12.39109375136597"><ele>33.5</ele><time>2026-03-28T10:41:51Z</time></trkpt><trkpt lat="44.0903710197921" lon="12.391089022314691"><ele>33.0</ele><time>2026-03-28T10:41:53Z</time></trkpt><trkpt lat="44.090493970233595" lon="12.391075819343262"><ele>33.0</ele><time>2026-03-28T10:41:55Z</time></trkpt><trkpt lat="44.09060948879105" lon="12.391081354864944"><ele>33.0</ele><time>2026-03-28T10:41:57Z</time></trkpt><trkpt lat="44.09070977537573" lon="12.391072272719828"><ele>33.0</ele><time>2026-03-28T10:41:59Z</time></trkpt><trkpt lat="44.090806886959825" lon="12.391057071674693"><ele>33.0</ele><time>2026-03-28T10:42:01Z</time></trkpt><trkpt lat="44.09090067854543" lon="12.391045238092513"><ele>33.0</ele><time>2026-03-28T10:42:03Z</time></trkpt><trkpt lat="44.0909842018584" lon="12.391037438236314"><ele>33.166666666666664</ele><time>2026-03-28T10:42:05Z</time></trkpt><trkpt lat="44.091058611721316" lon="12.391052410814233"><ele>33.333333333333336</ele><time>2026-03-28T10:42:07Z</time></trkpt><trkpt lat="44.09114061023003" lon="12.391100248852457"><ele>33.5</ele><time>2026-03-28T10:42:09Z</time></trkpt><trkpt lat="44.09120002877595" lon="12.391165762518934"><ele>33.66666666666667</ele><time>2026-03-28T10:42:11Z</time></trkpt><trkpt lat="44.09127460180277" lon="12.391209558155007"><ele>33.833333333333336</ele><time>2026-03-28T10:42:14Z</time></trkpt><trkpt lat="44.09132855464558" lon="12.391255008466086"><ele>34.0</ele><time>2026-03-28T10:42:18Z</time></trkpt><trkpt lat="44.091400515806384" lon="12.391238405694878"><ele>34.0</ele><time>2026-03-28T10:42:21Z</time></trkpt><trkpt lat="44.09145233576028" lon="12.39128845838111"><ele>34.0</ele><time>2026-03-28T10:42:24Z</time></trkpt><trkpt lat="44.09145425628881" lon="12.39140351150794"><ele>34.0</ele><time>2026-03-28T10:42:26Z</time></trkpt><trkpt lat="44.091442135751215" lon="12.391519294259005"><ele>34.0</ele><time>2026-03-28T10:42:28Z</time></trkpt><trkpt lat="44.09144193963774" lon="12.39164118911345"><ele>34.0</ele><time>2026-03-28T10:42:30Z</time></trkpt><trkpt lat="44.09142995833051" lon="12.391763744117197"><ele>34.0</ele><time>2026-03-28T10:42:32Z</time></trkpt><trkpt lat="44.091410334215375" lon="12.391882560833329"><ele>33.833333333333336</ele><time>2026-03-28T10:42:34Z</time></trkpt><trkpt lat="44.09139521800773" lon="12.391997487497271"><ele>33.66666666666667</ele><time>2026-03-28T10:42:36Z</time></trkpt><trkpt lat="44.09137082138608" lon="12.392112705968636"><ele>33.5</ele><time>2026-03-28T10:42:38Z</time></trkpt><trkpt lat="44.091360094903884" lon="12.392219818612626"><ele>33.333333333333336</ele><time>2026-03-28T10:42:40Z</time></trkpt><trkpt lat="44.091353031387634" lon="12.392321166961647"><ele>33.166666666666664</ele><time>2026-03-28T10:42:42Z</time></trkpt><trkpt lat="44.09134426687728" lon="12.392417120316868"><ele>33.0</ele><time>2026-03-28T10:42:44Z</time></trkpt><trkpt lat="44.09133241515304" lon="12.392539401468884"><ele>33.0</ele><time>2026-03-28T10:42:46Z</time></trkpt><trkpt lat="44.09131808155121" lon="12.392683054378962"><ele>33.0</ele><time>2026-03-28T10:42:48Z</time></trkpt><trkpt lat="44.0912986523171" lon="12.392825383545068"><ele>33.0</ele><time>2026-03-28T10:42:50Z</time></trkpt><trkpt lat="44.091283321837736" lon="12.39295719807726"><ele>33.0</ele><time>2026-03-28T10:42:52Z</time></trkpt><trkpt lat="44.091266769333274" lon="12.393077589444939"><ele>33.0</ele><time>2026-03-28T10:42:54Z</time></trkpt><trkpt lat="44.091257934589706" lon="12.393189271285957"><ele>32.833333333333336</ele><time>2026-03-28T10:42:56Z</time></trkpt><trkpt lat="44.09124280775775" lon="12.393296233031581"><ele>32.666666666666664</ele><time>2026-03-28T10:42:58Z</time></trkpt><trkpt lat="44.091229617066965" lon="12.39338993319391"><ele>32.5</ele><time>2026-03-28T10:43:00Z</time></trkpt><trkpt lat="44.09122233624192" lon="12.393508991427801"><ele>32.33333333333333</ele><time>2026-03-28T10:43:03Z</time></trkpt><trkpt lat="44.09121285609278" lon="12.393603404050866"><ele>32.166666666666664</ele><time>2026-03-28T10:43:05Z</time></trkpt><trkpt lat="44.09119958046639" lon="12.393712046738155"><ele>32.0</ele><time>2026-03-28T10:43:07Z</time></trkpt><trkpt lat="44.091186915482716" lon="12.39381668885161"><ele>31.999999999999996</ele><time>2026-03-28T10:43:09Z</time></trkpt><trkpt lat="44.091181299038425" lon="12.393916489640258"><ele>32.0</ele><time>2026-03-28T10:43:11Z</time></trkpt><trkpt lat="44.091235356345294" lon="12.393975652134447"><ele>32.0</ele><time>2026-03-28T10:43:13Z</time></trkpt><trkpt lat="44.091322876227956" lon="12.393977386879683"><ele>32.0</ele><time>2026-03-28T10:43:15Z</time></trkpt><trkpt lat="44.091407635447354" lon="12.393985690307044"><ele>31.999999999999996</ele><time>2026-03-28T10:43:17Z</time></trkpt><trkpt lat="44.09148528076713" lon="12.3939965686805"><ele>32.0</ele><time>2026-03-28T10:43:19Z</time></trkpt><trkpt lat="44.091561178744236" lon="12.394016412141415"><ele>31.999999999999996</ele><time>2026-03-28T10:43:21Z</time></trkpt><trkpt lat="44.09162999103012" lon="12.394046575900335"><ele>32.0</ele><time>2026-03-28T10:43:23Z</time></trkpt><trkpt lat="44.09171517723607" lon="12.394088630939576"><ele>32.0</ele><time>2026-03-28T10:43:27Z</time></trkpt><trkpt lat="44.09172319827414" lon="12.394197202352796"><ele>32.0</ele><time>2026-03-28T10:43:29Z</time></trkpt><trkpt lat="44.09170947093758" lon="12.394306601341773"><ele>31.999999999999996</ele><time>2026-03-28T10:43:31Z</time></trkpt><trkpt lat="44.09171216103203" lon="12.394429002648305"><ele>32.0</ele><time>2026-03-28T10:43:33Z</time></trkpt><trkpt lat="44.091711370705546" lon="12.394526403525465"><ele>32.0</ele><time>2026-03-28T10:43:36Z</time></trkpt><trkpt lat="44.09176327338427" lon="12.394576585192508"><ele>31.999999999999996</ele><time>2026-03-28T10:43:40Z</time></trkpt><trkpt lat="44.09182904621477" lon="12.394579917981586"><ele>32.0</ele><time>2026-03-28T10:43:42Z</time></trkpt><trkpt lat="44.09190783870991" lon="12.394584142322964"><ele>32.0</ele><time>2026-03-28T10:43:46Z</time></trkpt><trkpt lat="44.091973350570456" lon="12.394602550774195"><ele>31.999999999999996</ele><time>2026-03-28T10:43:48Z</time></trkpt><trkpt lat="44.092028434116166" lon="12.39466370006811"><ele>32.0</ele><time>2026-03-28T10:43:50Z</time></trkpt><trkpt lat="44.09205701539152" lon="12.394758653408598"><ele>32.0</ele><time>2026-03-28T10:43:52Z</time></trkpt><trkpt lat="44.09206162356682" lon="12.394859033406254"><ele>31.71428571428571</ele><time>2026-03-28T10:43:54Z</time></trkpt><trkpt lat="44.09207367604173" lon="12.394967680154082"><ele>31.428571428571423</ele><time>2026-03-28T10:43:56Z</time></trkpt><trkpt lat="44.09206834955859" lon="12.395069588056769"><ele>31.142857142857142</ele><time>2026-03-28T10:43:58Z</time></trkpt><trkpt lat="44.09206557242373" lon="12.395179501822758"><ele>30.857142857142854</ele><time>2026-03-28T10:44:00Z</time></trkpt><trkpt lat="44.092074423748265" lon="12.395287885561661"><ele>30.57142857142857</ele><time>2026-03-28T10:44:02Z</time></trkpt><trkpt lat="44.09207178950104" lon="12.395377748897724"><ele>30.285714285714285</ele><time>2026-03-28T10:44:04Z</time></trkpt><trkpt lat="44.09201719518389" lon="12.395429324520705"><ele>30.0</ele><time>2026-03-28T10:44:07Z</time></trkpt><trkpt lat="44.09195107092548" lon="12.395418819687013"><ele>30.0</ele><time>2026-03-28T10:44:10Z</time></trkpt><trkpt lat="44.091861288647664" lon="12.395400914335111"><ele>30.0</ele><time>2026-03-28T10:44:13Z</time></trkpt><trkpt lat="44.09178433766478" lon="12.395386451025763"><ele>30.0</ele><time>2026-03-28T10:44:15Z</time></trkpt><trkpt lat="44.091726295666504" lon="12.39533920707554"><ele>30.0</ele><time>2026-03-28T10:44:17Z</time></trkpt><trkpt lat="44.091676516235445" lon="12.395243743860414"><ele>30.0</ele><time>2026-03-28T10:44:20Z</time></trkpt><trkpt lat="44.09162800597185" lon="12.39517084410363"><ele>30.0</ele><time>2026-03-28T10:45:00Z</time></trkpt><trkpt lat="44.09155757988582" lon="12.395156208991851"><ele>35.0</ele><time>2026-03-28T10:45:06Z</time></trkpt></trkseg></trk></gpx>